[[{"header":{"parameterUnit":"m.s-1","parameterCategory":1,"la1":30.6,"la2":29.2853,"lo1":-89.7004,"lo2":-87.6739,"dy":0.0162,"dx":0.0183,"nx":112,"ny":82,"refTime":"2025-06-17T12:00:00:Z","depth":0,"parameterNumber":2,"parameterNumberName":"U-component_of_WINDS"},"data":[0.0,0.0,0.0,0.0,0.0,0.0,0.0,0.0,0.0,0.0,0.0,0.0,0.0,0.0,0.0,0.0,0.0,0.0,0.0,0.0,0.0,0.0,0.0,0.0,0.0,0.0,0.0,0.0,0.0,0.0,0.0,0.0,0.0,0.0,0.0,0.0,0.0,0.0,0.0,0.0,0.0,0.0,0.0,0.0,0.0,0.0,0.0,0.0,0.0,0.0,0.0,0.0,0.0,0.0,0.0,0.0,0.0,0.0,0.0,0.0,0.0,0.0,0.0,0.0,0.0,0.0,0.0,0.0,0.0,0.0,0.0,0.0,0.0,0.0,0.0,0.0,0.0,0.0,0.0,0.0,0.0,0.0,0.0,0.0,0.0,0.0,0.0,0.0,0.0,0.0,-4.7871,-4.9141,-5.0377,-5.1089,-5.1089,-5.0859,-4.8984,-4.494,0.0,0.0,0.0,0.0,0.0,0.0,0.0,0.0,0.0,0.0,0.0,0.0,0.0,0.0,0.0,0.0,0.0,0.0,0.0,0.0,0.0,0.0,0.0,0.0,0.0,0.0,0.0,0.0,0.0,0.0,0.0,0.0,0.0,0.0,0.0,0.0,0.0,0.0,0.0,0.0,0.0,0.0,0.0,0.0,0.0,0.0,0.0,0.0,0.0,0.0,0.0,0.0,0.0,0.0,0.0,0.0,0.0,0.0,0.0,0.0,0.0,0.0,0.0,0.0,0.0,0.0,0.0,0.0,0.0,0.0,0.0,0.0,0.0,0.0,0.0,0.0,0.0,0.0,0.0,0.0,0.0,0.0,0.0,0.0,0.0,0.0,0.0,0.0,0.0,0.0,0.0,0.0,0.0,0.0,0.0,0.0,0.0,0.0,0.0,0.0,0.0,0.0,0.0,0.0,-4.7656,-5.0703,-5.1063,-5.1089,-5.1089,-5.0859,-4.8984,-4.494,0.0,0.0,0.0,0.0,0.0,0.0,0.0,0.0,0.0,0.0,0.0,0.0,0.0,0.0,0.0,0.0,0.0,0.0,0.0,0.0,0.0,0.0,0.0,0.0,0.0,0.0,0.0,0.0,0.0,0.0,0.0,0.0,0.0,0.0,0.0,0.0,0.0,0.0,0.0,0.0,0.0,0.0,0.0,0.0,0.0,0.0,0.0,0.0,0.0,0.0,0.0,0.0,0.0,0.0,0.0,0.0,0.0,0.0,0.0,0.0,0.0,0.0,0.0,0.0,0.0,0.0,0.0,0.0,0.0,0.0,0.0,0.0,0.0,0.0,0.0,0.0,0.0,0.0,0.0,0.0,0.0,0.0,0.0,0.0,0.0,0.0,0.0,0.0,0.0,0.0,0.0,0.0,0.0,0.0,0.0,0.0,0.0,0.0,0.0,0.0,0.0,0.0,0.0,-4.6987,-4.8125,-5.1094,-5.1219,-5.1089,-5.1089,-5.0859,-4.9055,-4.5156,-4.4376,0.0,0.0,0.0,0.0,0.0,0.0,0.0,0.0,0.0,0.0,0.0,0.0,0.0,0.0,0.0,0.0,0.0,0.0,0.0,0.0,0.0,0.0,0.0,0.0,0.0,0.0,0.0,0.0,0.0,0.0,0.0,0.0,0.0,0.0,0.0,0.0,0.0,0.0,0.0,0.0,0.0,0.0,0.0,0.0,0.0,0.0,0.0,0.0,0.0,0.0,0.0,0.0,0.0,0.0,0.0,0.0,0.0,0.0,0.0,0.0,0.0,0.0,0.0,0.0,0.0,0.0,0.0,0.0,0.0,0.0,0.0,0.0,0.0,0.0,0.0,0.0,0.0,0.0,0.0,0.0,0.0,0.0,0.0,0.0,0.0,0.0,0.0,0.0,0.0,0.0,0.0,0.0,0.0,0.0,0.0,0.0,0.0,0.0,0.0,0.0,0.0,0.0,-4.8242,-4.9023,-5.113,-5.1206,-5.1098,-5.1067,-5.046,-4.8653,-4.5314,-4.3593,0.0,0.0,0.0,0.0,0.0,0.0,0.0,0.0,0.0,0.0,0.0,0.0,0.0,0.0,0.0,0.0,0.0,0.0,0.0,0.0,0.0,0.0,0.0,0.0,0.0,0.0,0.0,0.0,0.0,0.0,0.0,0.0,0.0,0.0,0.0,0.0,0.0,0.0,0.0,0.0,0.0,0.0,0.0,0.0,0.0,0.0,0.0,0.0,0.0,0.0,0.0,0.0,0.0,0.0,0.0,0.0,0.0,0.0,0.0,0.0,0.0,0.0,0.0,0.0,0.0,0.0,0.0,0.0,0.0,0.0,0.0,0.0,0.0,0.0,0.0,0.0,0.0,0.0,0.0,0.0,0.0,0.0,0.0,0.0,0.0,0.0,0.0,0.0,0.0,0.0,0.0,0.0,0.0,0.0,0.0,0.0,0.0,0.0,0.0,0.0,0.0,0.0,-4.8555,-5.0329,-5.1137,-5.1148,-5.1061,-5.0925,-4.9296,-4.7377,-4.5227,-4.2104,0.0,0.0,0.0,0.0,0.0,0.0,0.0,0.0,0.0,0.0,0.0,0.0,0.0,0.0,0.0,0.0,0.0,0.0,0.0,0.0,0.0,0.0,0.0,0.0,0.0,0.0,0.0,0.0,0.0,0.0,0.0,0.0,0.0,0.0,0.0,0.0,0.0,0.0,0.0,0.0,0.0,0.0,0.0,0.0,0.0,0.0,0.0,0.0,0.0,0.0,0.0,0.0,0.0,0.0,0.0,0.0,0.0,0.0,0.0,0.0,0.0,0.0,0.0,0.0,0.0,0.0,0.0,0.0,0.0,0.0,0.0,0.0,0.0,0.0,0.0,0.0,0.0,0.0,0.0,0.0,0.0,0.0,0.0,0.0,0.0,0.0,0.0,0.0,0.0,0.0,0.0,0.0,0.0,0.0,0.0,0.0,0.0,0.0,0.0,0.0,0.0,0.0,-4.7503,-4.9153,0.0,-5.106,-5.0733,-5.0141,-4.9365,-4.7453,-4.4067,0.0,0.0,0.0,0.0,0.0,0.0,0.0,0.0,0.0,0.0,0.0,0.0,0.0,0.0,0.0,0.0,0.0,0.0,0.0,0.0,0.0,0.0,0.0,0.0,0.0,0.0,0.0,0.0,0.0,0.0,0.0,0.0,0.0,0.0,0.0,0.0,0.0,0.0,0.0,0.0,0.0,0.0,0.0,0.0,0.0,0.0,0.0,0.0,0.0,0.0,0.0,0.0,0.0,0.0,0.0,0.0,0.0,0.0,0.0,0.0,0.0,0.0,0.0,0.0,0.0,0.0,0.0,0.0,0.0,0.0,0.0,0.0,0.0,0.0,0.0,0.0,0.0,0.0,0.0,0.0,0.0,0.0,0.0,0.0,0.0,0.0,0.0,0.0,0.0,0.0,0.0,0.0,0.0,0.0,0.0,0.0,0.0,0.0,0.0,0.0,0.0,0.0,-4.5162,-4.6877,-4.8519,0.0,-5.0569,-5.0112,-4.92,-4.8551,-4.674,-4.3316,0.0,0.0,0.0,0.0,0.0,0.0,0.0,0.0,0.0,0.0,0.0,0.0,0.0,0.0,0.0,0.0,0.0,0.0,0.0,0.0,0.0,0.0,0.0,0.0,0.0,0.0,0.0,0.0,0.0,0.0,0.0,0.0,0.0,0.0,0.0,0.0,0.0,0.0,0.0,0.0,0.0,0.0,0.0,0.0,0.0,0.0,0.0,0.0,0.0,0.0,0.0,0.0,0.0,0.0,0.0,0.0,0.0,0.0,0.0,0.0,0.0,0.0,0.0,0.0,0.0,0.0,0.0,0.0,0.0,0.0,0.0,0.0,0.0,0.0,0.0,0.0,0.0,0.0,0.0,0.0,0.0,0.0,0.0,0.0,0.0,0.0,0.0,0.0,0.0,0.0,0.0,0.0,0.0,0.0,0.0,0.0,0.0,0.0,0.0,0.0,0.0,0.0,-4.4338,-4.6915,-4.8768,-4.9516,-4.9572,-4.9181,-4.8162,-4.6547,-4.4883,0.0,0.0,0.0,0.0,0.0,0.0,0.0,0.0,0.0,0.0,0.0,0.0,0.0,0.0,0.0,0.0,0.0,0.0,0.0,0.0,0.0,0.0,0.0,0.0,0.0,0.0,0.0,0.0,0.0,0.0,0.0,0.0,0.0,0.0,0.0,0.0,0.0,0.0,0.0,0.0,0.0,0.0,0.0,0.0,0.0,0.0,0.0,0.0,0.0,0.0,0.0,0.0,0.0,0.0,0.0,0.0,0.0,0.0,0.0,0.0,0.0,0.0,0.0,0.0,0.0,0.0,0.0,0.0,0.0,0.0,0.0,0.0,0.0,0.0,0.0,0.0,0.0,0.0,0.0,0.0,0.0,0.0,0.0,0.0,0.0,0.0,0.0,0.0,0.0,0.0,0.0,0.0,0.0,0.0,0.0,0.0,0.0,0.0,0.0,0.0,0.0,0.0,0.0,-4.3449,-4.5896,-4.7766,-4.8598,-4.8601,-4.8186,-4.7336,-4.624,-4.4363,-4.1458,0.0,0.0,0.0,0.0,0.0,0.0,0.0,0.0,0.0,0.0,0.0,0.0,0.0,0.0,0.0,0.0,0.0,0.0,0.0,0.0,0.0,0.0,0.0,0.0,0.0,0.0,0.0,0.0,0.0,0.0,0.0,0.0,0.0,0.0,0.0,0.0,0.0,0.0,0.0,0.0,0.0,0.0,0.0,0.0,0.0,0.0,0.0,0.0,0.0,0.0,0.0,0.0,0.0,0.0,0.0,0.0,0.0,0.0,0.0,0.0,0.0,0.0,0.0,0.0,0.0,0.0,0.0,0.0,0.0,0.0,0.0,0.0,0.0,0.0,0.0,0.0,0.0,0.0,0.0,0.0,0.0,0.0,0.0,0.0,0.0,0.0,0.0,0.0,0.0,0.0,0.0,0.0,0.0,0.0,0.0,0.0,0.0,0.0,0.0,0.0,0.0,0.0,-4.2524,-4.5189,-4.7164,-4.7701,-4.7675,-4.7278,-4.6451,-4.5586,-4.3912,-4.1181,0.0,0.0,0.0,0.0,0.0,0.0,0.0,0.0,0.0,0.0,0.0,0.0,0.0,0.0,0.0,0.0,0.0,0.0,0.0,0.0,0.0,0.0,0.0,0.0,0.0,0.0,0.0,0.0,0.0,0.0,0.0,0.0,0.0,0.0,0.0,0.0,0.0,0.0,0.0,0.0,0.0,0.0,0.0,0.0,0.0,0.0,0.0,0.0,0.0,0.0,0.0,0.0,0.0,0.0,0.0,0.0,0.0,0.0,0.0,0.0,0.0,0.0,0.0,0.0,0.0,0.0,0.0,0.0,0.0,0.0,0.0,0.0,0.0,0.0,0.0,0.0,0.0,0.0,0.0,0.0,0.0,0.0,0.0,0.0,0.0,0.0,0.0,0.0,0.0,0.0,0.0,0.0,0.0,0.0,0.0,0.0,0.0,0.0,0.0,0.0,0.0,0.0,-4.1585,-4.4662,-4.6778,-4.6778,-4.6721,-4.6336,-4.5556,-4.4605,-4.3374,-4.1777,0.0,0.0,0.0,0.0,0.0,0.0,0.0,0.0,0.0,0.0,0.0,0.0,0.0,0.0,0.0,0.0,0.0,0.0,0.0,0.0,0.0,0.0,0.0,0.0,0.0,0.0,0.0,0.0,0.0,0.0,0.0,0.0,0.0,0.0,0.0,0.0,0.0,0.0,0.0,0.0,0.0,0.0,0.0,0.0,0.0,0.0,0.0,0.0,0.0,0.0,0.0,0.0,0.0,0.0,0.0,0.0,0.0,0.0,0.0,0.0,-4.7791,-4.7118,0.0,0.0,0.0,0.0,0.0,0.0,0.0,0.0,0.0,0.0,0.0,0.0,0.0,0.0,0.0,0.0,0.0,0.0,0.0,0.0,0.0,0.0,0.0,0.0,0.0,0.0,0.0,0.0,0.0,0.0,0.0,0.0,0.0,0.0,0.0,0.0,0.0,0.0,0.0,0.0,-4.0746,-4.3767,-4.5883,-4.5883,-4.5259,-4.4778,-4.4586,-4.3201,-4.1893,-4.0843,-3.92,0.0,0.0,0.0,0.0,0.0,0.0,0.0,0.0,0.0,0.0,0.0,0.0,0.0,0.0,0.0,0.0,0.0,0.0,0.0,0.0,0.0,0.0,0.0,0.0,0.0,0.0,0.0,0.0,0.0,0.0,0.0,0.0,0.0,0.0,0.0,0.0,0.0,0.0,0.0,0.0,0.0,0.0,0.0,0.0,0.0,0.0,0.0,0.0,0.0,0.0,0.0,0.0,0.0,0.0,0.0,0.0,0.0,0.0,0.0,-4.8651,-4.8223,0.0,0.0,0.0,0.0,0.0,0.0,0.0,0.0,0.0,0.0,0.0,0.0,0.0,0.0,0.0,0.0,0.0,0.0,0.0,0.0,0.0,0.0,0.0,0.0,0.0,0.0,0.0,0.0,0.0,0.0,0.0,0.0,0.0,0.0,0.0,0.0,0.0,0.0,0.0,0.0,-4.1066,-4.3748,-4.5441,-4.5017,-4.4566,-4.4143,-4.3758,-4.2547,-4.1604,-4.1143,-3.9546,0.0,0.0,0.0,0.0,0.0,0.0,0.0,0.0,0.0,0.0,0.0,0.0,0.0,0.0,0.0,0.0,0.0,0.0,0.0,0.0,0.0,0.0,0.0,0.0,0.0,0.0,0.0,0.0,0.0,0.0,0.0,0.0,0.0,0.0,0.0,0.0,0.0,0.0,0.0,0.0,0.0,0.0,0.0,0.0,0.0,0.0,0.0,0.0,0.0,0.0,0.0,0.0,0.0,-5.0644,-5.0566,-5.041,-5.041,-5.041,-5.0351,-4.9536,-4.9499,-4.9874,-4.8234,0.0,0.0,0.0,0.0,0.0,0.0,0.0,0.0,0.0,0.0,0.0,0.0,0.0,0.0,0.0,0.0,0.0,0.0,0.0,0.0,0.0,0.0,0.0,0.0,-4.6791,-4.6466,-4.3365,0.0,0.0,0.0,0.0,0.0,0.0,0.0,0.0,0.0,0.0,0.0,-4.1712,-4.4008,-4.5267,-4.4393,-4.4162,-4.3758,-4.2931,-4.2066,-4.1566,-4.1566,-4.0142,-3.8977,0.0,0.0,0.0,0.0,0.0,0.0,0.0,0.0,0.0,0.0,0.0,0.0,0.0,0.0,0.0,0.0,0.0,0.0,0.0,0.0,0.0,0.0,0.0,0.0,0.0,0.0,0.0,0.0,0.0,0.0,0.0,0.0,-4.606,-4.7954,0.0,0.0,0.0,0.0,0.0,0.0,0.0,0.0,0.0,0.0,0.0,0.0,0.0,-5.1914,-5.3301,-5.332,-5.3008,-5.2363,-5.2363,-5.1973,-5.123,-5.123,-5.123,-5.123,-5.1093,0.0,-4.9974,-4.9605,0.0,0.0,0.0,0.0,0.0,0.0,0.0,0.0,0.0,0.0,0.0,0.0,0.0,0.0,0.0,0.0,0.0,0.0,0.0,0.0,0.0,0.0,-4.9989,-4.8367,-4.8049,-4.7787,0.0,-4.4393,-4.2508,-4.1643,-4.0854,0.0,0.0,0.0,0.0,0.0,0.0,0.0,-4.1788,-4.4008,-4.5267,-4.4393,-4.3662,-4.2912,-4.2038,-4.1162,-4.0669,-4.0669,-3.9804,-3.9246,-3.913,-3.7565,0.0,0.0,0.0,0.0,0.0,0.0,0.0,0.0,0.0,0.0,0.0,0.0,0.0,0.0,0.0,0.0,0.0,0.0,0.0,0.0,0.0,0.0,0.0,0.0,0.0,0.0,0.0,0.0,0.0,-4.5351,-4.7569,-4.8873,-4.9013,-4.8851,0.0,0.0,0.0,0.0,0.0,0.0,0.0,0.0,0.0,-5.2719,-5.281,-5.3223,-5.3984,-5.4004,-5.3808,-5.3418,-5.293,-5.25,-5.2109,-5.1621,-5.1406,-5.1406,-5.1406,-5.1171,-5.0732,-5.0157,-4.962,-4.9054,0.0,0.0,0.0,0.0,-4.7567,-4.7702,-4.8548,-4.8836,-4.8682,-4.7855,0.0,0.0,0.0,0.0,0.0,0.0,0.0,0.0,0.0,0.0,-5.0189,-4.9424,-4.9202,-4.8734,-4.7279,-4.6056,-4.4836,0.0,-4.2893,-4.2074,-4.0285,0.0,0.0,0.0,0.0,-4.2701,-4.3143,-4.4182,-4.4547,-4.3701,-4.2874,-4.2027,-4.1143,-4.0727,-4.0496,-4.0496,-4.0169,-3.9765,-3.9323,-3.8565,-3.7526,0.0,0.0,0.0,0.0,0.0,0.0,0.0,0.0,0.0,0.0,0.0,0.0,0.0,0.0,0.0,0.0,0.0,0.0,0.0,0.0,0.0,0.0,0.0,0.0,0.0,0.0,0.0,0.0,-4.7084,-4.8785,-4.9772,-5.0159,-5.0239,0.0,0.0,0.0,0.0,0.0,0.0,-5.1554,-5.2394,-5.3267,-5.4154,-5.4274,-5.4433,-5.4668,-5.4668,-5.4551,-5.4316,-5.3457,-5.293,-5.2676,-5.1797,-5.1406,-5.1406,-5.1406,-5.1406,-5.1347,-5.0588,-5.0224,-5.0038,-4.898,-4.8514,-4.8432,-4.8432,-4.8432,-4.8567,-4.9433,-4.9721,-4.9625,-4.8971,-4.8471,-4.7913,-4.6874,0.0,0.0,0.0,0.0,-4.879,-4.9847,-4.9997,-4.9874,-4.9933,-4.9527,-4.8735,-4.732,-4.6777,-4.6182,0.0,-4.4624,-4.3951,-4.1843,0.0,0.0,0.0,0.0,-4.3624,-4.422,-4.4489,-4.4239,-4.3201,-4.2527,-4.17,-4.0593,-4.0496,-4.0496,-4.0496,-4.0496,-4.0227,-3.9631,-3.9611,-3.8892,-3.7392,0.0,0.0,0.0,0.0,0.0,0.0,0.0,0.0,0.0,0.0,0.0,0.0,0.0,0.0,0.0,0.0,0.0,0.0,0.0,0.0,0.0,0.0,0.0,0.0,0.0,0.0,0.0,0.0,0.0,-5.0529,-5.2039,0.0,0.0,0.0,0.0,-5.1769,-5.252,-5.314,-5.3441,-5.3531,-5.4066,-5.5195,-5.5234,-5.5625,-5.6465,-5.6465,-5.6055,-5.5215,-5.4355,-5.3496,-5.2676,-5.1797,-5.1406,-5.1406,-5.1406,-5.1406,-5.1386,-5.1131,-5.104,-5.0913,-4.979,-4.9346,-4.9336,-4.9336,-4.9336,-4.9452,-5.0327,-5.0635,-5.0635,-5.0577,-4.9452,-4.824,-4.8971,-4.8213,0.0,0.0,-4.9594,-4.9922,-5.0797,-5.0509,-4.9967,-4.9837,-4.855,-4.7272,-4.7043,-4.6302,-4.5633,0.0,-4.5537,-4.5229,-4.4259,0.0,-4.3893,-4.3085,-4.3682,-4.4239,-4.4297,-4.5017,-4.4921,-4.3278,-4.3066,-4.2354,-4.065,-4.0496,-4.0496,-4.0496,-4.0496,-4.0477,-4.0439,-4.0439,-4.0035,-3.9188,-3.7546,0.0,0.0,0.0,0.0,0.0,0.0,0.0,0.0,0.0,0.0,0.0,0.0,0.0,0.0,0.0,0.0,0.0,0.0,0.0,0.0,0.0,0.0,0.0,0.0,0.0,0.0,0.0,0.0,-5.1375,-5.2491,0.0,-5.2375,-5.2856,-5.3068,-5.276,-5.3618,-5.4243,-5.4435,-5.5045,-5.5638,-5.6113,-5.6133,-5.6289,-5.6601,-5.6601,-5.6445,-5.6113,-5.4687,-5.3848,-5.3496,-5.2051,-5.1406,-5.1406,-5.1406,-5.1344,-5.1265,-5.116,-5.1089,-5.1054,-5.056,-5.031,-5.025,-5.025,-5.025,-5.0289,-5.0596,-5.0712,-5.0712,-5.0712,-5.0289,-4.9817,-5.0144,-4.9911,-4.9655,-5.0171,-5.0399,-5.0584,-5.0888,-5.0349,-4.9609,-4.91,-4.8024,-4.6969,-4.6352,-4.5897,-4.5594,-4.5594,-4.5594,-4.5325,-4.4451,-4.4759,-4.4863,-4.3989,-4.4586,-4.5152,-4.5152,-4.4921,-4.4335,-4.322,-4.2604,-4.1777,-4.0593,-4.0496,-4.0496,-4.0496,-4.0496,-4.0496,-4.0496,-4.0496,-4.0131,-3.9323,-3.873,-3.7497,0.0,0.0,0.0,0.0,0.0,0.0,0.0,0.0,0.0,0.0,0.0,0.0,0.0,0.0,0.0,0.0,0.0,0.0,0.0,0.0,0.0,0.0,0.0,0.0,0.0,-4.982,-5.1298,-5.1846,-5.3183,-5.3933,-5.3664,-5.3876,-5.4049,-5.4049,-5.466,-5.5134,-5.533,-5.5961,-5.6419,-5.6582,-5.6601,-5.6601,-5.6601,-5.6601,-5.6601,-5.6582,-5.4824,-5.4004,-5.3945,-5.2187,-5.1406,-5.1406,-5.1406,-5.1321,-5.1196,-5.1124,-5.1063,-5.1027,-5.0886,-5.0773,-5.0712,-5.0712,-5.0712,-5.0712,-5.0712,-5.0712,-5.0712,-5.0712,-5.0712,-5.0712,-5.0712,-5.078,-5.0879,-5.0799,-5.0827,-5.0831,-5.054,-4.9804,-4.8961,-4.818,-4.7305,-4.6506,-4.5919,-4.5692,-4.5594,-4.5594,-4.5594,-4.5421,-4.4836,-4.5229,-4.5402,-4.4816,-4.5229,-4.562,-4.5657,-4.5163,-4.4519,-4.3715,-4.2816,-4.1923,-4.1082,-4.0696,-4.0496,-4.0496,-4.0496,-4.0496,-4.0496,-4.026,-4.0027,-3.9783,-3.9591,-3.8399,-3.6145,0.0,0.0,0.0,0.0,0.0,0.0,0.0,0.0,0.0,0.0,0.0,0.0,0.0,0.0,0.0,0.0,0.0,0.0,0.0,0.0,0.0,0.0,0.0,-4.8957,-5.0683,-5.1942,-5.1981,-5.4184,-5.5395,-5.4607,-5.5241,-5.5703,-5.5703,-5.5703,-5.5844,-5.6175,-5.6191,-5.6324,-5.6582,-5.6601,-5.6601,-5.6601,-5.6601,-5.6601,-5.6582,-5.4824,-5.4004,-5.3945,-5.2187,-5.1406,-5.1406,-5.1406,-5.1321,-5.1194,-5.112,-5.1022,-5.0879,-5.0748,-5.0712,-5.0712,-5.0712,-5.0712,-5.0712,-5.0712,-5.0712,-5.0712,-5.0712,-5.0712,-5.0712,-5.0712,-5.078,-5.0908,-5.0908,-5.0908,-5.0715,-4.9863,-4.8958,-4.8072,-4.7247,-4.6402,-4.579,-4.579,-4.5685,-4.5594,-4.5594,-4.5594,-4.5594,-4.5594,-4.5594,-4.5594,-4.5594,-4.5594,0.0,-4.5776,-4.5803,-4.5522,-4.4785,-4.379,-4.2865,-4.2077,-4.1077,-4.0496,-4.0496,-4.0496,-4.0496,-4.0496,-3.9824,-3.9834,-4.0696,-4.0046,-3.889,-3.7274,0.0,0.0,0.0,0.0,0.0,0.0,0.0,0.0,0.0,0.0,0.0,0.0,0.0,0.0,0.0,0.0,0.0,0.0,0.0,0.0,0.0,-4.8453,-4.9488,-5.0122,-5.1739,-5.3087,-5.3703,-5.4914,-5.5607,-5.5395,-5.5568,-5.5703,-5.5703,-5.5703,-5.5844,-5.6175,-5.6191,-5.6324,-5.6582,-5.6601,-5.6601,-5.6601,-5.6601,-5.6601,-5.6582,-5.4824,-5.4004,-5.3945,-5.2187,-5.1406,-5.1406,-5.1406,-5.1307,-5.112,-5.1108,-5.0959,-5.0748,-5.0721,-5.0712,-5.0712,-5.0712,-5.0712,-5.0712,-5.0712,-5.0712,-5.0712,-5.0712,-5.0712,-5.0712,-5.0712,-5.078,-5.0908,-5.0908,-5.0908,-5.0831,-5.0598,-4.9343,-4.8099,-4.7848,-4.67,-4.5648,-4.5648,-4.5637,-4.5594,-4.5594,-4.5594,-4.5594,-4.5594,-4.5594,-4.5594,-4.5594,-4.5669,0.0,-4.5796,-4.5842,-4.5575,-4.4775,-4.379,-4.2865,-4.2077,-4.1077,-4.0496,-4.0496,-4.0496,-4.0496,-4.0496,-4.0398,-4.0524,-4.0919,-4.0078,-3.9414,0.0,0.0,0.0,0.0,0.0,0.0,0.0,0.0,0.0,0.0,0.0,0.0,0.0,0.0,0.0,0.0,0.0,0.0,0.0,0.0,0.0,0.0,-4.9496,-5.076,-5.1625,-5.2587,-5.353,-5.4395,-5.5203,-5.5703,-5.5703,-5.5703,-5.5703,-5.5703,-5.5703,-5.5844,-5.6175,-5.6191,-5.6324,-5.6582,-5.6601,-5.6601,-5.6601,-5.6601,-5.6426,-5.6035,-5.4668,-5.3808,-5.3418,-5.2031,-5.1406,-5.1406,-5.1406,-5.1299,-5.1089,-5.1089,-5.0945,0.0,0.0,0.0,0.0,0.0,-5.0712,-5.0712,-5.0712,-5.0712,-5.0712,-5.0712,-5.0712,-5.0712,-5.0712,-5.0748,-5.0822,-5.0822,-5.0822,-5.0648,-4.9914,-4.8926,-4.7913,-4.7221,-4.6297,-4.5594,-4.5594,-4.5594,-4.5594,-4.5594,-4.5594,0.0,-4.5594,-4.5594,-4.5594,-4.5594,-4.5715,-4.5809,-4.5836,-4.5923,-4.5826,-4.5411,-4.4117,-4.3082,-4.2636,-4.1299,0.0,0.0,0.0,-4.0391,-4.0127,-4.051,0.0,0.0,0.0,0.0,0.0,0.0,0.0,0.0,-3.9687,-4.0254,0.0,0.0,0.0,0.0,0.0,0.0,0.0,0.0,0.0,0.0,0.0,0.0,0.0,0.0,0.0,0.0,-5.0584,-5.2346,-5.3222,-5.3356,-5.3664,-5.453,-5.5261,-5.5703,-5.5703,-5.5703,-5.5703,-5.5703,-5.5703,-5.5844,-5.6175,0.0,0.0,0.0,0.0,-5.6601,-5.6601,-5.6504,-5.6074,-5.5293,-5.4316,-5.3457,-5.2676,-5.1797,-5.1406,-5.1406,-5.1386,-5.1275,-5.1108,-5.1074,-5.0932,-5.0712,-5.0712,-5.0712,-5.0712,-5.0712,-5.0712,-5.0712,-5.0712,0.0,0.0,-5.0712,-5.0712,-5.0712,-5.0712,-5.0712,-5.0693,-5.0721,-5.0712,-5.0327,-4.87,-4.8182,-4.7702,-4.6124,-4.5671,-4.5594,-4.5594,-4.5594,-4.5594,-4.5594,-4.5594,-4.5594,-4.5594,-4.5594,-4.5594,-4.5594,-4.5718,-4.5825,-4.5885,-4.6033,-4.6173,-4.6289,0.0,0.0,-4.3405,-4.1615,-4.0496,-4.0496,-4.0496,-4.0269,-3.975,-4.0428,-4.0502,-3.9864,-4.0598,-4.0914,-4.0781,-4.1011,-4.1573,-4.2395,-4.0874,-4.1445,0.0,0.0,0.0,0.0,0.0,0.0,0.0,0.0,0.0,0.0,0.0,0.0,0.0,0.0,0.0,-5.1047,-5.2214,-5.326,-5.4126,-5.4241,-5.4549,-5.5376,-5.5607,-5.5703,-5.5703,-5.5703,-5.5703,-5.5703,-5.5703,-5.5844,-5.6175,-5.6191,-5.6324,-5.6582,-5.6601,-5.6601,-5.6601,-5.5898,-5.5469,-5.5273,0.0,0.0,-5.2676,-5.1797,-5.1406,-5.1387,-5.1294,-5.1193,-5.1084,-5.0979,-5.0844,-5.0712,-5.0712,-5.0712,-5.0712,-5.0712,-5.0712,-5.0712,-5.0712,-5.0712,-5.0712,-5.0712,-5.0712,-5.0712,-5.0712,-5.0712,0.0,-5.0819,-5.0782,-5.049,-4.9552,-4.8709,-4.7855,-4.6874,-4.6105,-4.5594,-4.5594,-4.5594,-4.5594,-4.5594,-4.5594,-4.5594,-4.5594,-4.5594,-4.5594,-4.5594,-4.577,-4.5891,-4.5899,-4.6115,-4.6268,-4.6308,-4.4558,-4.3405,-4.3405,-4.1615,-4.0496,-4.0496,-4.0496,-4.0526,-4.0575,-4.0719,-4.0775,-4.0744,-4.0805,-4.0796,-4.0724,-4.1501,-4.2337,-4.3162,-4.2312,-4.2558,0.0,0.0,0.0,0.0,0.0,0.0,0.0,0.0,0.0,0.0,0.0,-4.8626,-4.9659,0.0,-5.1372,-5.218,-5.3176,-5.3991,-5.4434,-5.4857,-5.5241,-5.5645,-5.5703,-5.5703,-5.5703,-5.5703,-5.5703,-5.5703,-5.5703,-5.5844,-5.6175,-5.6191,-5.6324,-5.6582,-5.6601,-5.6601,-5.6601,-5.5742,-5.5078,-5.4629,-5.332,-5.2461,-5.2031,-5.1601,-5.1366,-5.1296,-5.1234,-5.1109,-5.0991,-5.0859,-5.0766,-5.0712,-5.0712,-5.0712,-5.0712,-5.0712,-5.0712,-5.0712,-5.0712,-5.073,-5.0789,-5.0789,-5.0844,-5.0908,-5.0908,-5.0859,-5.0814,-5.0879,-5.0488,-4.9865,-4.9065,-4.8176,-4.7298,-4.6451,-4.5913,-4.5594,-4.5594,-4.5594,-4.5594,-4.5594,-4.5594,-4.5594,-4.5594,-4.5594,-4.5594,-4.5594,-4.5776,-4.5899,-4.5899,-4.6122,-4.6133,-4.5703,-4.4302,-4.323,-4.2798,-4.1377,-4.0496,-4.0496,-4.0496,-4.0584,-4.0789,-4.0797,-4.0828,-4.0892,-4.0824,-4.0942,-4.1245,-4.1825,-4.2774,-4.4047,-4.3813,-4.418,0.0,0.0,0.0,0.0,0.0,0.0,0.0,0.0,-4.852,-4.9094,-4.9679,-5.0323,-5.1031,-5.1939,-5.2723,-5.3035,-5.4009,-5.4722,-5.4722,-5.528,-5.5703,-5.5703,-5.5703,-5.5703,-5.5703,-5.5703,-5.5703,-5.5703,-5.5717,-5.587,-5.6181,-5.6217,-5.6342,-5.6582,-5.6601,-5.6523,-5.6348,-5.5488,-5.4609,-5.373,-5.2851,-5.207,-5.1406,-5.1406,-5.1322,-5.1201,-5.1154,-5.1021,-5.0859,-5.073,-5.0712,-5.0712,-5.0712,-5.0712,-5.0693,-5.0721,-5.074,-5.0749,-5.0775,-5.0851,-5.0945,-5.0945,-5.1016,-5.1108,-5.1078,-5.0985,-5.0862,-5.067,-5.003,-4.9163,-4.8125,-4.7394,-4.6682,-4.5806,-4.5594,-4.5594,-4.5594,-4.5594,-4.5594,-4.5594,-4.5594,-4.5594,-4.5594,-4.5629,-4.5643,-4.5643,-4.5795,-4.5907,-4.5948,-4.5991,-4.5762,-4.5057,-4.3885,-4.2782,-4.1873,-4.101,-4.0496,-4.0496,-4.0496,-4.0584,-4.0789,-4.0797,-4.0876,-4.1058,-4.105,-4.1371,-4.2047,-4.2415,-4.3339,-4.4709,-4.5082,-4.5625,-4.4696,-4.4932,-4.5486,-4.7375,-4.745,-4.7621,0.0,0.0,-4.9527,-5.048,-5.0363,-5.0576,-5.2107,-5.252,-5.3092,-5.4586,-5.5243,-5.5568,-5.5568,-5.5645,-5.5703,-5.5703,-5.5703,-5.5703,-5.5703,-5.5703,-5.5703,-5.5703,-5.5807,-5.5966,-5.6186,-5.6313,-5.6452,-5.6601,-5.6601,-5.623,-5.5449,-5.457,-5.3711,-5.2832,-5.1953,-5.1484,-5.1406,-5.1406,-5.1322,-5.1196,-5.1003,-5.0848,-5.0731,-5.0702,-5.0712,-5.0712,-5.0712,-5.0712,-5.0721,-5.0827,-5.0879,-5.0882,-5.1016,-5.1078,-5.1088,-5.1088,-5.1098,-5.1088,-5.0972,-5.0903,-5.0716,-4.9832,-4.9499,-4.9029,-4.7451,-4.6962,-4.6682,-4.5806,-4.5594,-4.5594,-4.5594,-4.5594,-4.5594,-4.5594,-4.5594,-4.5594,-4.5594,-4.5692,-4.5769,-4.5769,-4.5845,-4.5936,-4.6053,-4.5537,-4.5096,-4.4937,-4.3308,-4.1816,-4.0766,-4.0558,-4.0496,-4.0496,-4.0496,-4.0584,-4.0789,-4.0797,-4.1153,-4.1949,-4.196,-4.2277,-4.2951,-4.3934,-4.4506,-4.4729,-4.5707,-4.6211,-4.4881,-4.581,-4.6691,-4.7252,-4.8259,-4.9268,-4.9896,-5.0085,-5.0279,-5.0707,-5.0981,-5.1524,-5.2721,-5.3357,-5.4097,0.0,-5.5588,-5.5703,-5.5703,-5.5703,-5.5703,-5.5703,-5.5769,-5.5798,-5.5705,-5.5703,-5.5738,-5.5807,-5.5866,-5.6019,-5.6309,-5.6371,-5.6224,-5.5859,-5.584,-5.543,-5.4551,-5.3672,-5.3066,-5.2695,-5.1816,-5.1406,-5.1406,-5.1406,-5.1312,-5.1137,-5.0889,-5.0748,-5.0712,-5.0712,-5.0712,-5.0712,-5.0712,-5.0712,-5.0721,-5.0851,-5.0908,-5.0918,-5.1042,-5.1139,-5.1151,-5.1151,-5.1151,-5.1144,-5.1081,-5.0994,-5.0719,-4.9784,-4.908,-4.8375,-4.7201,-4.6528,-4.6047,-4.5691,-4.5594,-4.5594,-4.5594,-4.5594,-4.5594,-4.5594,-4.5594,-4.5594,-4.5594,-4.5715,-4.5815,-4.5845,-4.5944,-4.5841,-4.5401,-4.5522,-4.5195,-4.4035,-4.233,-4.1064,-4.0539,-4.0496,-4.0496,-4.0496,-4.0561,-4.0665,-4.0793,-4.087,-4.105,-4.1346,-4.1844,-4.2433,-4.3104,-4.4187,-4.4934,-4.5401,-4.6019,-4.6308,-4.5173,-4.6309,-4.7302,-4.7521,-4.8971,-5.0192,-4.9529,-4.9894,-5.0346,-5.0346,-5.0798,-5.1538,-5.2645,-5.3549,-5.4414,-5.5241,-5.5549,-5.5716,-5.5749,-5.5759,-5.5789,-5.5817,-5.5915,-5.5947,-5.5844,-5.5789,-5.5798,-5.5888,-5.5951,-5.6102,-5.6383,-5.6448,-5.61,-5.5312,-5.5293,-5.4765,-5.3652,-5.3027,-5.2578,-5.2324,-5.1699,-5.1406,-5.1406,-5.1341,-5.1233,-5.1098,-5.0822,-5.0712,-5.0712,-5.0712,-5.0712,-5.0712,-5.0712,-5.0712,-5.0764,-5.0916,-5.0966,-5.0979,-5.1139,-5.1208,-5.1265,-5.1265,-5.1236,-5.1199,-5.118,-5.104,-5.0707,-4.9796,-4.8855,-4.7913,-4.7096,-4.624,-4.5594,-4.5594,-4.5594,-4.5594,-4.5594,-4.5594,-4.5594,-4.5594,-4.5594,-4.5594,-4.5594,-4.572,-4.5847,-4.5885,-4.5847,-4.5563,-4.4937,-4.5148,-4.4627,-4.2714,-4.1609,-4.0873,-4.0523,-4.0496,-4.0496,-4.0496,-4.063,-4.0726,-4.0793,-4.0922,-4.1171,-4.1565,-4.2171,-4.292,-4.3856,-4.463,-4.5319,-4.5907,-4.6174,-4.6308,-4.5955,-4.629,-4.6825,-4.8817,-4.9375,-4.9433,-4.9413,-4.9413,-4.9433,-4.9433,-4.9452,-4.9971,-5.1635,-5.2654,-5.353,-5.4395,-5.5184,-5.5739,-5.5883,-5.5888,-5.5966,-5.6164,-5.6186,-5.6186,0.0,-5.601,-5.5888,-5.5896,-5.6078,-5.6246,-5.6386,-5.6515,-5.6191,-5.5332,-5.5293,-5.4473,-5.2754,-5.2715,-5.2285,-5.1445,-5.1406,-5.1406,-5.1386,-5.12,-5.1118,-5.1098,-5.0822,-5.0712,-5.0712,-5.0712,-5.0712,-5.0712,-5.0712,-5.0773,-5.0903,-5.1036,-5.1084,-5.1122,-5.1315,-5.1386,-5.1387,-5.1387,-5.1318,-5.1191,-5.1116,-5.1016,-5.0697,-4.9689,-4.8788,-4.7913,-4.7096,-4.624,-4.5594,-4.5594,-4.5594,-4.5594,-4.5594,-4.5594,-4.5594,-4.5594,-4.5594,-4.5594,-4.5594,-4.5764,-4.5894,-4.5899,-4.5416,-4.5019,-4.5,-4.4104,-4.2786,-4.0967,-4.1379,-4.142,-4.0573,-4.0496,-4.0496,-4.0496,-4.063,-4.0726,-4.0793,-4.0922,-4.1793,-4.3489,-4.3408,-4.4146,-4.5712,-4.5818,-4.5879,-4.5907,-4.6174,-4.6308,-4.5924,-4.6721,-4.7379,-4.8318,-4.8971,-4.924,-4.8663,-4.8548,-4.8548,-4.8548,-4.899,-4.974,-5.0894,-5.1779,-5.2818,-5.426,-5.4805,-5.5241,-5.5811,-5.647,-5.6724,-5.6264,-5.6795,0.0,0.0,0.0,0.0,-5.6188,-5.5759,-5.5781,-5.6496,-5.6034,-5.5332,-5.4453,-5.3887,-5.3027,-5.1855,-5.1836,-5.1699,-5.1406,-5.1406,-5.1406,-5.1386,-5.1193,-5.1089,-5.1098,-5.0822,-5.0712,-5.0712,-5.0712,-5.0712,-5.0712,-5.0712,-5.0782,-5.0911,-5.1042,-5.1124,-5.1199,-5.1343,-5.1406,-5.1406,-5.1406,-5.1281,-5.1128,-5.1103,-5.0933,-5.0583,-4.9653,-4.8779,-4.7913,-4.7096,-4.624,-4.5594,-4.5594,-4.5594,-4.5594,-4.5594,-4.5594,-4.5594,-4.5594,-4.5594,-4.5594,-4.5594,-4.577,-4.5967,-4.6144,-4.5504,-4.4956,-4.4816,-4.3474,-4.267,-4.3045,-4.1798,-4.1046,-4.1335,-4.0916,-4.0636,-4.0636,-4.0809,-4.0919,-4.0925,-4.1055,-4.1367,-4.1874,-4.2961,-4.3762,-4.42,-4.5448,-4.6036,-4.6039,-4.6222,-4.6308,-4.6297,-4.7256,-4.7986,-4.8818,-4.9221,-4.9163,-4.8298,-4.7875,-4.7682,-4.7682,-4.8125,-4.8856,-5.001,-5.0914,-5.2029,-5.376,-5.4406,-5.511,-5.6282,-5.6784,-5.6983,-5.6822,-5.7104,-5.7055,0.0,0.0,0.0,-5.633,-5.5881,-5.587,-5.6562,-5.5762,-5.4902,-5.4023,-5.3144,-5.2285,-5.1406,-5.1406,-5.1406,-5.1406,-5.1406,-5.1406,-5.1387,-5.1224,-5.1137,-5.1124,-5.0874,-5.0764,-5.0775,-5.0731,-5.0712,-5.0712,-5.0712,-5.0814,-5.0979,-5.1078,-5.117,-5.1273,-5.1366,-5.1406,-5.1406,-5.1406,-5.1269,-5.1089,-5.1089,-5.0911,-5.0577,-5.001,-4.9009,-4.799,-4.7471,-4.6493,-4.5657,-4.5612,-4.5635,-4.5648,-4.5612,-4.5594,-4.5594,-4.5594,-4.5594,-4.562,-4.5657,-4.5834,-4.5944,-4.5858,-4.5625,-4.5305,-4.4826,-4.3744,-4.3272,-4.3911,-4.2707,-4.1859,-4.1899,-4.1448,-4.1031,-4.0756,-4.0893,-4.0996,-4.0996,-4.1128,-4.1287,-4.1508,-4.2875,-4.3704,-4.389,-4.5387,-4.6108,-4.6091,-4.6246,-4.6308,-4.7083,-4.7853,-4.8509,-5.0212,-4.9971,-4.9106,-4.824,-4.7413,-4.6827,-4.6827,-4.6865,-4.7394,0.0,0.0,-5.1174,-5.2877,-5.3988,-5.5285,-5.7145,-5.6909,-5.6905,0.0,0.0,0.0,0.0,0.0,0.0,-5.636,0.0,-5.6421,-5.6582,-5.5723,-5.4844,-5.4023,-5.3105,-5.2246,-5.1406,-5.1406,-5.1406,-5.1406,-5.1406,-5.1406,-5.1406,-5.1267,-5.1201,-5.1171,-5.0983,-5.0901,-5.0879,-5.0748,-5.0712,-5.0712,-5.0712,-5.0867,-5.1084,-5.1108,-5.1222,-5.1386,-5.1406,-5.1406,-5.1406,-5.1406,-5.1269,-5.1089,-5.1089,-5.0911,-5.0712,-5.0712,-4.9433,-4.8105,-4.8115,-4.6947,-4.5775,-4.5643,-4.5708,-4.5749,-4.5627,-4.5594,-4.5594,-4.5594,-4.5594,-4.5651,-4.5783,-4.5959,-4.587,-4.5175,-4.5762,-4.5935,-4.4969,-4.4761,-4.4385,-4.3561,-4.395,-4.3721,-4.2345,-4.214,-4.175,-4.0937,-4.1005,-4.1058,-4.1019,-4.1128,-4.1582,-4.2383,-4.3184,-4.4001,-4.4803,-4.5683,-4.6113,-4.6115,-4.6246,-4.6308,-4.7422,-4.8039,-4.8355,-4.9452,-4.9086,-4.8221,-4.7394,-4.6547,-4.5932,-4.5932,-4.6451,-4.7019,0.0,0.0,0.0,-5.2092,-5.3223,0.0,-5.7267,-5.8119,0.0,-5.8847,0.0,-5.8281,-5.7637,-5.6777,0.0,0.0,-5.5954,-5.5877,-5.6562,-5.5156,-5.4238,-5.4004,-5.2519,-5.1621,-5.1406,-5.1406,-5.1406,-5.1406,-5.1406,-5.1406,-5.1406,-5.1267,-5.1171,-5.1111,-5.0972,-5.0844,-5.0739,-5.0712,-5.0712,-5.0712,-5.0712,-5.0797,-5.0953,-5.1053,-5.1163,-5.1268,-5.1366,-5.1406,-5.1406,-5.1406,-5.1269,-5.1089,-5.1089,-5.0911,-5.0712,-5.0712,-4.9433,-4.8123,-4.8226,-4.7033,-4.579,-4.5761,-4.5789,-4.5749,-4.5627,-4.5594,-4.5594,-4.5594,-4.5594,-4.5661,-4.5831,-4.5923,-4.5955,-4.5975,-4.6152,-4.574,-4.4144,-4.4478,-4.4741,-4.4409,-4.3923,-4.3744,-4.4016,-4.352,-4.283,-4.1969,-4.1996,-4.1775,-4.1169,-4.1171,-4.1582,-4.2383,-4.3241,-4.4098,-4.4958,-4.5817,-4.6247,-4.6247,-4.6289,-4.6308,-4.7655,-4.8375,-4.8875,-4.974,-4.9029,-4.799,-4.7528,-4.6471,-4.5594,-4.5594,-4.599,-4.6451,-4.6827,-4.7971,-4.9419,0.0,0.0,0.0,-5.732,-5.7869,-5.8232,0.0,-5.8373,0.0,-5.7273,-5.6805,-5.6537,0.0,-5.6152,-5.5918,-5.6015,-5.4746,-5.3828,-5.3437,-5.2109,-5.1406,-5.1406,-5.1406,-5.1406,-5.1406,-5.1406,-5.1406,-5.1406,-5.1321,-5.1247,-5.1145,0.0,-5.0903,-5.0782,-5.0712,-5.0712,-5.0702,-5.0747,-5.0827,-5.0925,-5.1069,-5.1164,-5.121,-5.1345,-5.1406,-5.1406,-5.1406,-5.1269,-5.1089,-5.1089,-5.0911,-5.0712,-5.0712,-4.9488,-4.8213,-4.829,-4.7081,-4.583,-4.5816,-4.5803,-4.5749,-4.5627,-4.5594,-4.5594,-4.5594,-4.5651,-4.5713,-4.5847,-4.5927,-4.6039,-4.6198,-4.6268,-4.578,-4.4383,-4.4914,-4.5269,-4.4868,-4.4634,-4.4584,-4.4807,-4.4409,-4.3622,-4.2428,-4.2381,-4.2031,-4.123,-4.1191,-4.1582,-4.2383,-4.3262,-4.4121,-4.5,-4.5879,-4.6308,-4.6308,-4.6308,-4.6308,-4.7789,-4.874,-4.9606,-5.0481,-4.9499,-4.8257,-4.8134,-4.6901,-4.5772,-4.5642,0.0,-4.5825,-4.6586,-4.749,-4.8677,-5.0451,0.0,-5.4386,-5.7158,-5.6892,-5.7016,-5.8697,-5.7403,-5.6422,-5.6559,-5.6467,-5.6417,-5.6426,-5.6426,-5.6094,-5.5332,-5.4355,-5.3437,-5.2558,-5.1797,-5.1406,-5.1406,-5.1406,-5.1406,-5.1406,-5.1406,-5.1406,-5.1406,-5.1406,-5.1322,-5.1199,-5.1124,-5.1008,-5.0894,-5.0757,-5.0712,-5.0712,-5.0851,-5.0908,-5.0919,-5.1124,-5.1204,-5.121,-5.1345,-5.1406,-5.1406,-5.1406,-5.1269,-5.1089,-5.1089,-5.0911,-5.0712,-5.0712,-4.9536,-4.8299,-4.8327,-4.7126,-4.5891,-4.5826,-4.5816,-4.5749,-4.5627,-4.5594,-4.5594,-4.5594,-4.5685,-4.5769,-4.5796,-4.5946,-4.608,-4.6108,-4.6125,-4.5859,-4.5098,-4.5653,-4.5841,-4.5078,-4.5577,-4.573,-4.5214,-4.5065,-4.4357,-4.2832,-4.2637,-4.2207,-4.1387,-4.1367,-4.1738,-4.2558,-4.3437,-4.4297,-4.5176,-4.5937,-4.6308,-4.6308,-4.6308,-4.6289,-4.7873,-4.874,-4.9606,-5.0481,-5.001,-4.9115,-4.8286,-4.7452,0.0,0.0,-4.5594,-4.5652,-4.5806,-4.7067,-4.8505,-4.9779,-5.1425,-5.3514,-5.6381,-5.6568,-5.7016,0.0,-5.7895,-5.7264,-5.7459,-5.6821,0.0,0.0,-5.5527,-5.5469,-5.5312,-5.3789,-5.2539,-5.1641,-5.1484,-5.1406,-5.1406,-5.1406,-5.1406,-5.1406,-5.1406,-5.1406,-5.1406,-5.1406,-5.1322,-5.1199,-5.1124,0.0,-5.0894,-5.0757,-5.0712,-5.0712,-5.0851,-5.0908,-5.0919,-5.1124,-5.1204,-5.121,-5.1345,-5.1406,-5.1406,-5.1406,-5.1269,-5.1089,-5.1089,-5.0911,-5.0712,-5.0712,-4.9536,-4.8327,-4.8438,-4.7194,-4.5894,-4.5896,-4.5842,-4.5749,-4.5627,-4.5594,-4.5594,-4.5594,-4.5629,-4.5673,-4.5776,-4.5871,-4.5978,-4.6082,-4.5598,-4.5176,-4.5019,-4.5742,-4.5937,-4.5098,-4.574,-4.6189,-4.6074,-4.6054,-4.5605,-4.4609,-4.3867,-4.3086,-4.2226,-4.2187,-4.2598,-4.3457,-4.4336,-4.5195,-4.6074,-4.623,-4.6308,-4.6308,-4.6308,-4.6246,-4.811,-4.912,-5.0182,-5.0675,-5.0202,-4.9366,-4.8521,0.0,0.0,0.0,-4.5651,-4.5594,-4.5594,-4.6971,0.0,-4.9012,-5.0914,-5.3151,-5.5584,-5.5758,-5.6242,-5.7927,-5.7172,-5.6626,0.0,-5.6125,-5.5538,-5.5312,-5.4453,-5.3945,-5.3945,-5.2715,-5.1836,-5.1406,-5.1406,-5.1406,-5.1406,-5.1406,-5.1406,-5.1406,-5.1406,-5.1406,-5.1406,-5.1406,-5.1322,-5.1199,-5.1124,-5.1008,-5.0894,-5.0757,-5.0712,-5.0731,-5.0925,-5.0953,-5.0926,-5.1191,-5.1265,-5.121,-5.1345,-5.1406,-5.1406,-5.1406,-5.1269,-5.1089,-5.1089,-5.0911,-5.0712,-5.0712,-4.9536,-4.8313,-4.8373,-4.7123,-4.5859,-4.5859,-4.577,-4.568,-4.562,-4.5594,-4.5594,-4.5594,-4.5594,-4.5629,-4.5677,-4.579,-4.5886,-4.5978,-4.5742,-4.5598,-4.5664,-4.6035,-4.5976,-4.5098,-4.5781,-4.6308,-4.6308,-4.6308,-4.5937,-4.5058,-4.4609,-4.3789,-4.2441,-4.2832,-4.3262,-4.3691,-4.4551,-4.543,-4.6308,-4.6308,-4.6308,-4.6308,-4.6308,-4.6225,-4.832,-4.9513,-5.0797,-5.0879,-5.0429,-4.9695,-4.8725,-4.793,0.0,-4.6022,-4.5685,-4.5594,-4.5594,-4.6971,-4.8186,0.0,-5.0481,-5.268,-5.449,-5.4674,-5.5174,0.0,-5.6198,0.0,-5.5911,-5.5337,0.0,-5.4745,-5.3301,-5.2422,-5.2422,-5.1777,-5.1406,-5.1406,-5.1406,-5.1406,-5.1406,-5.1406,-5.1406,-5.1406,-5.1406,-5.1406,-5.1406,-5.1406,-5.1344,-5.1238,-5.116,-5.1058,-5.0932,-5.0808,-5.074,-5.0712,-5.0959,-5.1016,-5.0985,-5.1254,-5.1318,-5.1265,-5.1366,-5.1406,-5.1406,-5.1406,-5.1269,-5.1089,-5.1089,-5.0911,-5.0654,-5.0481,-4.9401,-4.8254,-4.806,-4.6912,-4.579,-4.5749,-4.568,-4.5594,-4.5594,-4.5594,-4.5594,-4.5594,-4.5594,-4.5594,-4.5594,-4.5713,-4.5836,-4.5885,-4.5883,-4.5961,-4.6269,-4.6133,-4.582,-4.5332,-4.5898,-4.6308,-4.6308,-4.6308,-4.6016,-4.5312,-4.5098,-4.4394,-4.3008,-4.3613,-4.3984,-4.3984,-4.4824,-4.5625,-4.6308,-4.6308,-4.6308,-4.6308,-4.6308,-4.6203,-4.8367,-4.9653,-5.1045,-5.0925,-5.0982,-5.0602,-4.8883,0.0,-4.7874,-4.6164,-4.5685,-4.5594,-4.5594,-4.6971,0.0,0.0,0.0,-5.1624,-5.2772,-5.3381,-5.4074,-5.5019,0.0,0.0,-5.508,-5.5061,-5.4496,-5.3047,-5.2051,-5.1523,-5.1523,-5.1445,-5.1406,-5.1406,-5.1406,-5.1406,-5.1406,-5.1406,-5.1406,-5.1406,-5.1406,-5.1406,-5.1406,-5.1406,-5.1387,-5.1366,-5.1258,-5.1144,0.0,-5.0939,-5.0805,-5.0721,-5.0848,-5.0985,-5.1094,-5.118,-5.1294,-5.1386,-5.1406,-5.1406,-5.1406,-5.1406,-5.1269,-5.1089,-5.1089,-5.0911,-5.0539,-4.974,-4.8938,-4.8118,-4.7332,-4.6467,-4.5775,-4.5651,-4.5612,-4.5594,-4.5594,-4.5594,-4.5594,-4.5594,-4.5594,-4.5594,-4.5594,-4.5757,-4.5885,-4.5899,-4.5432,-4.539,-4.6191,-4.5605,-4.5391,-4.6094,-4.625,-4.6308,-4.6308,-4.6308,-4.6269,-4.6191,-4.5449,-4.4922,-4.4766,-4.4844,-4.4883,-4.4883,-4.5742,-4.6211,-4.6308,-4.6308,-4.6308,-4.6308,-4.6308,-4.6152,-4.8577,-4.9785,-5.1099,-5.1087,-5.1138,-5.0913,-4.9774,0.0,-4.8236,-4.6912,-4.6151,-4.5866,-4.6305,-4.7317,-4.8359,0.0,0.0,0.0,-5.2557,-5.2832,-5.3463,-5.4851,-5.5174,0.0,0.0,0.0,-5.3641,-5.2031,-5.1601,-5.1406,-5.1406,-5.1406,-5.1406,-5.1406,-5.1406,-5.1406,-5.1406,-5.1406,-5.1406,-5.1406,-5.1406,-5.1406,-5.1406,-5.1406,-5.1406,-5.1387,-5.1265,-5.1158,0.0,-5.0966,-5.0822,-5.0712,-5.0939,-5.1042,-5.1117,-5.1277,-5.1345,-5.1406,-5.1406,-5.1406,-5.1406,-5.1406,-5.1289,-5.1144,-5.1113,-5.0966,-5.0623,-4.9672,-4.8804,-4.7987,-4.7158,-4.6363,-4.5783,-4.5725,-4.573,-4.573,-4.573,-4.573,-4.5692,-4.562,-4.5665,-4.5692,-4.562,-4.5742,-4.585,-4.589,-4.5757,-4.5811,-4.623,-4.5996,-4.5918,-4.6269,-4.6308,-4.6308,-4.6308,-4.6308,-4.6308,-4.6308,-4.5976,-4.5547,-4.5019,-4.5508,-4.5547,-4.5019,-4.5859,-4.6308,-4.6308,-4.6308,-4.6308,-4.6308,-4.6308,-4.6168,-4.8647,-4.9733,-5.0888,-5.1138,-5.1236,-5.1078,0.0,-4.9618,-4.8808,-4.7782,-4.7023,-4.6689,-4.716,-4.7948,-4.8825,0.0,0.0,-5.1401,-5.2206,-5.2422,-5.2969,0.0,0.0,-5.45,0.0,-5.3574,-5.2621,-5.1484,-5.1406,-5.1406,-5.1406,-5.1406,-5.1406,-5.1406,-5.1406,-5.1406,-5.1406,-5.1406,-5.1406,-5.1406,-5.1406,-5.1406,-5.1406,-5.1406,-5.1406,-5.1387,-5.1296,-5.1199,0.0,-5.1011,-5.0891,-5.0782,-5.1016,-5.1113,-5.1145,-5.1288,-5.1366,-5.1367,-5.1133,-5.1055,-5.1055,-5.1055,-5.0947,-5.0837,-5.0746,-5.0627,-5.031,-4.9295,-4.8221,-4.7239,-4.6703,-4.6201,-4.5796,-4.582,-4.5832,-4.582,-4.579,-4.5803,-4.5768,-4.5637,-4.568,-4.5711,-4.5665,-4.5743,-4.5864,-4.5952,-4.6077,-4.6199,-4.6289,-4.6308,-4.6308,-4.6308,-4.6308,-4.6308,-4.6308,-4.6308,-4.6308,-4.6308,-4.6308,-4.6016,-4.541,-4.5976,-4.6016,-4.5391,-4.5996,-4.6308,-4.6308,-4.6308,-4.6308,-4.6308,-4.6308,-4.6175,-4.8502,-4.944,-5.037,-5.1021,-5.1296,-5.1191,-5.0371,-5.0087,-4.9706,-4.8693,-4.8363,-4.8244,-4.8112,-4.8913,-4.964,-4.9781,0.0,0.0,-5.1386,-5.2031,-5.2517,0.0,0.0,-5.3476,-5.2615,-5.1865,-5.1426,-5.1406,-5.1406,0.0,-5.1406,-5.1406,-5.1406,-5.1406,-5.1406,-5.1406,-5.1406,-5.1406,-5.1406,-5.1406,-5.1406,-5.1406,-5.1406,-5.1406,-5.1406,-5.1406,-5.1406,-5.1279,0.0,-5.1171,-5.1072,-5.0903,-5.1056,-5.1145,-5.1201,-5.1204,-5.1294,-5.1289,-5.0488,-5.0215,-5.0215,-5.0215,-5.0127,-4.9998,-4.9854,-4.972,-4.94,-4.8409,-4.6913,-4.5646,-4.5787,-4.5815,-4.5821,-4.5891,-4.5899,-4.5886,-4.5815,-4.5803,-4.5768,-4.5637,-4.5594,-4.5643,-4.5789,-4.585,-4.5936,-4.608,-4.6203,-4.6308,-4.6308,-4.6308,-4.6308,-4.6308,-4.6308,-4.6308,-4.6308,-4.6308,-4.6308,-4.6308,-4.6308,-4.6308,-4.6289,-4.6308,-4.6308,-4.6289,-4.6308,-4.6308,-4.6308,-4.6308,-4.6308,-4.6308,-4.6308,-4.6225,-4.7887,-4.9041,-5.0254,-5.0465,-5.0956,-5.1328,-5.1074,-5.0565,-5.0028,-4.9608,-4.9026,-4.8716,-4.919,-4.9512,-4.9956,-5.0651,-5.1015,0.0,0.0,0.0,0.0,-5.263,-5.2884,-5.2943,0.0,0.0,-5.1406,-5.1406,-5.1406,-5.1406,-5.1406,-5.1406,-5.1406,-5.1406,-5.1406,-5.1406,-5.1406,-5.1406,-5.1406,-5.1406,-5.1406,-5.1406,-5.1406,-5.1406,-5.1406,-5.1406,-5.1406,-5.1316,-5.1167,-5.1194,-5.1136,-5.1042,-5.1129,-5.1183,-5.1208,-5.1297,-5.1366,-5.1367,-5.1113,-5.0664,-5.0195,-5.0195,-4.9764,-4.9322,-4.9691,-4.9709,-4.9284,-4.7715,-4.6471,-4.5627,-4.5775,-4.5825,-4.5891,-4.6018,-4.6039,-4.603,-4.6004,-4.6017,-4.5946,-4.5776,-4.5777,-4.5794,-4.579,-4.5855,-4.5955,-4.608,-4.6203,-4.6308,-4.6308,-4.6308,-4.6308,-4.6308,-4.6308,-4.6308,-4.6308,-4.6308,-4.6308,-4.6308,-4.6308,-4.6308,-4.6308,-4.6308,-4.6308,-4.6308,-4.6308,-4.6308,-4.6308,-4.6308,-4.6248,-4.6152,-4.6152,-4.6144,-4.791,-4.8887,-4.9863,-5.0488,-5.1035,-5.1406,-5.1406,-5.1016,-5.0604,-5.0477,-5.0015,-4.9778,-5.0207,-5.0302,-5.0527,-5.1099,-5.124,-5.1297,0.0,0.0,0.0,-5.2695,0.0,0.0,0.0,-5.1719,-5.1406,-5.1406,-5.1406,-5.1406,-5.1406,-5.1406,-5.1406,-5.1406,-5.1406,-5.1406,-5.1406,-5.1406,-5.1406,-5.1406,-5.1406,-5.1406,-5.1406,-5.1406,-5.1406,-5.1406,-5.1406,-5.1321,0.0,-5.1244,-5.1221,-5.1152,-5.1232,-5.1271,-5.1253,-5.1034,-5.1133,-5.1308,-5.0683,-5.0137,-4.9707,-4.9707,-4.9081,-4.838,-4.8662,-4.8871,-4.8662,-4.69,-4.6009,-4.5643,-4.5796,-4.5862,-4.5959,-4.6122,-4.6174,-4.6152,-4.6113,-4.6108,-4.6047,-4.5846,-4.5825,-4.5855,-4.5842,-4.5867,-4.5951,-4.6147,-4.6247,-4.6308,-4.6308,-4.6308,-4.6308,-4.6308,-4.6308,-4.6308,-4.6308,-4.6308,-4.6308,-4.6308,-4.6308,-4.6308,-4.6308,-4.6308,-4.6308,-4.6308,-4.6308,-4.6308,-4.6308,-4.6308,-4.6267,-4.6174,-4.6119,-4.614,0.0,-4.8848,-4.9258,-5.0762,-5.1211,-5.1308,-5.1308,-5.1308,0.0,-5.124,-5.1208,-5.121,-5.1139,-5.1161,-5.1208,-5.1208,-5.132,-5.1406,0.0,-5.2109,0.0,0.0,-5.1933,0.0,-5.1406,-5.1406,-5.1406,-5.1406,-5.1406,-5.1406,-5.1406,-5.1406,-5.1406,-5.1406,-5.1406,-5.1406,-5.1406,-5.1406,-5.1406,-5.1406,-5.1406,-5.1406,-5.1406,-5.1406,-5.1406,0.0,-5.1406,-5.1322,-5.1213,-5.1344,-5.1322,-5.1234,-5.1344,-5.1367,-5.123,-5.0547,-5.0683,-5.1016,-4.9512,-4.8906,-4.8789,-4.8711,-4.8115,-4.7335,-4.7026,-4.7395,-4.7604,-4.6037,-4.5603,-4.5653,-4.5857,-4.5907,-4.5981,-4.6246,-4.6308,-4.6268,-4.6144,-4.6115,-4.6059,-4.5856,-4.5809,-4.5826,-4.5881,-4.5899,-4.5988,-4.6247,-4.6289,-4.6308,-4.6308,-4.6308,-4.6308,-4.6308,-4.6308,-4.6308,-4.6308,-4.6308,-4.6308,-4.6308,-4.6308,-4.6308,-4.6308,-4.6308,-4.6308,-4.6308,-4.6308,-4.6308,-4.6308,-4.6308,-4.6308,-4.6289,-4.6173,-4.6173,-4.7597,0.0,-4.8828,-4.8555,-4.9492,-5.0488,0.0,-5.0488,-5.0644,-5.1228,-5.1345,-5.1344,-5.1338,-5.1342,-5.1345,-5.1345,-5.1386,-5.1406,-5.1406,-5.1582,0.0,-5.2617,-5.1933,-5.1406,-5.1406,-5.1406,-5.1406,-5.1406,-5.1406,-5.1406,-5.1406,-5.1406,-5.1406,-5.1406,-5.1406,-5.1406,-5.1406,-5.1406,-5.1406,-5.1406,-5.1406,-5.1406,-5.1406,-5.1406,-5.1406,-5.1406,-5.1406,-5.1386,-5.1365,-5.1386,-5.1386,-5.1365,-5.1386,-5.1016,-5.0527,-5.0957,-5.043,-4.9531,-4.9805,-4.894,-4.7632,-4.6967,-4.7055,-4.724,-4.6405,-4.6234,-4.624,-4.5734,-4.5673,-4.579,-4.5862,-4.5981,-4.6087,-4.6268,-4.6308,-4.6289,-4.6268,-4.6248,-4.6201,-4.6059,-4.5959,-4.5886,-4.5894,-4.5899,-4.5967,-4.6119,-4.6226,-4.6308,-4.6308,-4.6308,-4.6308,-4.6308,-4.6308,-4.6308,-4.6308,-4.6308,-4.6308,-4.6308,-4.6308,-4.6308,-4.6308,-4.6308,-4.6308,-4.6308,-4.6308,-4.6308,-4.6308,-4.6308,-4.6247,-4.6147,-4.6223,-4.615,-4.6834,-4.793,-4.8887,-4.8808,-4.9492,-5.0195,-5.0195,-5.0195,-5.0312,-5.0762,-5.0859,-5.0957,-5.1328,-5.1094,-5.0976,-5.1348,-5.1406,0.0,0.0,0.0,-5.1719,-5.2598,-5.1933,-5.1406,0.0,-5.1406,-5.1406,-5.1406,-5.1406,-5.1406,-5.1406,-5.1406,-5.1406,-5.1406,-5.1406,-5.1406,-5.1406,-5.1406,-5.1406,-5.1406,-5.1406,-5.1406,-5.1387,-5.1016,-5.0859,-5.0859,-5.0859,-5.0625,-5.0273,-5.0683,-5.0605,-5.0254,-5.0254,-5.0234,-5.0156,-4.9785,-4.959,-4.9453,-4.9121,-4.8337,-4.7348,-4.639,-4.6456,-4.6772,-4.6103,-4.5872,-4.5807,-4.5648,-4.5692,-4.5821,-4.5886,-4.5995,-4.6122,-4.6268,-4.6308,-4.6308,-4.6308,-4.6308,-4.6268,-4.6138,-4.5992,-4.5899,-4.5899,-4.5899,-4.5955,-4.608,-4.6203,-4.6308,-4.6308,-4.6308,-4.6308,-4.6308,-4.6308,-4.6308,-4.6308,-4.6308,-4.6308,-4.6308,-4.6308,-4.6308,-4.6308,-4.6308,-4.6308,-4.6308,-4.6308,-4.6308,-4.6308,-4.6308,-4.6268,-4.6199,-4.6268,-4.6224,-4.6424,-4.7676,-4.9043,-4.9648,-5.0,-5.0195,-5.0195,0.0,0.0,0.0,0.0,0.0,0.0,-5.084,0.0,0.0,0.0,0.0,-5.2402,-5.1875,-5.168,-5.2402,-5.1855,0.0,-5.1406,-5.1406,-5.1406,-5.1406,-5.1406,-5.1406,-5.1406,-5.1406,-5.1406,-5.1406,-5.1406,-5.1406,-5.1406,-5.1406,-5.1406,-5.1406,-5.1406,-5.1406,-5.1367,-5.0566,-5.0195,-5.0195,0.0,0.0,-4.8965,-4.9707,-4.957,-4.8906,-4.8906,-4.9277,-4.9648,-4.8281,-4.8555,-4.9394,-4.7869,-4.7362,-4.7245,-4.6351,-4.6174,-4.6248,-4.6018,-4.5924,-4.5881,-4.5706,-4.572,-4.5832,-4.5891,-4.6005,-4.615,-4.6269,-4.6308,-4.6308,-4.6308,-4.6308,-4.6268,-4.6149,-4.603,-4.5924,-4.5924,-4.5924,-4.5974,-4.6082,-4.6203,-4.6308,-4.6308,-4.6308,-4.6308,-4.6308,-4.6308,-4.6308,-4.6308,-4.6308,-4.6308,-4.6308,-4.6308,-4.6308,-4.6308,-4.6308,-4.6308,-4.6308,-4.6308,-4.6308,-4.6308,-4.6308,-4.6308,-4.6308,-4.6308,-4.6289,-4.7124,-4.8125,-4.875,-4.8144,-4.9101,-5.0195,-5.0195,-5.0195,0.0,0.0,0.0,0.0,0.0,-5.1308,-5.1269,0.0,0.0,-5.1445,0.0,0.0,-5.1445,-5.1582,0.0,-5.1406,-5.1406,-5.1406,-5.1406,-5.1406,-5.1406,-5.1406,-5.1406,-5.1406,-5.1406,-5.1406,-5.1406,-5.1406,-5.1406,-5.1406,-5.1406,-5.1406,-5.1406,-5.1406,-5.1367,-5.0566,-5.0195,-5.0156,0.0,-4.9023,-4.8906,-4.9043,-4.9023,-4.8906,-4.8906,-4.8535,-4.8066,-4.8535,-4.7949,-4.6835,-4.6334,-4.6308,-4.6443,-4.6044,-4.6108,-4.6268,-4.6115,-4.6075,-4.6039,-4.5885,-4.5877,-4.5896,-4.5894,-4.6082,-4.6269,-4.6308,-4.6308,-4.6308,-4.6308,-4.6308,-4.6289,-4.6269,-4.615,-4.6075,-4.6075,-4.6075,-4.608,-4.6108,-4.6203,-4.6308,-4.6308,-4.6308,-4.6308,-4.6308,-4.6308,-4.6308,-4.6308,-4.6308,-4.6308,-4.6308,-4.6308,-4.6308,-4.6308,-4.6308,-4.6308,-4.6308,-4.6308,-4.6308,-4.6308,-4.6308,-4.6308,-4.6308,-4.6308,-4.6246,-4.6713,-4.7871,-4.8808,-4.8398,-4.9258,-5.0195,-5.0195,-5.0195,-5.0293,0.0,0.0,0.0,0.0,0.0,-5.0898,-5.1328,0.0,-5.1406,-5.1406,-5.1406,-5.1406,0.0,0.0,-5.1406,-5.1406,-5.1406,-5.1406,-5.1406,-5.1406,-5.1406,-5.1406,-5.1406,-5.1191,-5.0762,-5.0742,-5.0527,-5.0058,-5.0527,-5.0976,-5.1406,-5.1406,-5.1406,-5.1367,-5.0078,-4.9492,-4.9453,0.0,-4.793,-4.7539,-4.8008,-4.793,-4.75,-4.75,-4.7539,-4.7656,-4.8047,-4.7341,-4.6152,-4.5974,-4.6033,-4.615,-4.5951,-4.6082,-4.6269,-4.6144,-4.6108,-4.6077,-4.5932,-4.5944,-4.6001,-4.6001,-4.6149,-4.6308,-4.6308,-4.6308,-4.6308,-4.6308,-4.6308,-4.6308,-4.6308,-4.6199,-4.6108,-4.6108,-4.6108,-4.6108,-4.6108,-4.6203,-4.6308,-4.6308,-4.6308,-4.6308,-4.6308,-4.6308,-4.6308,-4.6308,-4.6308,-4.6308,-4.6308,-4.6308,-4.6308,-4.6308,-4.6308,-4.6308,-4.6308,-4.6308,-4.6308,-4.6308,-4.6308,-4.6308,-4.6308,-4.6308,-4.6268,-4.6479,-4.7578,-4.8633,-4.8848,-4.9551,-5.0254,-5.0449,-5.0332,-5.0254,0.0,0.0,0.0,0.0,-5.0898,0.0,-5.1308,-5.1406,-5.1406,-5.1406,-5.1406,-5.1406,-5.1406,-5.1406,-5.1406,-5.1406,-5.1406,-5.1406,-5.1406,-5.1406,-5.1406,-5.1406,-5.1406,-5.1035,-5.0234,-5.0195,-4.9785,-4.8906,-4.9551,-5.0312,-5.1113,-5.1113,-5.1113,-5.1055,-4.9375,-4.8594,-4.8555,-4.7676,-4.6914,-4.6348,-4.7012,-4.6894,-4.6328,-4.6523,-4.7148,-4.7871,-4.7676,-4.7082,-4.6355,-4.6018,-4.5988,-4.608,-4.5936,-4.6082,-4.6289,-4.6175,-4.6147,-4.6117,-4.5985,-4.6042,-4.6144,-4.6113,-4.62,-4.6308,-4.6308,-4.6308,-4.6308,-4.6308,-4.6308,-4.6308,-4.6308,-4.6223,-4.6147,-4.6147,-4.6147,-4.6147,-4.6147,-4.6226,-4.6308,-4.6308,-4.6308,-4.6308,-4.6308,-4.6308,-4.6308,-4.6308,-4.6308,-4.6289,-4.6267,-4.6289,-4.6308,-4.6308,-4.6308,-4.6308,-4.6308,-4.6308,-4.6308,-4.6308,-4.6308,-4.6308,-4.6308,-4.6308,-4.6308,-4.7201,-4.7598,-4.7891,-4.8691,-4.9551,-5.0391,-5.1133,-5.0742,-5.041,-5.1152,0.0,0.0,0.0,-5.1348,-5.1328,-5.1387,-5.1406,-5.1406,-5.1406,0.0,-5.1406,-5.1406,-5.1406,-5.1406,-5.1406,-5.1406,-5.1406,-5.1406,-5.1406,-5.1406,-5.1406,-5.1406,-5.1035,-5.0234,-5.0195,-4.9785,-4.8906,-4.8965,-4.9433,-5.0293,-5.0293,-5.0293,-5.0234,-4.8496,-4.7695,-4.7656,-4.6777,-4.6367,-4.6308,-4.6367,-4.6367,-4.6387,-4.7187,-4.8047,-4.8711,-4.7891,-4.7473,-4.7175,-4.6232,-4.5988,-4.608,-4.5936,-4.6082,-4.6308,-4.6289,-4.6289,-4.6268,-4.6119,-4.6177,-4.6267,-4.6122,-4.62,-4.6308,-4.6308,-4.6308,-4.6308,-4.6308,-4.6308,-4.6308,-4.6308,-4.6289,-4.6289,-4.6289,-4.6289,-4.6289,-4.6289,-4.6289,-4.6308,-4.6308,-4.6308,-4.6308,-4.6308,-4.6308,-4.6308,-4.6308,-4.6308,-4.6247,-4.6119,-4.6225,-4.6308,-4.6308,-4.6308,-4.6308,-4.6308,-4.6308,-4.6308,-4.6308,-4.6308,-4.6308,-4.6308,-4.6308,-4.6308,-4.6635,-4.7578,-4.8496,-4.8828,-4.9551,0.0,0.0,-5.0801,-5.1035,-5.1348,-5.1406,0.0,0.0,0.0,-5.1297,-5.1386,-5.1322,-5.1271,-5.1271,-5.1344,-5.1366,-5.1294,-5.1344,-5.1406,-5.1406,-5.1406,-5.1406,-5.1406,-5.1406,-5.1406,-5.1406,-5.0937,-5.0273,-4.9414,-4.8867,-4.8164,-4.7285,-4.7812,-4.8262,-4.8594,-4.9121,-4.9394,-4.9355,-4.8144,-4.7598,-4.7558,-4.668,-4.6308,-4.6308,-4.6308,-4.6308,-4.6328,-4.666,-4.6992,-4.7246,-4.6914,-4.6659,-4.6414,-4.6122,-4.5998,-4.5985,-4.6005,-4.6147,-4.6308,-4.6308,-4.6308,-4.6268,-4.6144,-4.6144,-4.6152,-4.6115,-4.62,-4.6308,-4.6308,-4.6308,-4.6308,-4.6308,-4.6308,-4.6308,-4.6308,-4.6308,-4.6308,-4.6308,-4.6308,-4.6308,-4.6308,-4.6308,-4.6308,-4.6308,-4.6308,-4.6308,-4.6308,-4.6308,-4.6308,-4.6308,-4.6224,-4.6149,-4.6091,-4.6147,-4.6144,-4.6047,-4.6047,-4.6047,-4.6047,-4.6122,-4.6174,-4.6174,-4.6268,-4.6308,-4.6308,-4.6308,-4.6308,-4.6635,-4.7578,-4.8555,-4.8828,0.0,0.0,-5.0137,-5.0625,-5.1094,-5.1348,-5.1406,-5.1406,-5.1406,0.0,0.0,0.0,-5.1232,-5.1167,-5.1167,-5.1247,-5.1283,-5.1206,-5.1273,-5.1345,-5.1406,-5.1406,-5.1406,-5.1406,-5.1406,-5.1289,-5.1035,-5.0508,-4.9668,-4.8535,-4.791,-4.7187,-4.6308,-4.6894,-4.7187,-4.7207,-4.7793,-4.8223,-4.8457,-4.7598,-4.7187,-4.7168,-4.6562,-4.6308,-4.6308,-4.6308,-4.6465,-4.6719,-4.6719,-4.6875,-4.709,-4.6816,-4.658,-4.6352,-4.6153,-4.6039,-4.5981,-4.6075,-4.6198,-4.6308,-4.6308,-4.6308,-4.6268,-4.6084,-4.6075,-4.6084,-4.6045,-4.6144,-4.6247,-4.6289,-4.6268,-4.6247,-4.6289,-4.6268,-4.6247,-4.6289,-4.6308,-4.6308,-4.6308,-4.6308,-4.6308,-4.6308,-4.6308,-4.6308,-4.6308,-4.6308,-4.6308,-4.6308,-4.6308,-4.6308,-4.6308,-4.6175,-4.6082,-4.6039,-4.6014,-4.5963,-4.5903,-4.5899,-4.5899,-4.5899,-4.6036,-4.6108,-4.6108,-4.6226,-4.6308,-4.6308,-4.6308,-4.6308,-4.7514,-4.7598,-4.7812,-4.8672,0.0,0.0,-5.0019,-5.0215,-5.0449,-5.123,-5.1406,-5.1406,-5.1406,-5.1294,0.0,-5.1201,-5.1148,-5.1108,-5.1108,-5.1089,-5.112,-5.1174,-5.1182,-5.1244,-5.1367,-5.1387,-5.1387,-5.1387,-5.1387,-5.1035,-5.0234,-5.0176,-4.9375,-4.7656,-4.7598,-4.7168,-4.6308,-4.6308,-4.6308,-4.6308,-4.6308,-4.6758,-4.7558,-4.6699,-4.6308,-4.6308,-4.6308,-4.6308,-4.6308,-4.6308,-4.6816,-4.7598,-4.7598,-4.8125,-4.8769,-4.791,-4.7493,-4.7262,-4.6403,-4.6108,-4.6108,-4.611,-4.6199,-4.6308,-4.6308,-4.6308,-4.6247,-4.5978,-4.5992,-4.6072,-4.5928,-4.5995,-4.6122,-4.6268,-4.62,-4.6144,-4.6268,-4.6199,-4.6144,-4.6269,-4.6308,-4.6308,-4.6308,-4.6308,-4.6308,-4.6308,-4.6308,-4.6308,-4.6308,-4.6308,-4.6308,-4.6308,-4.6308,-4.6308,-4.6308,-4.6175,-4.6042,-4.5907,-4.583,-4.5832,-4.589,-4.5899,-4.5899,-4.5899,-4.6033,-4.6108,-4.6108,-4.6226,-4.6308,-4.6308,-4.6308,-4.6308,-4.6661,-4.7514,-4.8574,-4.8848,0.0,0.0,0.0,-5.1035,0.0,0.0,-5.1321,-5.1265,-5.1265,-5.1102,0.0,-5.1116,-5.1036,-5.0953,-5.0953,-5.105,-5.087,-5.0283,-5.0309,-5.0168,-4.9687,-4.9648,-4.9648,-4.9648,-4.9648,-4.9531,-4.9297,-4.8691,-4.8125,-4.7617,-4.7012,-4.6562,-4.6308,-4.6308,-4.6308,-4.6308,-4.6308,-4.6445,-4.668,-4.6426,-4.6308,-4.6308,-4.6308,-4.6308,-4.6308,-4.6308,-4.6445,-4.6699,-4.6699,-4.6836,-4.7031,-4.6777,-4.6593,-4.6466,-4.63,-4.6175,-4.6115,-4.6202,-4.6268,-4.6308,-4.6308,-4.6226,-4.6119,-4.594,-4.5886,-4.5869,-4.5844,-4.5881,-4.6027,-4.6247,-4.62,-4.6144,-4.6268,-4.6199,-4.6144,-4.6269,-4.6308,-4.6308,-4.6308,-4.6308,-4.6308,-4.6308,-4.6308,-4.6308,-4.6308,-4.6308,-4.6308,-4.6308,-4.6308,-4.6308,-4.6308,-4.6175,-4.6082,-4.6042,-4.589,-4.5769,-4.5691,-4.5684,-4.5729,-4.5832,-4.5914,-4.6018,-4.6108,-4.6226,-4.6308,-4.6308,-4.6308,-4.6308,-4.7575,-4.8437,0.0,-4.9738,-5.0369,-5.1016,-5.1328,0.0,0.0,0.0,-5.1295,-5.1204,-5.1204,-5.1035,0.0,-5.101,-5.0903,-5.0706,-5.0339,-5.0371,-5.0144,-4.9362,-4.9344,-4.9267,-4.8925,-4.8906,-4.8906,-4.8906,-4.8906,-4.875,-4.8398,-4.7891,-4.7441,-4.709,-4.6562,-4.6308,-4.6308,-4.6308,-4.6308,-4.6308,-4.6308,-4.6308,-4.6308,-4.6308,-4.6308,-4.6308,-4.6308,-4.6308,-4.6308,-4.6308,-4.6308,-4.6308,-4.6308,-4.6308,-4.6308,-4.6308,-4.6247,-4.6198,-4.6268,-4.6247,-4.6199,-4.6269,-4.6308,-4.6289,-4.6245,-4.6152,-4.6069,-4.5915,-4.5838,-4.5803,-4.5803,-4.5839,-4.5944,-4.6173,-4.615,-4.6144,-4.6268,-4.6199,-4.6144,-4.6269,-4.6308,-4.6308,-4.6308,-4.6308,-4.6308,-4.6308,-4.6308,-4.6308,-4.6308,-4.6308,-4.6308,-4.6308,-4.6308,-4.6308,-4.6308,-4.6175,-4.6108,-4.6108,-4.5911,-4.5749,-4.5669,-4.5618,-4.5657,-4.5796,-4.5876,-4.5974,-4.6108,-4.6226,-4.6308,-4.6308,-4.6308,-4.6308,-4.9337,-4.9788,-5.0186,-5.0915,-5.0713,0.0,-5.123,-5.1406,-5.1406,-5.1386,0.0,-5.1191,-5.1166,-5.095,-5.0762,-5.0762,-5.058,-5.0192,-4.9394,-4.9279,-4.907,-4.8458,-4.8374,-4.8457,-4.8632,-4.8652,-4.8652,-4.8652,-4.8652,-4.832,-4.7519,-4.7461,-4.7109,-4.6328,-4.6289,-4.6289,-4.6308,-4.6308,-4.6308,-4.6308,-4.6308,-4.6308,-4.6308,-4.6308,-4.6308,-4.6308,-4.6308,-4.6308,-4.6308,-4.6308,-4.6308,-4.6308,-4.6308,-4.6308,-4.6308,-4.6308,-4.6308,-4.6308,-4.6308,-4.6289,-4.6289,-4.6308,-4.6289,-4.6247,-4.6122,-4.6082,-4.6024,-4.5844,-4.579,-4.5783,-4.5796,-4.5839,-4.5928,-4.6075,-4.6108,-4.6144,-4.6268,-4.6199,-4.6144,-4.6269,-4.6308,-4.6308,-4.6308,-4.6308,-4.6308,-4.6308,-4.6308,-4.6308,-4.6308,-4.6308,-4.6308,-4.6308,-4.6308,-4.6308,-4.6308,-4.6198,-4.6117,-4.6117,-4.5939,-4.5821,-4.5803,-4.5661,-4.5665,-4.5803,-4.5862,-4.5978,-4.6117,-4.6246,-4.6308,-4.6308,-4.6308,-4.6308,-4.785,-4.8863,0.0,0.0,-5.0781,-5.1191,-5.1367,-5.1406,-5.1366,-5.1267,-5.1184,-5.1084,-5.0971,-5.0279,-4.9728,-4.9728,-4.9124,-4.8586,-4.8413,-4.8375,-4.8155,-4.7558,-4.747,-4.732,-4.6894,-4.6855,-4.6855,-4.6855,-4.6855,-4.6777,-4.6582,-4.6473,-4.6374,-4.6308,-4.62,-4.6199,-4.6308,-4.6308,-4.6308,-4.6308,-4.6308,-4.6308,-4.6308,-4.6308,-4.6308,-4.6308,-4.6308,-4.6308,-4.6308,-4.6308,-4.6308,-4.6308,-4.6308,-4.6308,-4.6308,-4.6308,-4.6308,-4.6308,-4.6308,-4.6225,-4.615,-4.6268,-4.617,-4.5995,-4.608,-4.5983,-4.585,-4.5803,-4.5711,-4.5665,-4.5763,-4.5839,-4.5928,-4.6075,-4.6108,-4.6144,-4.6268,-4.6199,-4.6144,-4.6269,-4.6308,-4.6308,-4.6308,-4.6308,-4.6308,-4.6308,-4.6308,-4.6308,-4.6308,-4.6308,-4.6308,-4.6308,-4.6308,-4.6308,-4.6308,-4.6269,-4.6267,-4.6267,-4.611,-4.5994,-4.5886,-4.5699,-4.5696,-4.5877,-4.5885,-4.6027,-4.6267,-4.6289,-4.6308,-4.6308,-4.6308,-4.6308,-4.7713,0.0,0.0,-5.0622,0.0,-5.1406,-5.1406,-5.1344,-5.1288,-5.1161,-5.1116,-5.0936,-5.0382,-4.9787,-4.926,-4.8856,-4.8394,-4.7971,-4.7586,-4.7528,-4.7287,-4.6645,-4.6575,-4.6502,-4.6327,-4.6308,-4.6308,-4.6308,-4.6308,-4.6308,-4.6308,-4.6226,-4.6225,-4.6308,-4.6226,-4.6225,-4.6308,-4.6308,-4.6308,-4.6308,-4.6308,-4.6308,-4.6308,-4.6308,-4.6308,-4.6308,-4.6308,-4.6308,-4.6308,-4.6308,-4.6308,-4.6308,-4.6308,-4.6308,-4.6308,-4.6308,-4.6308,-4.6289,-4.6224,-4.617,-4.6108,-4.6113,-4.6069,-4.5985,-4.5963,-4.592,-4.5825,-4.574,-4.564,-4.5627,-4.5775,-4.5839,-4.5928,-4.6075,-4.6147,-4.6203,-4.6289,-4.6247,-4.6222,-4.6289,-4.6308,-4.6308,-4.6308,-4.6308,-4.6308,-4.6308,-4.6308,-4.6308,-4.6308,-4.6308,-4.6308,-4.6308,-4.6308,-4.6308,-4.6308,-4.6308,-4.6308,-4.6308,-4.6174,-4.6075,-4.5995,-4.5808,-4.5749,-4.5845,-4.5872,-4.5995,-4.6201,-4.6268,-4.6308,-4.6308,-4.6308,-4.6308,-4.742,0.0,-4.99,-5.1109,-5.1406,0.0,-5.1406,-5.1296,-5.1144,-5.0927,-5.086,-5.0586,-4.972,-4.9241,-4.8721,-4.8009,-4.7778,-4.7432,-4.6778,-4.6682,-4.6476,-4.5969,-4.5899,-4.6018,-4.6269,-4.6308,-4.6308,-4.6308,-4.6308,-4.6308,-4.6308,-4.6289,-4.6288,-4.6308,-4.6289,-4.6288,-4.6308,-4.6308,-4.6308,-4.6308,-4.6308,-4.6308,-4.6308,-4.6308,-4.6308,-4.6308,-4.6308,-4.6308,-4.6308,-4.6308,-4.6308,-4.6308,-4.6308,-4.6308,-4.6308,-4.6269,-4.6268,-4.6247,-4.6115,-4.6064,-4.6047,-4.5963,-4.5971,-4.599,-4.5867,-4.5836,-4.5809,-4.5665,-4.5635,-4.5673,-4.5815,-4.5896,-4.5974,-4.6091,-4.6223,-4.6308,-4.6308,-4.6308,-4.6308,-4.6308,-4.6308,-4.6308,-4.6308,-4.6308,-4.6308,-4.6308,-4.6308,-4.6308,-4.6308,-4.6308,-4.6308,-4.6308,-4.6308,-4.6289,-4.6268,-4.6289,-4.6289,-4.6268,-4.6177,-4.6119,-4.6108,-4.5925,-4.5821,-4.5821,-4.5867,-4.5981,-4.6122,-4.6247,-4.6308,-4.6308,-4.6308,-4.6308,0.0,0.0,-4.9265,0.0,-5.1406,-5.1406,0.0,0.0,-5.0968,0.0,-4.9876,-4.9732,-4.9476,-4.822,-4.7201,-4.7077,-4.6432,-4.5902,-4.5787,-4.5768,-4.5808,-4.5891,-4.5899,-4.6018,-4.6269,-4.6308,-4.6308,-4.6308,-4.6308,-4.6308,-4.6308,-4.6198,-4.6175,-4.6308,-4.6198,-4.6177,-4.6308,-4.6308,-4.6308,-4.6308,-4.6308,-4.6308,-4.6308,-4.6308,-4.6308,-4.6308,-4.6308,-4.6308,-4.6308,-4.6308,-4.6308,-4.6308,-4.6308,-4.6308,-4.6289,-4.6173,-4.614,-4.6113,-4.5978,-4.5896,-4.5867,-4.6018,-4.5891,-4.5684,-4.5836,-4.577,-4.5653,-4.5754,-4.5763,-4.5821,-4.6004,-4.6069,-4.6113,-4.6246,-4.6289,-4.6308,-4.6308,-4.6308,-4.6308,-4.6308,-4.6308,-4.6308,-4.6308,-4.6308,-4.6308,-4.6308,-4.6308,-4.6308,-4.6308,-4.6308,-4.6308,-4.6308,-4.6308,-4.6248,-4.6144,-4.6226,-4.6247,-4.6122,-4.6223,-4.6223,-4.6091,-4.5963,-4.5896,-4.5896,-4.5894,-4.6011,-4.6269,-4.6289,-4.6308,-4.6308,-4.6308,-4.6308,-4.506,-4.6562,-4.8408,0.0,-5.0661,-5.0859,-5.1308,0.0,-5.0311,-4.9891,-4.8706,-4.7798,-4.7962,-4.7413,-4.674,-4.624,-4.5432,-4.4874,-4.4874,-4.4511,-4.4492,-4.5146,-4.525,-4.5555,-4.623,-4.6308,-4.6308,-4.6308,-4.6308,-4.6308,-4.6308,-4.6247,-4.6246,-4.6308,-4.6247,-4.6246,-4.6308,-4.6308,-4.6308,-4.6308,-4.6308,-4.6308,-4.6308,-4.6308,-4.6308,-4.6308,-4.6308,-4.6308,-4.6308,-4.6308,-4.6308,-4.6289,-4.6223,-4.6198,-4.6174,-4.6039,-4.5988,-4.5981,-4.5916,-4.5886,-4.5876,-4.5959,-4.5891,-4.5783,-4.583,-4.579,-4.5718,-4.5776,-4.5803,-4.5858,-4.6053,-4.6108,-4.6122,-4.6268,-4.6308,-4.6308,-4.6308,-4.6308,-4.6308,-4.6308,-4.6308,-4.6308,-4.6308,-4.6308,-4.6308,-4.6308,-4.6308,-4.6308,-4.6308,-4.6308,-4.6308,-4.6308,-4.6308,-4.6247,-4.6115,-4.6149,-4.6152,-4.6091,-4.6168,-4.6199,-4.6202,-4.6082,-4.6045,-4.6119,-4.5981,-4.5992,-4.6198,-4.6268,-4.6308,-4.6308,-4.6308,-4.6308,0.0,0.0,-4.7135,-4.8905,-4.9775,-5.0351,0.0,0.0,-4.9746,0.0,-4.7855,-4.648,-4.655,-4.6493,-4.6186,-4.5404,-4.472,-4.422,-4.4028,-4.3545,-4.3488,-4.4275,-4.4448,-4.48,-4.5566,-4.5644,-4.5644,-4.5644,-4.584,-4.5976,-4.5976,-4.6172,-4.6308,-4.6308,-4.6308,-4.6308,-4.6308,-4.6308,-4.6308,-4.6308,-4.6308,-4.6308,-4.6308,-4.6308,-4.6308,-4.6308,-4.6308,-4.6308,-4.6308,-4.6308,-4.6289,-4.6246,-4.6144,-4.608,-4.6039,-4.5932,-4.5899,-4.5899,-4.5899,-4.5899,-4.5899,-4.5899,-4.5899,-4.5896,-4.5814,-4.5809,-4.5826,-4.5826,-4.5856,-4.592,-4.6104,-4.6147,-4.6174,-4.6288,-4.6308,-4.6308,-4.6308,-4.6308,-4.6308,-4.6308,-4.6308,-4.6308,-4.6308,-4.6308,-4.6308,-4.6308,-4.6308,-4.6308,-4.6308,-4.6308,-4.6308,-4.6308,-4.6308,-4.6247,-4.6115,-4.6108,-4.6082,-4.6047,-4.6082,-4.6145,-4.6247,-4.6149,-4.6152,-4.6308,-4.6075,-4.6027,-4.6147,-4.6247,-4.6308,-4.6308,-4.6308,-4.6308,0.0,-4.4127,0.0,-4.7082,-4.8878,0.0,0.0,0.0,0.0,-4.8738,-4.7668,-4.6626,-4.5817,-4.5419,-4.5012,-4.4455,-4.4335,-4.4028,-4.3278,-4.3178,-4.3269,-4.3454,-4.3587,-4.3705,-4.3828,-4.3848,-4.3848,-4.3848,-4.4609,-4.5078,-4.5078,-4.5859,-4.6308,-4.6308,-4.6308,-4.6308,-4.6308,-4.6308,-4.6308,-4.6308,-4.6308,-4.6308,-4.6308,-4.6308,-4.6308,-4.6308,-4.6308,-4.6308,-4.6308,-4.6308,-4.6224,-4.6113,-4.6091,-4.603,-4.5907,-4.5903,-4.5899,-4.5899,-4.5899,-4.5899,-4.5899,-4.5899,-4.5899,-4.5896,-4.5814,-4.5847,-4.589,-4.589,-4.5985,-4.6115,-4.6248,-4.6289,-4.6289,-4.6308,-4.6308,-4.6308,-4.6308,-4.6308,-4.6308,-4.6308,-4.6308,-4.6308,-4.6308,-4.6308,-4.6308,-4.6308,-4.6308,-4.6308,-4.6308,-4.6308,-4.6308,-4.6308,-4.6308,-4.6247,-4.6115,-4.6108,-4.6042,-4.5916,-4.6033,-4.6091,-4.6113,-4.6091,-4.6152,-4.6308,-4.6152,-4.6168,-4.6289,-4.6308,-4.6308,-4.6308,-4.6308,-4.6308,0.0,0.0,0.0,-4.5207,-4.6633,-4.7719,-4.8284,-4.8262,-4.803,-4.7675,-4.661,-4.5725,-4.5626,-4.5043,-4.4526,-4.4327,-4.3393,-4.2585,-4.2316,-4.1918,-4.1897,-4.2494,-4.2711,-4.3063,-4.3633,-4.3691,-4.3691,-4.3691,-4.4512,-4.5,-4.5,-4.5293,-4.5469,-4.5469,-4.4922,-4.4902,-4.5469,-4.6016,-4.6308,-4.6308,-4.6308,-4.6308,-4.6308,-4.6308,-4.6308,-4.6308,-4.6308,-4.6308,-4.6308,-4.6308,-4.6268,-4.6202,-4.6039,-4.5936,-4.589,-4.5845,-4.585,-4.5842,-4.5891,-4.5899,-4.5912,-4.5995,-4.5951,-4.5853,-4.5955,-4.591,-4.5869,-4.5981,-4.6053,-4.612,-4.6268,-4.6308,-4.6308,-4.6308,-4.6308,-4.6308,-4.6308,-4.6308,-4.6308,-4.6308,-4.6308,-4.6308,-4.6308,-4.6308,-4.6308,-4.6308,-4.6308,-4.6308,-4.6308,-4.6308,-4.6308,-4.6308,-4.6308,-4.6247,-4.6115,-4.603,-4.5944,-4.5903,-4.5955,-4.6001,-4.6108,-4.6177,-4.6247,-4.6308,-4.6248,-4.6247,-4.6308,-4.6308,-4.6308,-4.6308,-4.6308,-4.6308,-4.12,0.0,0.0,0.0,0.0,-4.593,-4.7075,0.0,-4.6798,-4.7043,-4.6127,-4.5256,-4.5175,-4.447,-4.3893,-4.3893,-4.272,-4.17,-4.1393,-4.1042,-4.1015,-4.1583,-4.1869,-4.2207,-4.2731,-4.2789,-4.2903,-4.3147,-4.4015,0.0,-4.4917,-4.5253,-4.5293,-4.5019,-4.4141,-4.4121,-4.498,-4.5566,-4.6016,-4.6308,-4.6308,-4.6308,-4.6308,-4.6308,-4.6308,-4.6308,-4.6308,-4.6308,-4.6308,-4.6308,-4.6269,-4.6222,-4.6039,-4.5932,-4.5894,-4.5896,-4.5896,-4.5915,-4.6008,-4.6036,-4.6042,-4.6082,-4.604,-4.5974,-4.6021,-4.5997,-4.5982,-4.6072,-4.6122,-4.6198,-4.6288,-4.6308,-4.6308,-4.6308,-4.6308,-4.6308,-4.6308,-4.6308,-4.6308,-4.6308,-4.6308,-4.6308,-4.6308,-4.6308,-4.6308,-4.6308,-4.6308,-4.6308,-4.6308,-4.6308,-4.6308,-4.6308,-4.6308,-4.6268,-4.6174,-4.5998,-4.5899,-4.5899,-4.5899,-4.5932,-4.6033,-4.6201,-4.6308,-4.6308,-4.6308,-4.6308,-4.6308,-4.6248,-4.6226,-4.6226,-4.6226,-4.6267,0.0,0.0,0.0,0.0,0.0,0.0,-4.6686,0.0,-4.5977,-4.6842,-4.6241,-4.5306,-4.4451,-4.3643,-4.3085,-4.3066,-4.2335,-4.147,-4.0631,-4.0674,-4.0793,-4.0793,-4.1025,-4.1148,-4.1037,-4.1014,-4.1317,-4.2081,-4.3047,-4.3942,-4.476,-4.5697,-4.5801,-4.4922,-4.4082,-4.4062,-4.4922,-4.4961,-4.543,-4.6269,-4.6289,-4.6308,-4.6308,-4.6308,-4.6308,-4.6308,-4.6308,-4.6308,-4.6308,-4.6308,-4.6224,-4.611,-4.611,-4.6027,-4.592,-4.6047,-4.6108,-4.6115,-4.6247,-4.6289,-4.6268,-4.6144,-4.6196,-4.6246,-4.5988,-4.6084,-4.6268,-4.6145,-4.62,-4.6308,-4.6308,-4.6308,-4.6308,-4.6308,-4.6308,-4.6308,-4.6289,-4.6308,-4.6308,-4.6308,-4.6308,-4.6308,-4.6308,-4.6308,-4.6308,-4.6308,-4.6308,-4.6308,-4.6308,-4.6308,-4.6308,-4.6308,-4.6308,-4.6308,-4.6308,-4.6047,-4.5903,-4.5903,-4.5903,-4.5903,-4.5903,-4.615,-4.6308,-4.6308,-4.6308,-4.6308,-4.6289,-4.6173,-4.611,-4.611,-4.611,-4.6174,-4.063,0.0,0.0,0.0,0.0,0.0,0.0,0.0,0.0,-4.4917,-4.4848,-4.4586,-4.4335,-4.3643,-4.2893,-4.2258,-4.1431,-4.0785,-4.0535,-4.0636,-4.0721,-4.0721,-4.0844,-4.1136,-4.1733,-4.1227,-4.1466,0.0,-4.3296,-4.3851,-4.4758,-4.4564,-4.375,-4.2305,-4.2578,-4.2871,-4.3125,-4.4375,-4.5117,-4.5371,-4.5996,-4.6308,-4.6308,-4.6308,-4.6308,-4.6308,-4.6308,-4.6308,-4.6308,-4.6308,-4.6289,-4.6245,-4.6144,-4.608,-4.6045,-4.6084,-4.6039,-4.5978,-4.6113,-4.6087,-4.6027,-4.608,-4.605,-4.6036,-4.6149,-4.6174,-4.6173,-4.6225,-4.6268,-4.6308,-4.6308,-4.6308,-4.6308,-4.6308,-4.6308,-4.6269,-4.6174,-4.6225,-4.6308,-4.6308,-4.6308,-4.6308,-4.6308,-4.6308,-4.6308,-4.6308,-4.6308,-4.6308,-4.6308,-4.6308,-4.6308,-4.6308,-4.6308,-4.6308,-4.6308,-4.6047,-4.5936,-4.6039,-4.5944,-4.5936,-4.6039,-4.6202,-4.6308,-4.6308,-4.6308,-4.6248,-4.6168,-4.6222,-4.6247,-4.6247,-4.6247,-4.6268,-4.0794,-4.0697,0.0,0.0,0.0,0.0,-4.2297,-4.2528,0.0,0.0,-4.3797,-4.3682,-4.3316,-4.2874,-4.2277,-4.1393,-4.0843,-4.0496,-4.0496,-4.0616,-4.0697,-4.0697,-4.0767,-4.0995,-4.1466,-4.1383,-4.1844,-4.3174,-4.3643,-4.4128,-4.4775,-4.3764,-4.2715,-4.1738,-4.1836,-4.2051,-4.2402,-4.3769,-4.4648,-4.5019,-4.5879,-4.6308,-4.6308,-4.6308,-4.6094,-4.5781,-4.6133,-4.6094,-4.5781,-4.6152,-4.6308,-4.6289,-4.6203,-4.6177,-4.6177,-4.6177,-4.6122,-4.608,-4.6168,-4.6122,-4.608,-4.617,-4.612,-4.6106,-4.6248,-4.6247,-4.62,-4.6289,-4.6308,-4.6308,-4.6308,-4.6308,-4.6308,-4.6308,-4.6268,-4.6104,-4.5729,-4.5946,-4.6222,-4.6222,-4.6268,-4.6308,-4.6308,-4.6308,-4.6308,-4.6308,-4.6308,-4.6308,-4.6308,-4.6308,-4.6308,-4.6308,-4.6308,-4.6308,-4.6308,-4.611,-4.6027,-4.6106,-4.6033,-4.6027,-4.6108,-4.6225,-4.6308,-4.6308,-4.6308,-4.6268,-4.6177,-4.6201,-4.6222,-4.6223,-4.6269,-4.6308,-4.1233,-4.1009,-4.1153,0.0,0.0,0.0,-4.2489,-4.2297,-4.2019,0.0,-4.297,-4.272,-4.1942,-4.1788,-4.1508,-4.065,-4.0496,-4.0496,-4.0496,-4.0596,-4.0674,-4.0674,-4.0732,-4.0777,-4.0821,-4.1519,-4.2284,-4.3044,-4.3896,-4.4453,-4.4626,-4.3215,-4.2363,-4.2266,-4.1562,-4.1582,-4.2383,-4.3262,-4.4141,-4.5019,-4.5879,-4.625,-4.6152,-4.6152,-4.5723,-4.5039,-4.5723,-4.5625,-4.5058,-4.5723,-4.6133,-4.6308,-4.6308,-4.6308,-4.6308,-4.6289,-4.6268,-4.6268,-4.6269,-4.6268,-4.6268,-4.6289,-4.6308,-4.6308,-4.6308,-4.6308,-4.6308,-4.6308,-4.6308,-4.6308,-4.6308,-4.6289,-4.6289,-4.6289,-4.6174,-4.5896,-4.5226,-4.5623,-4.6106,-4.608,-4.62,-4.6308,-4.6308,-4.6308,-4.6308,-4.6308,-4.6308,-4.6308,-4.6308,-4.6308,-4.6308,-4.6308,-4.6308,-4.6308,-4.6308,-4.6175,-4.6113,-4.6117,-4.6113,-4.6113,-4.6119,-4.6245,-4.6308,-4.6308,-4.6308,-4.6308,-4.6308,-4.6171,-4.6113,-4.6138,-4.6247,-4.6308,0.0,0.0,0.0,0.0,0.0,0.0,-4.1247,-4.1412,-4.1846,0.0,-4.2038,-4.2,-4.1827,-4.1788,-4.1508,-4.065,-4.0496,-4.0496,-4.0496,-4.0527,-4.053,-4.053,-4.0547,-4.0824,-4.1532,-4.1736,-4.2183,-4.3028,-4.3425,-4.3625,-4.3677,-4.2851,-4.2109,-4.1445,-4.1289,-4.1582,-4.2383,-4.3262,-4.4141,-4.5019,-4.5879,-4.5937,-4.5254,-4.5254,-4.5156,-4.4961,-4.4433,-4.4512,-4.4961,-4.4433,-4.5039,-4.6308,-4.6308,-4.6308,-4.6289,-4.6175,-4.6075,-4.5992,-4.611,-4.6075,-4.6005,-4.6225,-4.6308,-4.6308,-4.6308,-4.6308,-4.6308,-4.6308,-4.6308,-4.6308,-4.6308,-4.6223,-4.6144,-4.6144,-4.6039,-4.5877,-4.5682,-4.5873,-4.6075,-4.5967,-4.6122,-4.6308,-4.6308,-4.6308,-4.6308,-4.6308,-4.6308,-4.6308,-4.6308,-4.6308,-4.6308,-4.6308,-4.6308,-4.6308,-4.6308,-4.6175,-4.6145,-4.6248,-4.615,-4.6147,-4.6267,-4.6289,-4.6308,-4.6308,-4.6308,-4.6308,-4.6308,-4.6171,-4.6168,-4.6268,-4.6289,-4.6308,0.0,0.0,0.0,-4.2868,0.0,0.0,0.0,-4.1143,-4.1143,-4.1143,-4.1143,-4.1143,-4.1143,-4.1143,-4.1008,-4.0573,-4.0496,-4.0496,-4.0496,-4.0496,-4.0496,-4.0496,-4.0496,-4.0835,-4.1712,-4.22,-4.2797,-4.3643,-4.3501,-4.34,-4.34,-4.277,-4.2402,-4.2441,-4.2441,-4.2637,-4.3047,-4.3906,-4.457,-4.5019,-4.5879,-4.584,-4.5019,-4.5449,-4.4941,-4.375,-4.4629,-4.4492,-4.373,-4.418,-4.4609,-4.5058,-4.5488,-4.5644,-4.5703,-4.6068,-4.617,-4.6113,-4.6174,-4.6168,-4.6119,-4.6267,-4.6308,-4.6308,-4.6308,-4.6308,-4.6308,-4.6308,-4.6308,-4.6289,-4.6223,-4.62,-4.6079,-4.5568,-4.5733,-4.5761,-4.4939,-4.546,-4.5835,-4.4974,-4.5616,-4.6308,-4.6308,-4.5937,-4.5801,-4.623,-4.6308,-4.6308,-4.6308,-4.6308,-4.6308,-4.6308,-4.6308,-4.6308,-4.6308,-4.6246,-4.6225,-4.6308,-4.6245,-4.6225,-4.6308,-4.6308,-4.6308,-4.6308,-4.6226,-4.6226,-4.6308,-4.6171,-4.6173,-4.6308,-4.6308,-4.6308,0.0,0.0,0.0,0.0,0.0,-4.197,0.0,0.0,0.0,0.0,0.0,0.0,0.0,0.0,0.0,0.0,0.0,0.0,0.0,-4.0496,0.0,-4.0496,-4.0496,-4.0785,-4.1489,-4.2181,-4.3006,-4.4009,-4.3358,-4.2976,-4.3179,-4.254,-4.2558,-4.3418,-4.3457,-4.3613,-4.3945,-4.4648,-4.5078,-4.5254,-4.5781,-4.5586,-4.4766,-4.5293,-4.4394,-4.2519,-4.4473,-4.4219,-4.25,-4.375,-4.3848,-4.334,-4.4531,-4.5,-4.5098,-4.5956,-4.6268,-4.6268,-4.6268,-4.6268,-4.6268,-4.6289,-4.6308,-4.6308,-4.6308,-4.6308,-4.6308,-4.6308,-4.6289,-4.6245,-4.612,-4.6028,-4.5761,-4.4968,-4.5298,-4.5445,-4.4167,-4.5055,-4.5672,-4.4195,-4.5078,-4.5996,-4.582,-4.5488,-4.543,-4.5976,-4.6191,-4.6308,-4.6308,-4.6308,-4.6308,-4.6308,-4.6308,-4.6308,-4.6308,-4.6308,-4.6308,-4.6308,-4.6308,-4.6308,-4.6308,-4.6308,-4.6308,-4.6308,-4.6199,-4.6199,-4.6308,-4.6198,-4.6199,-4.6308,-4.6308,-4.6308,0.0,0.0,0.0,0.0,-4.3088,0.0,0.0,0.0,-4.1431,-4.0669,0.0,0.0,0.0,0.0,0.0,0.0,0.0,0.0,-4.0496,-4.0496,-4.0496,-4.0496,-4.0496,-4.0535,-4.065,-4.0746,-4.1489,-4.3208,-4.1942,-4.1477,-4.2381,-4.173,-4.1719,-4.2519,-4.2558,-4.3281,-4.4844,-4.4941,-4.5391,-4.6133,-4.5469,-4.4687,-4.3828,-4.3144,-4.2676,-4.2383,-4.1953,-4.2012,-4.2363,-4.1836,-4.1562,-4.1719,-4.4082,-4.5,-4.5097,-4.5859,-4.6119,-4.6119,-4.6119,-4.6119,-4.6145,-4.6268,-4.6308,-4.6308,-4.6308,-4.6308,-4.6308,-4.6308,-4.6203,-4.6117,-4.6091,-4.5406,-4.4713,-4.4703,-4.4705,-4.4658,-4.4604,-4.5387,-4.5818,-4.4866,-4.4934,-4.4902,-4.4121,-4.5195,-4.5918,-4.5254,-4.5801,-4.6308,-4.6308,-4.6308,-4.6308,-4.6308,-4.6308,-4.6308,-4.6308,-4.6308,-4.6308,-4.6308,-4.6308,-4.6308,-4.6308,-4.6308,-4.6308,-4.6308,-4.6289,-4.6289,-4.6308,-4.6289,-4.6289,-4.6308,-4.6308,-4.6308,0.0,0.0,0.0,0.0,0.0,0.0,-4.1631,0.0,-4.0931,0.0,0.0,0.0,0.0,0.0,0.0,0.0,-4.0496,0.0,0.0,0.0,-4.0496,0.0,0.0,0.0,-4.12,-4.17,-4.2352,-4.3131,-4.2656,-4.2753,-4.3745,-4.355,-4.3789,-4.4648,-4.4668,-4.5019,-4.5742,-4.5742,-4.5683,-4.5547,-4.5176,-4.4277,-4.2949,-4.3086,-4.2617,-4.1738,-4.2363,-4.2285,-4.1719,-4.1836,-4.1621,-4.1348,-4.2891,-4.3496,-4.3652,-4.4976,-4.5461,-4.5539,-4.6047,-4.5871,-4.5463,-4.5527,-4.5898,-4.6308,-4.6308,-4.6308,-4.6308,-4.6308,-4.6201,-4.6082,-4.5998,-4.53,-4.4497,-4.4048,-4.3961,-4.387,-4.3452,-4.4064,-4.4602,-4.4231,-4.4627,-4.4726,-4.3848,-4.4726,-4.5586,-4.5723,-4.6074,-4.6308,-4.6308,-4.6308,-4.6308,-4.6308,-4.6308,-4.6308,-4.6308,-4.6308,-4.6308,-4.6308,-4.6308,-4.6308,-4.6308,-4.6308,-4.6308,-4.6308,-4.6308,-4.6308,-4.6308,-4.6308,-4.6308,-4.6308,-4.6308,-4.6308,-4.6121,0.0,0.0,0.0,0.0,0.0,0.0,0.0,0.0,0.0,0.0,0.0,0.0,0.0,0.0,0.0,0.0,-4.0496,0.0,0.0,0.0,0.0,0.0,0.0,0.0,-4.2027,-4.2529,-4.2873,-4.2995,-4.3487,-4.4528,-4.4626,-4.5039,-4.5918,-4.5937,-4.6055,-4.6308,-4.6308,-4.5859,-4.5,-4.5,-4.4082,-4.2422,-4.3066,-4.2558,-4.1269,-4.248,-4.2324,-4.125,-4.1836,-4.1738,-4.1269,-4.1836,-4.207,-4.2285,-4.4004,-4.4648,-4.4726,-4.5371,-4.5156,-4.4666,-4.4922,-4.5429,-4.5955,-4.6211,-4.6308,-4.625,-4.6016,-4.5824,-4.564,-4.5297,-4.4555,-4.3758,-4.3188,-4.3111,-4.3045,-4.2518,-4.3086,-4.3691,-4.3691,-4.4394,-4.4805,-4.418,-4.4785,-4.5488,-4.5879,-4.6152,-4.6308,-4.6308,-4.6308,-4.6308,-4.6308,-4.6308,-4.6308,-4.6308,-4.6308,-4.6308,-4.6308,-4.6308,-4.6308,-4.6308,-4.6308,-4.6308,-4.6308,-4.6308,-4.6308,-4.6308,-4.6308,-4.6308,-4.6308,-4.6308,-4.6308,0.0,0.0,0.0,-4.2238,0.0,0.0,0.0,0.0,-3.9554,0.0,0.0,0.0,0.0,0.0,0.0,0.0,0.0,0.0,0.0,0.0,0.0,0.0,0.0,0.0,0.0,-4.0573,-4.1003,0.0,-4.2148,-4.2618,-4.3671,-4.373,-4.4141,-4.5019,-4.5039,-4.5449,-4.6289,-4.6308,-4.5859,-4.5,-4.5,-4.4082,-4.2402,-4.2422,-4.1992,-4.1191,-4.1269,-4.125,-4.1191,-4.123,-4.1211,-4.1191,-4.123,-4.123,-4.1445,-4.3125,-4.373,-4.375,-4.3769,-4.3724,-4.3782,-4.4705,-4.4974,-4.5111,-4.6014,-4.6308,-4.6113,-4.5273,-4.4905,-4.4549,-4.3704,-4.2691,-4.195,-4.2097,-4.2144,-4.2185,-4.236,-4.3086,-4.3691,-4.3691,-4.4394,-4.498,-4.4961,-4.5683,-4.5976,-4.5156,-4.5762,-4.6308,-4.6308,-4.6308,-4.6308,-4.6308,-4.6308,-4.6308,-4.6308,-4.6308,-4.6308,-4.6308,-4.6308,-4.6308,-4.6308,-4.6308,-4.6308,-4.6308,-4.6308,-4.6308,-4.6308,-4.6308,-4.6308,-4.6308,-4.6308,-4.6308,0.0,0.0,-4.3211,-4.2966,0.0,0.0,0.0,0.0,0.0,0.0,0.0,0.0,0.0,0.0,0.0,0.0,0.0,0.0,0.0,0.0,0.0,0.0,0.0,0.0,0.0,0.0,0.0,0.0,-4.2911,0.0,-4.5194,-4.5368,-4.5566,-4.5859,-4.5859,-4.5996,-4.6308,-4.6308,-4.5859,-4.5,-4.5,-4.4394,-4.3242,-4.2656,-4.2246,-4.1953,-4.1426,-4.1191,-4.1191,-4.1191,-4.1191,-4.1191,-4.1191,-4.1191,-4.1328,-4.2422,-4.2832,-4.2832,-4.2783,-4.351,-4.4321,-4.3495,-4.4014,-4.4919,-4.4668,-4.457,-4.4512,-4.4219,-4.4064,-4.3908,-4.3613,-4.2762,-4.2008,-4.2075,-4.1721,-4.1388,-4.1462,-4.2184,-4.3008,-4.3594,-4.4394,-4.5176,-4.5762,-4.6094,-4.6191,-4.5898,-4.6113,-4.6308,-4.6308,-4.6308,-4.6308,-4.6308,-4.6308,-4.6308,-4.6308,-4.6308,-4.6308,-4.6308,-4.6308,-4.6308,-4.6308,-4.6308,-4.6308,-4.6308,-4.6308,-4.6308,-4.6308,-4.6308,-4.6308,-4.6308,-4.6308,-4.6308,-4.3237,-4.3077,0.0,-4.2584,-4.1673,0.0,-4.1091,0.0,0.0,0.0,0.0,0.0,0.0,0.0,0.0,0.0,0.0,0.0,0.0,-4.0496,0.0,0.0,0.0,0.0,0.0,0.0,-4.1261,-4.3066,-4.3291,0.0,0.0,-4.6177,-4.6247,-4.6308,-4.6308,-4.6308,-4.6308,-4.6308,-4.5859,-4.5,-4.5,-4.4531,-4.3672,-4.2793,-4.2402,-4.2363,-4.1543,-4.1191,-4.1191,-4.1191,-4.1191,-4.1191,-4.1191,-4.1191,-4.1269,-4.1777,-4.1973,-4.1972,-4.1924,-4.2612,-4.3383,-4.2597,-4.3115,-4.4,-4.3769,-4.3691,-4.3691,-4.3691,-4.3427,-4.314,-4.314,-4.2386,-4.1661,-4.1694,-4.1354,-4.1,-4.1055,-4.1774,-4.2656,-4.3535,-4.4394,-4.5273,-4.6152,-4.6308,-4.6308,-4.6308,-4.6308,-4.6308,-4.6308,-4.6308,-4.6308,-4.6308,-4.6308,-4.6308,-4.6308,-4.6308,-4.6308,-4.6308,-4.6267,-4.6225,-4.6225,-4.6225,-4.6225,-4.6225,-4.6288,-4.6308,-4.6308,-4.6308,-4.6308,-4.6308,-4.6308,-4.6308]},{"header":{"parameterUnit":"m.s-1","parameterCategory":1,"la1":30.6,"la2":29.2853,"lo1":-89.7004,"lo2":-87.6739,"dy":0.0162,"dx":0.0183,"nx":112,"ny":82,"refTime":"2025-06-17T12:00:00:Z","depth":0,"parameterNumber":3,"parameterNumberName":"V-component_of_WINDS"},"data":[0.0,0.0,0.0,0.0,0.0,0.0,0.0,0.0,0.0,0.0,0.0,0.0,0.0,0.0,0.0,0.0,0.0,0.0,0.0,0.0,0.0,0.0,0.0,0.0,0.0,0.0,0.0,0.0,0.0,0.0,0.0,0.0,0.0,0.0,0.0,0.0,0.0,0.0,0.0,0.0,0.0,0.0,0.0,0.0,0.0,0.0,0.0,0.0,0.0,0.0,0.0,0.0,0.0,0.0,0.0,0.0,0.0,0.0,0.0,0.0,0.0,0.0,0.0,0.0,0.0,0.0,0.0,0.0,0.0,0.0,0.0,0.0,0.0,0.0,0.0,0.0,0.0,0.0,0.0,0.0,0.0,0.0,0.0,0.0,0.0,0.0,0.0,0.0,0.0,0.0,0.0,0.0,-0.2695,-0.4526,-0.4526,-0.7204,-0.9632,-1.1413,0.0,0.0,0.0,0.0,0.0,0.0,0.0,0.0,0.0,0.0,0.0,0.0,0.0,0.0,0.0,0.0,0.0,0.0,0.0,0.0,0.0,0.0,0.0,0.0,0.0,0.0,0.0,0.0,0.0,0.0,0.0,0.0,0.0,0.0,0.0,0.0,0.0,0.0,0.0,0.0,0.0,0.0,0.0,0.0,0.0,0.0,0.0,0.0,0.0,0.0,0.0,0.0,0.0,0.0,0.0,0.0,0.0,0.0,0.0,0.0,0.0,0.0,0.0,0.0,0.0,0.0,0.0,0.0,0.0,0.0,0.0,0.0,0.0,0.0,0.0,0.0,0.0,0.0,0.0,0.0,0.0,0.0,0.0,0.0,0.0,0.0,0.0,0.0,0.0,0.0,0.0,0.0,0.0,0.0,0.0,0.0,0.0,0.0,0.0,0.0,0.0,0.0,0.0,0.0,0.0,0.0,-0.2676,-0.4526,-0.4526,-0.7204,-0.9632,-1.1413,0.0,0.0,0.0,0.0,0.0,0.0,0.0,0.0,0.0,0.0,0.0,0.0,0.0,0.0,0.0,0.0,0.0,0.0,0.0,0.0,0.0,0.0,0.0,0.0,0.0,0.0,0.0,0.0,0.0,0.0,0.0,0.0,0.0,0.0,0.0,0.0,0.0,0.0,0.0,0.0,0.0,0.0,0.0,0.0,0.0,0.0,0.0,0.0,0.0,0.0,0.0,0.0,0.0,0.0,0.0,0.0,0.0,0.0,0.0,0.0,0.0,0.0,0.0,0.0,0.0,0.0,0.0,0.0,0.0,0.0,0.0,0.0,0.0,0.0,0.0,0.0,0.0,0.0,0.0,0.0,0.0,0.0,0.0,0.0,0.0,0.0,0.0,0.0,0.0,0.0,0.0,0.0,0.0,0.0,0.0,0.0,0.0,0.0,0.0,0.0,0.0,0.0,0.0,-0.0666,0.0,0.0,-0.2684,-0.4526,-0.4526,-0.7204,-0.9369,-1.0529,-1.1013,0.0,0.0,0.0,0.0,0.0,0.0,0.0,0.0,0.0,0.0,0.0,0.0,0.0,0.0,0.0,0.0,0.0,0.0,0.0,0.0,0.0,0.0,0.0,0.0,0.0,0.0,0.0,0.0,0.0,0.0,0.0,0.0,0.0,0.0,0.0,0.0,0.0,0.0,0.0,0.0,0.0,0.0,0.0,0.0,0.0,0.0,0.0,0.0,0.0,0.0,0.0,0.0,0.0,0.0,0.0,0.0,0.0,0.0,0.0,0.0,0.0,0.0,0.0,0.0,0.0,0.0,0.0,0.0,0.0,0.0,0.0,0.0,0.0,0.0,0.0,0.0,0.0,0.0,0.0,0.0,0.0,0.0,0.0,0.0,0.0,0.0,0.0,0.0,0.0,0.0,0.0,0.0,0.0,0.0,0.0,0.0,0.0,0.0,0.0,0.0,0.0,0.0,0.0,-0.0107,-0.0502,-0.2908,-0.4639,-0.4973,-0.7373,-0.9072,-0.9735,-1.0265,0.0,0.0,0.0,0.0,0.0,0.0,0.0,0.0,0.0,0.0,0.0,0.0,0.0,0.0,0.0,0.0,0.0,0.0,0.0,0.0,0.0,0.0,0.0,0.0,0.0,0.0,0.0,0.0,0.0,0.0,0.0,0.0,0.0,0.0,0.0,0.0,0.0,0.0,0.0,0.0,0.0,0.0,0.0,0.0,0.0,0.0,0.0,0.0,0.0,0.0,0.0,0.0,0.0,0.0,0.0,0.0,0.0,0.0,0.0,0.0,0.0,0.0,0.0,0.0,0.0,0.0,0.0,0.0,0.0,0.0,0.0,0.0,0.0,0.0,0.0,0.0,0.0,0.0,0.0,0.0,0.0,0.0,0.0,0.0,0.0,0.0,0.0,0.0,0.0,0.0,0.0,0.0,0.0,0.0,0.0,0.0,0.0,0.0,0.0,0.0,0.0,0.0,0.0,-0.0549,-0.1897,-0.3521,-0.5029,-0.6422,-0.7753,-0.8888,-0.9768,-0.9238,0.0,0.0,0.0,0.0,0.0,0.0,0.0,0.0,0.0,0.0,0.0,0.0,0.0,0.0,0.0,0.0,0.0,0.0,0.0,0.0,0.0,0.0,0.0,0.0,0.0,0.0,0.0,0.0,0.0,0.0,0.0,0.0,0.0,0.0,0.0,0.0,0.0,0.0,0.0,0.0,0.0,0.0,0.0,0.0,0.0,0.0,0.0,0.0,0.0,0.0,0.0,0.0,0.0,0.0,0.0,0.0,0.0,0.0,0.0,0.0,0.0,0.0,0.0,0.0,0.0,0.0,0.0,0.0,0.0,0.0,0.0,0.0,0.0,0.0,0.0,0.0,0.0,0.0,0.0,0.0,0.0,0.0,0.0,0.0,0.0,0.0,0.0,0.0,0.0,0.0,0.0,0.0,0.0,0.0,0.0,0.0,0.0,0.0,0.0,0.0,0.0,0.0,-0.1244,-0.1609,0.0,-0.4411,-0.6061,-0.6546,-0.7819,-0.8581,-0.8416,0.0,0.0,0.0,0.0,0.0,0.0,0.0,0.0,0.0,0.0,0.0,0.0,0.0,0.0,0.0,0.0,0.0,0.0,0.0,0.0,0.0,0.0,0.0,0.0,0.0,0.0,0.0,0.0,0.0,0.0,0.0,0.0,0.0,0.0,0.0,0.0,0.0,0.0,0.0,0.0,0.0,0.0,0.0,0.0,0.0,0.0,0.0,0.0,0.0,0.0,0.0,0.0,0.0,0.0,0.0,0.0,0.0,0.0,0.0,0.0,0.0,0.0,0.0,0.0,0.0,0.0,0.0,0.0,0.0,0.0,0.0,0.0,0.0,0.0,0.0,0.0,0.0,0.0,0.0,0.0,0.0,0.0,0.0,0.0,0.0,0.0,0.0,0.0,0.0,0.0,0.0,0.0,0.0,0.0,0.0,0.0,0.0,0.0,0.0,0.0,0.0,0.0,-0.2564,-0.2662,-0.3021,0.0,-0.5427,-0.6764,-0.7079,-0.7961,-0.8241,-0.7638,0.0,0.0,0.0,0.0,0.0,0.0,0.0,0.0,0.0,0.0,0.0,0.0,0.0,0.0,0.0,0.0,0.0,0.0,0.0,0.0,0.0,0.0,0.0,0.0,0.0,0.0,0.0,0.0,0.0,0.0,0.0,0.0,0.0,0.0,0.0,0.0,0.0,0.0,0.0,0.0,0.0,0.0,0.0,0.0,0.0,0.0,0.0,0.0,0.0,0.0,0.0,0.0,0.0,0.0,0.0,0.0,0.0,0.0,0.0,0.0,0.0,0.0,0.0,0.0,0.0,0.0,0.0,0.0,0.0,0.0,0.0,0.0,0.0,0.0,0.0,0.0,0.0,0.0,0.0,0.0,0.0,0.0,0.0,0.0,0.0,0.0,0.0,0.0,0.0,0.0,0.0,0.0,0.0,0.0,0.0,0.0,0.0,0.0,0.0,0.0,0.0,0.0,-0.3928,-0.4053,-0.4803,-0.6354,-0.6526,-0.7076,-0.8384,-0.8208,-0.7864,0.0,0.0,0.0,0.0,0.0,0.0,0.0,0.0,0.0,0.0,0.0,0.0,0.0,0.0,0.0,0.0,0.0,0.0,0.0,0.0,0.0,0.0,0.0,0.0,0.0,0.0,0.0,0.0,0.0,0.0,0.0,0.0,0.0,0.0,0.0,0.0,0.0,0.0,0.0,0.0,0.0,0.0,0.0,0.0,0.0,0.0,0.0,0.0,0.0,0.0,0.0,0.0,0.0,0.0,0.0,0.0,0.0,0.0,0.0,0.0,0.0,0.0,0.0,0.0,0.0,0.0,0.0,0.0,0.0,0.0,0.0,0.0,0.0,0.0,0.0,0.0,0.0,0.0,0.0,0.0,0.0,0.0,0.0,0.0,0.0,0.0,0.0,0.0,0.0,0.0,0.0,0.0,0.0,0.0,0.0,0.0,0.0,0.0,0.0,0.0,0.0,0.0,0.0,-0.495,-0.5381,-0.5865,-0.629,-0.7263,-0.801,-0.8347,-0.8153,-0.7773,-0.7264,0.0,0.0,0.0,0.0,0.0,0.0,0.0,0.0,0.0,0.0,0.0,0.0,0.0,0.0,0.0,0.0,0.0,0.0,0.0,0.0,0.0,0.0,0.0,0.0,0.0,0.0,0.0,0.0,0.0,0.0,0.0,0.0,0.0,0.0,0.0,0.0,0.0,0.0,0.0,0.0,0.0,0.0,0.0,0.0,0.0,0.0,0.0,0.0,0.0,0.0,0.0,0.0,0.0,0.0,0.0,0.0,0.0,0.0,0.0,0.0,0.0,0.0,0.0,0.0,0.0,0.0,0.0,0.0,0.0,0.0,0.0,0.0,0.0,0.0,0.0,0.0,0.0,0.0,0.0,0.0,0.0,0.0,0.0,0.0,0.0,0.0,0.0,0.0,0.0,0.0,0.0,0.0,0.0,0.0,0.0,0.0,0.0,0.0,0.0,0.0,0.0,0.0,-0.6166,-0.6703,-0.7101,-0.7076,-0.7871,-0.8336,-0.8191,-0.8038,-0.7743,-0.7261,0.0,0.0,0.0,0.0,0.0,0.0,0.0,0.0,0.0,0.0,0.0,0.0,0.0,0.0,0.0,0.0,0.0,0.0,0.0,0.0,0.0,0.0,0.0,0.0,0.0,0.0,0.0,0.0,0.0,0.0,0.0,0.0,0.0,0.0,0.0,0.0,0.0,0.0,0.0,0.0,0.0,0.0,0.0,0.0,0.0,0.0,0.0,0.0,0.0,0.0,0.0,0.0,0.0,0.0,0.0,0.0,0.0,0.0,0.0,0.0,0.0,0.0,0.0,0.0,0.0,0.0,0.0,0.0,0.0,0.0,0.0,0.0,0.0,0.0,0.0,0.0,0.0,0.0,0.0,0.0,0.0,0.0,0.0,0.0,0.0,0.0,0.0,0.0,0.0,0.0,0.0,0.0,0.0,0.0,0.0,0.0,0.0,0.0,0.0,0.0,0.0,0.0,-0.7333,-0.7875,-0.8248,-0.8248,-0.8238,-0.817,-0.7982,-0.7865,-0.7648,-0.7366,0.0,0.0,0.0,0.0,0.0,0.0,0.0,0.0,0.0,0.0,0.0,0.0,0.0,0.0,0.0,0.0,0.0,0.0,0.0,0.0,0.0,0.0,0.0,0.0,0.0,0.0,0.0,0.0,0.0,0.0,0.0,0.0,0.0,0.0,0.0,0.0,0.0,0.0,0.0,0.0,0.0,0.0,0.0,0.0,0.0,0.0,0.0,0.0,0.0,0.0,0.0,0.0,0.0,0.0,0.0,0.0,0.0,0.0,0.0,0.0,-0.1982,-0.3192,0.0,0.0,0.0,0.0,0.0,0.0,0.0,0.0,0.0,0.0,0.0,0.0,0.0,0.0,0.0,0.0,0.0,0.0,0.0,0.0,0.0,0.0,0.0,0.0,0.0,0.0,0.0,0.0,0.0,0.0,0.0,0.0,0.0,0.0,0.0,0.0,0.0,0.0,0.0,0.0,-0.7139,-0.7668,-0.8039,-0.8039,-0.798,-0.7896,-0.7862,-0.7617,-0.7387,-0.7156,-0.6912,0.0,0.0,0.0,0.0,0.0,0.0,0.0,0.0,0.0,0.0,0.0,0.0,0.0,0.0,0.0,0.0,0.0,0.0,0.0,0.0,0.0,0.0,0.0,0.0,0.0,0.0,0.0,0.0,0.0,0.0,0.0,0.0,0.0,0.0,0.0,0.0,0.0,0.0,0.0,0.0,0.0,0.0,0.0,0.0,0.0,0.0,0.0,0.0,0.0,0.0,0.0,0.0,0.0,0.0,0.0,0.0,0.0,0.0,0.0,-0.1433,-0.2369,0.0,0.0,0.0,0.0,0.0,0.0,0.0,0.0,0.0,0.0,0.0,0.0,0.0,0.0,0.0,0.0,0.0,0.0,0.0,0.0,0.0,0.0,0.0,0.0,0.0,0.0,0.0,0.0,0.0,0.0,0.0,0.0,0.0,0.0,0.0,0.0,0.0,0.0,0.0,0.0,-0.7241,-0.7665,-0.7961,-0.7887,-0.7858,-0.7784,-0.7716,-0.7502,-0.7336,-0.7255,-0.6973,0.0,0.0,0.0,0.0,0.0,0.0,0.0,0.0,0.0,0.0,0.0,0.0,0.0,0.0,0.0,0.0,0.0,0.0,0.0,0.0,0.0,0.0,0.0,0.0,0.0,0.0,0.0,0.0,0.0,0.0,0.0,0.0,0.0,0.0,0.0,0.0,0.0,0.0,0.0,0.0,0.0,0.0,0.0,0.0,0.0,0.0,0.0,0.0,0.0,0.0,0.0,0.0,0.0,0.0,0.0,0.0,0.0,0.0,-0.0055,-0.1189,-0.1783,-0.2178,-0.4644,0.0,0.0,0.0,0.0,0.0,0.0,0.0,0.0,0.0,0.0,0.0,0.0,0.0,0.0,0.0,0.0,0.0,0.0,0.0,0.0,0.0,0.0,0.0,0.0,-0.5953,-0.6324,-0.7354,0.0,0.0,0.0,0.0,0.0,0.0,0.0,0.0,0.0,0.0,0.0,-0.7402,-0.776,-0.7931,-0.7828,-0.7787,-0.7716,-0.757,-0.7417,-0.7329,-0.7329,-0.7078,-0.6829,0.0,0.0,0.0,0.0,0.0,0.0,0.0,0.0,0.0,0.0,0.0,0.0,0.0,0.0,0.0,0.0,0.0,0.0,0.0,0.0,0.0,0.0,0.0,0.0,0.0,0.0,0.0,0.0,0.0,0.0,0.0,0.0,0.6268,0.5941,0.0,0.0,0.0,0.0,0.0,0.0,0.0,0.0,0.0,0.0,0.0,0.0,0.0,0.0,0.0,0.0,0.0,0.0,0.0,0.0,0.0,0.0,0.0,0.0,-0.0167,0.0,-0.2127,-0.3741,0.0,0.0,0.0,0.0,0.0,0.0,0.0,0.0,0.0,0.0,0.0,0.0,0.0,0.0,0.0,0.0,0.0,0.0,0.0,0.0,0.0,0.0,-0.4758,-0.5939,-0.6272,-0.661,0.0,-0.7828,-0.7495,-0.7343,-0.7204,0.0,0.0,0.0,0.0,0.0,0.0,0.0,-0.7415,-0.776,-0.7931,-0.7828,-0.7699,-0.7567,-0.746,-0.7258,-0.7125,-0.7125,-0.6974,-0.6876,-0.6856,-0.6624,0.0,0.0,0.0,0.0,0.0,0.0,0.0,0.0,0.0,0.0,0.0,0.0,0.0,0.0,0.0,0.0,0.0,0.0,0.0,0.0,0.0,0.0,0.0,0.0,0.0,0.0,0.0,0.0,0.0,0.9072,0.7162,0.6597,0.6725,0.6757,0.0,0.0,0.0,0.0,0.0,0.0,0.0,0.0,0.0,0.1265,0.0461,0.0,0.0,0.0,0.0,0.0,0.0,0.0,0.0,0.0,0.0,0.0,0.0,-0.0335,-0.0996,-0.2409,-0.3796,-0.5264,0.0,0.0,0.0,0.0,-0.8387,-0.8411,-0.856,-0.8611,-0.8584,-0.8438,0.0,0.0,0.0,0.0,0.0,0.0,0.0,0.0,0.0,0.0,-0.4281,-0.4053,-0.4575,-0.5499,-0.6855,-0.7604,-0.7906,0.0,-0.7563,-0.7371,-0.7058,0.0,0.0,0.0,0.0,-0.7529,-0.7607,-0.779,-0.7855,-0.7706,-0.756,-0.7411,-0.7255,-0.7136,-0.7095,-0.7095,-0.7038,-0.6967,-0.6889,-0.68,-0.6617,0.0,0.0,0.0,0.0,0.0,0.0,0.0,0.0,0.0,0.0,0.0,0.0,0.0,0.0,0.0,0.0,0.0,0.0,0.0,0.0,0.0,0.0,0.0,0.0,0.0,0.0,0.0,0.0,0.9954,0.8219,0.7217,0.8169,0.8407,0.0,0.0,0.0,0.0,0.0,0.0,0.6102,0.3894,0.2384,0.1655,0.0592,0.0,0.0,0.0,0.0,0.0,0.0,0.0,0.0,0.0,0.0,0.0,0.0,0.0,-0.0112,-0.1932,-0.3292,-0.4433,-0.6231,-0.7575,-0.854,-0.854,-0.854,-0.8564,-0.8716,-0.8767,-0.875,-0.8635,-0.8547,-0.8448,-0.8265,0.0,0.0,0.0,0.0,-0.6911,-0.48,-0.399,-0.3542,-0.2945,-0.3463,-0.4532,-0.5967,-0.7304,-0.8143,0.0,-0.7868,-0.775,-0.7331,0.0,0.0,0.0,0.0,-0.7692,-0.7797,-0.7845,-0.7801,-0.7617,-0.7499,-0.7353,-0.7112,-0.7095,-0.7095,-0.7095,-0.7095,-0.7048,-0.6943,-0.694,-0.6858,-0.6593,0.0,0.0,0.0,0.0,0.0,0.0,0.0,0.0,0.0,0.0,0.0,0.0,0.0,0.0,0.0,0.0,0.0,0.0,0.0,0.0,0.0,0.0,0.0,0.0,0.0,0.0,0.0,0.0,0.0,0.8796,0.9117,0.0,0.0,0.0,0.0,0.9187,0.9202,0.7942,0.4969,0.4625,0.3188,0.0181,0.006,0.0,0.0,0.0,0.0,0.0,0.0,0.0,0.0,0.0,0.0,0.0,0.0,0.0,-0.0224,-0.3183,-0.4409,-0.4734,-0.7497,-0.8646,-0.8699,-0.8699,-0.8699,-0.872,-0.8817,-0.8871,-0.8871,-0.8861,-0.872,-0.8506,-0.8635,-0.7475,0.0,0.0,-0.5541,-0.4422,-0.45,-0.3421,-0.2673,-0.4032,-0.4194,-0.4448,-0.5985,-0.7178,-0.7995,0.0,-0.7978,-0.7924,-0.7804,0.0,-0.774,-0.7597,-0.7702,-0.7801,-0.7811,-0.7887,-0.787,-0.7631,-0.7594,-0.7468,-0.7122,-0.7095,-0.7095,-0.7095,-0.7095,-0.7092,-0.7085,-0.7085,-0.7014,-0.6866,-0.662,0.0,0.0,0.0,0.0,0.0,0.0,0.0,0.0,0.0,0.0,0.0,0.0,0.0,0.0,0.0,0.0,0.0,0.0,0.0,0.0,0.0,0.0,0.0,0.0,0.0,0.0,0.0,0.0,0.9059,0.9256,0.0,0.9235,0.932,0.9357,0.9303,0.8432,0.6961,0.4822,0.3789,0.2247,0.0061,0.0,0.0,0.0,0.0,0.0,0.0,0.0,0.0,0.0,0.0,0.0,0.0,0.0,-0.056,-0.1566,-0.3634,-0.4526,-0.4691,-0.6656,-0.7968,-0.8804,-0.8804,-0.8804,-0.8811,-0.8865,-0.8885,-0.8885,-0.8885,-0.8811,-0.8784,-0.8842,-0.7738,-0.6647,-0.7722,-0.6971,-0.5819,-0.591,-0.5459,-0.4831,-0.4404,-0.4783,-0.5455,-0.5999,-0.7115,-0.7988,-0.7988,-0.7988,-0.7941,-0.7838,-0.7892,-0.786,-0.7756,-0.7862,-0.7911,-0.7911,-0.787,-0.7818,-0.7621,-0.7512,-0.7366,-0.7112,-0.7095,-0.7095,-0.7095,-0.7095,-0.7095,-0.7095,-0.7095,-0.7031,-0.6889,-0.6048,-0.5312,0.0,0.0,0.0,0.0,0.0,0.0,0.0,0.0,0.0,0.0,0.0,0.0,0.0,0.0,0.0,0.0,0.0,0.0,0.0,0.0,0.0,0.0,0.0,0.0,0.0,0.9628,0.9045,0.92,0.9378,0.951,0.9462,0.95,0.953,0.953,0.8596,0.7075,0.4902,0.3852,0.2278,0.0062,0.0,0.0,0.0,0.0,0.0,0.0,0.0,0.0,0.0,0.0,0.0,0.0,0.0,-0.084,-0.2347,-0.3855,-0.4804,-0.5363,-0.6869,-0.8042,-0.8885,-0.8885,-0.8885,-0.8885,-0.8885,-0.8885,-0.8885,-0.8885,-0.8885,-0.8885,-0.8885,-0.7873,-0.6924,-0.7875,-0.7426,-0.6692,-0.6654,-0.6557,-0.6229,-0.517,-0.5442,-0.602,-0.5994,-0.7033,-0.7988,-0.7988,-0.7988,-0.7958,-0.7906,-0.7924,-0.7955,-0.7902,-0.7924,-0.7839,-0.7385,-0.7254,-0.6952,-0.6387,-0.659,-0.6734,-0.6553,-0.6856,-0.7095,-0.7095,-0.7095,-0.7095,-0.7095,-0.6737,-0.6474,-0.639,-0.4817,-0.3867,-0.364,0.0,0.0,0.0,0.0,0.0,0.0,0.0,0.0,0.0,0.0,0.0,0.0,0.0,0.0,0.0,0.0,0.0,0.0,0.0,0.0,0.0,0.0,0.0,1.063,0.9794,0.9217,0.9224,0.9554,0.9768,0.9629,0.9741,0.9822,0.9822,0.9822,0.8346,0.51,0.4916,0.3383,0.0123,0.0,0.0,0.0,0.0,0.0,0.0,0.0,0.0,0.0,0.0,0.0,0.0,0.0,-0.084,-0.2403,-0.3911,-0.5419,-0.6924,-0.8322,-0.8885,-0.8885,-0.8885,-0.8885,-0.8885,-0.8885,-0.8885,-0.8885,-0.8885,-0.8885,-0.8885,-0.8885,-0.7873,-0.6702,-0.6702,-0.6702,-0.6677,-0.6565,-0.6554,-0.6542,-0.6378,-0.6212,-0.6079,-0.6079,-0.7083,-0.7988,-0.7988,-0.7988,-0.7988,-0.7988,-0.7988,-0.7988,-0.7988,-0.7988,0.0,-0.6179,-0.5979,-0.5388,-0.3967,-0.4892,-0.5548,-0.5399,-0.646,-0.7095,-0.7095,-0.7095,-0.7095,-0.7095,-0.5996,-0.5377,-0.5267,-0.2976,-0.1655,-0.1505,0.0,0.0,0.0,0.0,0.0,0.0,0.0,0.0,0.0,0.0,0.0,0.0,0.0,0.0,0.0,0.0,0.0,0.0,0.0,0.0,0.0,1.0465,0.9284,0.9403,0.9356,0.9361,0.9469,0.9683,0.9805,0.9768,0.9798,0.9822,0.9822,0.9822,0.8346,0.51,0.4916,0.3383,0.0123,0.0,0.0,0.0,0.0,0.0,0.0,0.0,0.0,0.0,0.0,0.0,0.0,0.0,-0.1456,-0.3911,-0.4303,-0.5975,-0.8322,-0.8716,-0.8885,-0.8885,-0.8885,-0.8885,-0.8885,-0.8885,-0.8885,-0.8885,-0.8885,-0.8885,-0.8885,-0.8885,-0.7873,-0.6702,-0.6702,-0.6702,-0.6692,-0.6661,-0.7319,-0.7941,-0.79,-0.7658,-0.7434,-0.7434,-0.7739,-0.7988,-0.7988,-0.7988,-0.7988,-0.7988,-0.7988,-0.7988,-0.7988,-0.7182,0.0,-0.6029,-0.5172,-0.4338,-0.3868,-0.4892,-0.5548,-0.5399,-0.646,-0.7095,-0.7095,-0.7095,-0.7095,-0.7095,-0.5992,-0.4572,-0.2816,-0.1268,-0.0043,0.0,0.0,0.0,0.0,0.0,0.0,0.0,0.0,0.0,0.0,0.0,0.0,0.0,0.0,0.0,0.0,0.0,0.0,0.0,0.0,0.0,0.0,1.0634,0.895,0.9103,0.9273,0.9439,0.9591,0.9734,0.9822,0.9822,0.9822,0.9822,0.9822,0.9822,0.8346,0.51,0.4916,0.3383,0.0123,0.0,0.0,0.0,0.0,0.0,0.0,0.0,0.0,0.0,0.0,0.0,0.0,0.0,-0.1735,-0.4526,-0.4526,-0.6255,0.0,0.0,0.0,0.0,0.0,-0.8885,-0.8885,-0.8885,-0.8885,-0.8885,-0.8885,-0.8885,-0.8885,-0.8885,-0.8322,-0.7595,-0.7595,-0.7595,-0.7569,-0.746,-0.7968,-0.8448,-0.8326,-0.8163,-0.7988,-0.7988,-0.7988,-0.7988,-0.7988,-0.7988,0.0,-0.7988,-0.7988,-0.7988,-0.7988,-0.6883,-0.5777,-0.5222,-0.3967,-0.2903,-0.2281,-0.3763,-0.4718,-0.4669,-0.6172,0.0,0.0,0.0,-0.6669,-0.5684,-0.5019,0.0,0.0,0.0,0.0,0.0,0.0,0.0,0.0,0.0216,0.0,0.0,0.0,0.0,0.0,0.0,0.0,0.0,0.0,0.0,0.0,0.0,0.0,0.0,0.0,0.0,0.0,1.0867,0.9289,0.9384,0.9408,0.9462,0.9615,0.9744,0.9822,0.9822,0.9822,0.9822,0.9822,0.9822,0.8346,0.51,0.0,0.0,0.0,0.0,0.0,0.0,0.0,0.0,0.0,0.0,0.0,0.0,0.0,0.0,0.0,-0.0168,-0.1847,-0.4528,-0.4693,-0.6366,-0.8885,-0.8885,-0.8885,-0.8885,-0.8885,-0.8885,-0.8885,-0.8885,0.0,0.0,-0.8885,-0.8885,-0.8885,-0.8885,-0.8885,-0.8881,-0.8716,-0.8771,-0.8817,-0.8368,-0.8387,-0.8411,-0.8133,-0.8002,-0.7988,-0.7988,-0.7988,-0.7988,-0.7988,-0.7988,-0.7988,-0.7988,-0.7988,-0.7988,-0.7988,-0.6731,-0.5322,-0.4166,-0.2715,-0.131,-0.0151,0.0,0.0,-0.3607,-0.5756,-0.7095,-0.7095,-0.7095,-0.6063,-0.3696,-0.3581,-0.1901,0.1741,0.195,0.2592,0.3792,0.2598,0.1997,0.199,0.0624,0.0,0.0,0.0,0.0,0.0,0.0,0.0,0.0,0.0,0.0,0.0,0.0,0.0,0.0,0.0,0.0,1.3618,1.1277,0.9391,0.9544,0.9564,0.9618,0.9764,0.9805,0.9822,0.9822,0.9822,0.9822,0.9822,0.9822,0.8346,0.51,0.4916,0.3383,0.0123,0.0,0.0,0.0,0.0,0.0,0.0,0.0,0.0,0.0,0.0,0.0,-0.0056,-0.1231,-0.2795,-0.4582,-0.5808,-0.7315,-0.8885,-0.8885,-0.8885,-0.8885,-0.8885,-0.8885,-0.8885,-0.8885,-0.8885,-0.8885,-0.8885,-0.8885,-0.8885,-0.8885,-0.8885,0.0,-0.7482,-0.7986,-0.8562,-0.724,-0.7715,-0.8438,-0.8265,-0.813,-0.7988,-0.7988,-0.7988,-0.7988,-0.7988,-0.7988,-0.7988,-0.7988,-0.7988,-0.7988,-0.7988,-0.5924,-0.4318,-0.4016,-0.1862,-0.0303,-0.0051,-0.214,-0.3607,-0.3607,-0.5756,-0.7095,-0.7095,-0.7095,-0.6057,-0.3684,-0.3607,-0.1914,0.1734,0.2764,0.3838,0.5045,0.3859,0.3239,0.3208,0.1016,0.0,0.0,0.0,0.0,0.0,0.0,0.0,0.0,0.0,0.0,0.0,0.0,1.3143,1.4239,0.0,1.2333,1.2648,1.0879,0.952,0.9598,0.9673,0.9741,0.9812,0.9822,0.9822,0.9822,0.9822,0.9822,0.9822,0.9822,0.8346,0.51,0.4916,0.3383,0.0123,0.0,0.0,0.0,0.0,0.0,0.0,0.0,0.0,0.0,0.0,-0.0392,-0.1119,-0.1901,-0.3518,-0.5697,-0.7204,-0.8211,-0.8885,-0.8885,-0.8885,-0.8885,-0.8885,-0.8885,-0.8885,-0.8885,-0.8432,-0.7817,-0.7817,-0.7315,-0.6702,-0.6702,-0.7204,-0.7651,-0.6924,-0.7714,-0.8624,-0.7716,-0.7954,-0.834,-0.8191,-0.8096,-0.7988,-0.7988,-0.7988,-0.7988,-0.7988,-0.7988,-0.7988,-0.7988,-0.7988,-0.7988,-0.7988,-0.5722,-0.4016,-0.4016,-0.1661,0.0,0.0,-0.2176,-0.3592,-0.3603,-0.5769,-0.7095,-0.7095,-0.7095,-0.6065,-0.3703,-0.3614,-0.1604,0.2635,0.3303,0.4529,0.6394,0.4534,0.3648,0.366,0.1147,0.0,0.0,0.0,0.0,0.0,0.0,0.0,0.0,0.0,0.8828,0.9877,1.0616,1.1502,1.2901,1.223,1.1508,1.1636,1.0498,0.9649,0.9649,0.9747,0.9822,0.9822,0.9822,0.9822,0.9822,0.9822,0.9822,0.9822,0.9511,0.8039,0.5039,0.461,0.3076,0.0123,0.0,0.0,0.0,0.0,0.0,0.0,0.0,0.0,0.0,0.0,-0.0784,-0.2235,-0.2793,-0.4632,-0.7204,-0.8432,-0.8885,-0.8885,-0.8885,-0.8885,-0.8881,-0.8602,-0.8491,-0.8436,-0.8156,-0.726,-0.6255,-0.6255,-0.5475,-0.4528,-0.4862,-0.5753,-0.6753,-0.7008,-0.7868,-0.8669,-0.8486,-0.8357,-0.8231,-0.8025,-0.7988,-0.7988,-0.7988,-0.7988,-0.7988,-0.7988,-0.7988,-0.7988,-0.7988,-0.7789,-0.7587,-0.7587,-0.5572,-0.3915,-0.3667,-0.1506,-0.01,-0.0344,-0.23,-0.379,-0.4263,-0.5992,-0.7095,-0.7095,-0.7095,-0.6065,-0.3703,-0.3614,-0.1338,0.3547,0.3637,0.4897,0.7414,0.488,0.3696,0.3715,0.1181,0.0,0.4304,0.7217,0.8996,0.8353,0.826,0.8076,0.0,0.0,0.8399,0.7375,0.9277,1.127,1.185,1.1704,1.1649,1.2039,1.0801,0.9798,0.9798,0.9812,0.9822,0.9822,0.9822,0.9822,0.9822,0.9822,0.9822,0.9822,0.8465,0.6872,0.4977,0.3568,0.191,0.0062,0.0,0.0,0.0,0.0,0.0,0.0,0.0,0.0,0.0,0.0,-0.0784,-0.2347,-0.5023,-0.7146,-0.866,-0.8826,-0.8885,-0.8885,-0.8885,-0.8885,-0.8716,-0.7426,-0.6924,-0.6755,-0.5475,-0.4862,-0.4751,-0.4751,-0.4639,-0.4751,-0.6033,-0.6589,-0.6959,-0.8116,-0.8561,-0.8645,-0.8367,-0.8333,-0.8231,-0.8025,-0.7988,-0.7988,-0.7988,-0.7988,-0.7988,-0.7988,-0.7988,-0.7988,-0.7988,-0.7033,-0.6229,-0.6229,-0.497,-0.3565,-0.2363,-0.0944,-0.0394,-0.1471,-0.2791,-0.4441,-0.6548,-0.6969,-0.7095,-0.7095,-0.7095,-0.6065,-0.3703,-0.3614,-0.1257,0.367,0.3763,0.5051,0.7573,0.5006,0.3796,0.3717,0.1197,0.0,0.741,0.9268,0.9925,0.8704,0.8509,0.8521,0.7959,0.8381,0.8639,0.8088,0.9047,1.0074,1.0367,1.0371,1.0454,0.0,1.024,0.9822,0.9822,0.9822,0.9822,0.9822,0.8958,0.8775,0.9697,0.9822,0.939,0.8465,0.7789,0.6259,0.3629,0.2893,0.1718,0.0061,0.0,0.0,0.0,0.0,0.0,0.0,0.0,0.0,0.0,0.0,-0.1288,-0.3688,-0.67,-0.8322,-0.8885,-0.8885,-0.8885,-0.8885,-0.8885,-0.8885,-0.8716,-0.726,-0.6702,-0.6478,-0.5027,-0.3913,-0.3185,-0.3185,-0.3185,-0.3296,-0.3908,-0.5303,-0.679,-0.7274,-0.7993,-0.853,-0.8323,-0.8204,-0.8119,-0.8005,-0.7988,-0.7988,-0.7988,-0.7988,-0.7988,-0.7988,-0.7988,-0.7988,-0.7988,-0.6883,-0.5727,-0.497,-0.3717,-0.2653,-0.2082,-0.149,-0.1874,-0.3804,-0.4402,-0.5315,-0.6966,-0.7095,-0.7095,-0.7095,-0.647,-0.5354,-0.3659,-0.2948,-0.0582,0.3617,0.3753,0.5069,0.76,0.5034,0.3832,0.3872,0.1205,0.0,0.955,1.0213,1.0054,0.8754,0.8635,0.8794,0.8733,0.8798,0.8821,0.8821,0.8957,0.9146,0.9283,0.9442,0.9595,0.9741,0.9795,0.9636,0.9204,0.9143,0.8961,0.8529,0.7423,0.7179,0.8346,0.8836,0.865,0.7482,0.6994,0.5464,0.2647,0.2033,0.1224,0.006,0.0,0.0,0.0,0.0,0.0,0.0,0.0,0.0,-0.0056,-0.084,-0.2405,-0.4639,-0.7595,-0.8885,-0.8885,-0.8885,-0.8885,-0.8885,-0.8885,-0.8657,-0.8097,-0.6647,-0.6089,-0.5808,-0.3913,-0.2516,-0.1566,-0.1566,-0.1845,-0.2291,-0.2682,-0.4634,-0.6732,-0.7054,-0.7793,-0.8448,-0.8357,-0.8153,-0.7988,-0.7988,-0.7988,-0.7988,-0.7988,-0.7988,-0.7988,-0.7988,-0.7988,-0.7988,-0.7988,-0.6578,-0.5122,-0.4166,-0.2553,-0.1442,-0.1471,-0.207,-0.3267,-0.5339,-0.5802,-0.6245,-0.7054,-0.7095,-0.7095,-0.7095,-0.6027,-0.4865,-0.3659,-0.2458,-0.0225,0.3089,0.3597,0.4938,0.7142,0.4937,0.3915,0.3915,0.126,0.0,1.0451,1.0209,0.9953,0.8938,0.8706,0.8716,0.8713,0.8713,0.8716,0.8716,0.872,0.8811,0.9163,0.9344,0.9439,0.9591,0.973,0.9265,0.7667,0.7482,0.6872,0.5223,0.4977,0.4977,0.0,0.6505,0.7482,0.7421,0.5894,0.4242,0.2585,0.0986,0.0061,0.0,0.0,0.0,0.0,0.0,0.0,0.0,0.0,0.0,-0.0112,-0.3019,-0.4416,-0.4639,-0.7595,-0.8885,-0.8885,-0.8885,-0.8885,-0.8885,-0.8885,-0.8042,-0.6589,-0.5083,-0.4582,-0.4136,-0.1176,-0.0112,-0.0056,-0.0056,-0.1008,-0.2459,-0.3967,-0.5475,-0.6956,-0.8259,-0.8548,-0.8448,-0.8357,-0.8153,-0.7988,-0.7988,-0.7988,-0.7988,-0.7988,-0.7988,-0.7988,-0.7988,-0.7988,-0.7988,-0.7988,-0.5822,-0.4066,-0.4016,-0.1735,-0.0049,-0.0049,-0.2215,-0.4167,-0.5302,-0.6554,-0.7257,-0.7109,-0.7095,-0.7095,-0.7095,-0.6027,-0.4865,-0.3659,-0.2458,-0.0593,0.1994,0.3321,0.4689,0.6069,0.4664,0.4014,0.3915,0.126,0.0,1.0761,1.0251,1.0071,0.8846,0.8635,0.8682,0.8581,0.856,0.856,0.856,0.8638,0.8771,0.8974,0.913,0.9313,0.9568,0.868,0.7886,0.7472,0.6434,0.5524,0.4984,0.3971,0.0,0.0,0.0,0.0,0.4237,0.3655,0.2557,0.0924,0.0306,0.0,0.0,0.0,0.0,0.0,0.0,0.0,0.0,0.0,0.0,-0.0112,-0.3131,-0.4526,-0.4639,-0.7595,-0.8885,-0.8885,-0.8885,-0.8885,-0.8885,-0.8885,-0.7986,-0.6533,-0.5027,-0.3855,-0.2683,-0.0672,0.0,0.0,0.0,-0.1679,-0.3799,-0.4359,-0.6197,-0.8238,-0.8588,-0.8601,-0.8448,-0.8357,-0.8153,-0.7988,-0.7988,-0.7988,-0.7988,-0.7988,-0.7988,-0.7988,-0.7988,-0.7988,-0.7988,-0.7988,-0.5772,-0.3416,-0.1611,-0.0596,-0.0638,-0.2447,-0.3231,-0.4532,-0.677,-0.7135,-0.7238,-0.7288,-0.648,-0.5983,-0.5983,-0.4109,-0.2816,-0.2413,-0.1254,0.018,0.1828,0.2392,0.33,0.4548,0.3278,0.2665,0.2614,0.0857,0.0,1.0795,0.9991,0.9545,0.8828,0.8679,0.8669,0.8516,0.8442,0.8408,0.8408,0.8486,0.8615,0.8818,0.8977,0.9174,0.9479,0.8192,0.695,0.6537,0.5093,0.3797,0.3227,0.2244,0.1992,0.0,0.0,0.0,0.2521,0.2501,0.1768,0.0062,0.0,0.0,0.0,0.0,0.0,0.0,0.0,0.0,0.0,0.0,0.0,-0.0056,-0.2573,-0.3688,-0.3855,-0.6811,-0.8097,-0.8156,-0.866,-0.8885,-0.8885,-0.8885,-0.7651,-0.5808,-0.4862,-0.3186,-0.1287,-0.0336,0.0,0.0,0.0,-0.2014,-0.4526,-0.4526,-0.6533,-0.8861,-0.8818,-0.8642,-0.8462,-0.837,-0.7832,-0.7385,-0.7889,-0.7637,-0.7434,-0.7889,-0.7988,-0.7988,-0.7988,-0.7988,-0.7839,-0.7385,-0.507,-0.2559,-0.035,0.0,-0.0791,-0.2938,-0.3539,-0.4405,-0.6122,-0.6907,-0.7005,-0.6122,-0.5687,-0.5265,-0.4779,-0.2904,-0.179,-0.179,-0.0628,0.036,0.1132,0.1731,0.2386,0.3165,0.2379,0.2013,0.1962,0.0605,0.0,1.06,0.941,0.8554,0.8797,0.8811,0.8659,0.8506,0.836,0.831,0.831,0.8316,0.8357,0.0,0.0,0.8966,0.9205,0.7948,0.6482,0.5,0.3418,0.1801,0.0,0.0,0.0,0.0,0.0,0.0,0.2276,0.0,0.1662,0.0062,0.0,0.0,0.0,0.0,0.0,0.0,0.0,0.0,0.0,0.0,0.0,-0.0056,-0.151,-0.2235,-0.2458,-0.5415,-0.6758,-0.6924,-0.8322,-0.8885,-0.8885,-0.8885,-0.7149,-0.4582,-0.4528,-0.2628,-0.0112,0.0,0.0,0.0,0.0,-0.2014,-0.4526,-0.4526,-0.6533,-0.8885,-0.8885,-0.8716,-0.8482,-0.843,-0.7226,-0.6331,-0.7587,-0.6933,-0.6379,-0.7686,-0.7988,-0.7988,-0.7988,-0.7988,-0.7537,-0.6129,-0.3768,-0.1602,-0.0197,0.0,-0.0451,-0.1669,-0.3032,-0.3834,-0.362,-0.5981,-0.6485,-0.3844,-0.4708,-0.4849,-0.3582,-0.2373,-0.1703,-0.1701,-0.0628,0.0,0.0,0.1272,0.1921,0.1907,0.1895,0.1913,0.1862,0.0605,0.0,0.9272,0.8741,0.8526,0.872,0.8655,0.8503,0.8357,0.8208,0.8099,0.8099,0.8191,0.8344,0.0,0.0,0.0,0.7553,0.6123,0.0,0.3315,0.1712,0.0,0.0064,0.0,0.0,0.0,0.0,0.0,0.0,0.061,0.0427,0.0,0.0,0.0,0.0,0.0,0.0,0.0,0.0,0.0,0.0,0.0,0.0,-0.0056,-0.151,-0.285,-0.4023,-0.5864,-0.7315,-0.8377,-0.8771,-0.8885,-0.8885,-0.8885,-0.7762,-0.6031,-0.4916,-0.3297,-0.1454,-0.0392,0.0,0.0,0.0,-0.2014,-0.4526,-0.4526,-0.6533,-0.8885,-0.8885,-0.8716,-0.8269,-0.7261,-0.6505,-0.6079,-0.6431,-0.6232,-0.6379,-0.7686,-0.7988,-0.7988,-0.7988,-0.7988,-0.7232,-0.4918,-0.3967,-0.271,-0.0351,0.0,-0.0449,-0.1783,-0.2185,-0.2736,-0.3788,-0.4374,-0.4405,-0.3802,-0.3139,-0.262,-0.2291,-0.1146,-0.0456,-0.0449,-0.018,0.0,0.0,0.033,0.0529,0.049,0.05,0.0504,0.0504,0.0151,0.0,0.8779,0.853,0.8618,0.8771,0.8645,0.8462,0.8381,0.8194,0.7988,0.7988,0.8109,0.8191,0.831,0.8459,0.8215,0.0,0.0,0.0,0.2691,0.0442,-0.108,0.0,-0.172,0.0,-0.1187,-0.1116,-0.0802,0.0,0.0,0.0,0.0,0.0,0.0,0.0,0.0,0.0,0.0,0.0,0.0,0.0,0.0,0.0,-0.0056,-0.084,-0.2069,-0.3576,0.0,-0.6589,-0.7986,-0.8657,-0.8885,-0.8826,-0.8208,-0.7426,-0.6422,-0.43,-0.2961,-0.2012,-0.0504,0.0,0.0,0.0,-0.2014,-0.4526,-0.4526,-0.6533,-0.8885,-0.8885,-0.8281,-0.7475,-0.6679,-0.5833,-0.5272,-0.5879,-0.5979,-0.6379,-0.7686,-0.7988,-0.7988,-0.7988,-0.7537,-0.6628,-0.5122,-0.3917,-0.2614,-0.1109,-0.0353,-0.025,-0.1017,-0.1568,-0.1976,-0.2204,-0.317,-0.3313,-0.225,-0.1987,-0.1619,-0.1065,-0.037,0.0,0.0,0.0,0.0,0.0,0.0,0.0,0.0,0.0,0.0,0.0,0.0,0.0,0.8696,0.8594,0.8747,0.8844,0.8561,0.8292,0.8433,0.8112,0.7762,0.7945,0.0,0.8029,0.8214,0.8374,0.8037,0.6586,0.0,0.3982,0.2371,-0.0496,-0.2489,-0.2499,-0.3951,-0.4255,-0.2655,-0.2527,-0.1785,-0.0123,0.0,0.0,0.0,0.0,0.0,0.0,0.0,0.0,0.0,0.0,0.0,0.0,0.0,0.0,0.0,0.0,-0.0784,-0.2291,-0.3855,-0.5361,-0.6813,-0.8266,-0.8885,-0.8771,-0.726,-0.6702,-0.6308,-0.3295,-0.218,-0.2012,-0.0504,0.0,0.0,0.0,-0.2014,-0.4526,-0.4526,-0.6533,-0.8885,-0.8885,-0.7735,-0.6466,-0.6255,-0.5109,-0.4318,-0.5475,-0.5879,-0.6379,-0.7686,-0.7988,-0.7988,-0.7988,-0.7083,-0.6229,-0.6029,-0.3919,-0.2213,-0.2013,-0.0855,0.0,0.0,-0.0996,-0.13,-0.0148,-0.209,-0.2547,-0.0197,-0.1082,-0.1258,-0.0093,0.0,0.0,0.0,0.0,0.0,0.0,0.0,0.0,0.0,0.0,0.0,0.0,0.0,-0.0101,0.8226,0.8594,0.8747,0.8844,0.7865,0.7121,0.8243,0.741,0.0,0.0,0.7988,0.7998,0.8025,0.8299,0.7628,0.4903,0.4499,0.3566,0.08,-0.1234,-0.2489,0.0,-0.3921,-0.4255,-0.2634,-0.2481,0.0,0.0,0.0,0.0,0.0,0.0,0.0,0.0,0.0,0.0,0.0,0.0,0.0,0.0,0.0,0.0,0.0,0.0,-0.0784,-0.2291,-0.3855,0.0,-0.6813,-0.8266,-0.8885,-0.8771,-0.726,-0.6702,-0.6308,-0.3295,-0.218,-0.2012,-0.0504,0.0,0.0,0.0,-0.2014,-0.4526,-0.4526,-0.6533,-0.8885,-0.8885,-0.7735,-0.6255,-0.5145,-0.444,-0.4066,-0.4268,-0.5172,-0.6379,-0.7686,-0.7988,-0.7988,-0.7988,-0.7789,-0.7285,-0.6179,-0.472,-0.3265,-0.2163,-0.0846,0.0,0.0,-0.02,-0.0251,-0.0049,-0.0399,-0.0504,-0.005,-0.0201,-0.0249,0.0,0.0,0.0,0.0,0.0,0.0,0.0,0.0,0.0,0.0,0.0,0.0,0.0,0.0,-0.0605,0.7244,0.811,0.8623,0.7913,0.7111,0.6444,0.628,0.0,0.0,0.0,0.7537,0.7988,0.7988,0.8282,0.0,0.4504,0.4287,0.3425,0.0424,-0.2191,-0.3748,-0.3733,-0.5946,-0.6452,0.0,-0.374,-0.2728,-0.0181,0.0,0.0,0.0,0.0,0.0,0.0,0.0,0.0,0.0,0.0,0.0,0.0,0.0,0.0,0.0,0.0,-0.0784,-0.2291,-0.3855,-0.5361,-0.6813,-0.8266,-0.8885,-0.866,-0.6422,-0.6031,-0.6253,-0.2459,-0.1566,-0.2012,-0.0504,0.0,0.0,0.0,-0.2014,-0.4526,-0.4526,-0.6533,-0.8885,-0.8885,-0.7735,-0.6361,-0.5725,-0.5317,-0.5022,-0.5022,-0.6077,-0.7235,-0.7839,-0.7988,-0.7988,-0.7988,-0.7988,-0.7789,-0.7132,-0.5927,-0.457,-0.3265,-0.1897,-0.0796,-0.01,0.0,0.0,0.0,0.0,0.0,0.0,0.0,0.0,0.0,0.0,0.0,0.0,0.0,0.0,0.0,0.0,0.0,0.0,0.0,0.0,0.0,0.0,-0.0706,0.6308,0.7234,0.7762,0.6924,0.6136,0.5333,0.4424,0.4932,0.0,0.5957,0.7083,0.7988,0.7988,0.8282,0.7524,0.0,0.4306,0.3453,0.0416,-0.2806,-0.4888,0.0,-0.7523,0.0,-0.5199,-0.4598,0.0,-0.0239,0.0,0.0,0.0,0.0,0.0,0.0,0.0,0.0,0.0,0.0,0.0,0.0,0.0,0.0,0.0,0.0,-0.0616,-0.1789,-0.3353,-0.486,-0.6366,-0.782,-0.8605,-0.8657,-0.5975,-0.5475,-0.5753,-0.1902,-0.1008,-0.1566,-0.0392,0.0,0.0,0.0,-0.2014,-0.4526,-0.4526,-0.6533,-0.8875,-0.8844,-0.7714,-0.6513,-0.6487,-0.6228,-0.6079,-0.6379,-0.7235,-0.7988,-0.7988,-0.7988,-0.7988,-0.7988,-0.7988,-0.7988,-0.7988,-0.6628,-0.5222,-0.4166,-0.2605,-0.1204,-0.0151,0.0,0.0,0.0,0.0,0.0,0.0,0.0,0.0,0.0,0.0,0.0,0.0,0.0,0.0,0.0,0.0,0.0,0.0,0.0,0.0,0.0,0.0,-0.0857,0.5778,0.5712,0.5196,0.6422,0.4628,0.2873,0.3955,0.0,0.4504,0.577,0.7083,0.7988,0.7988,0.8282,0.0,0.0,0.0,0.344,0.0403,-0.2856,-0.4909,-0.4874,0.0,0.0,-0.5061,-0.3549,-0.1963,-0.0116,0.0,0.0,0.0,0.0,0.0,0.0,0.0,0.0,0.0,0.0,0.0,0.0,0.0,0.0,0.0,0.0,-0.0056,-0.028,-0.179,-0.3296,0.0,-0.6311,-0.7706,-0.8716,-0.7146,-0.5753,-0.447,-0.2682,-0.1231,-0.0168,-0.0056,0.0,0.0,0.0,-0.2014,-0.4526,-0.4526,-0.6533,-0.8854,-0.8771,-0.7642,-0.6495,-0.6336,-0.6169,-0.6331,-0.7537,-0.7889,-0.7988,-0.7988,-0.7988,-0.7988,-0.7988,-0.7988,-0.7988,-0.7988,-0.5872,-0.4166,-0.4016,-0.1835,-0.0149,0.0,0.0,0.0,0.0,0.0,0.0,0.0,0.0,0.0,0.0,0.0,0.0,0.0,0.0,0.0,0.0,0.0,0.0,0.0,0.0,0.0,0.0,0.0,-0.136,0.361,0.4191,0.4414,0.4077,0.3072,0.2112,0.1738,0.0,0.3162,0.4517,0.5871,0.7059,0.8009,0.8343,0.7551,0.0,0.0,0.0,0.0401,-0.2018,-0.3446,-0.3475,-0.4888,0.0,0.0,0.0,-0.1815,-0.0114,0.0,0.0,0.0,0.0,0.0,0.0,0.0,0.0,0.0,0.0,0.0,0.0,0.0,0.0,0.0,0.0,0.0,-0.0056,-0.1566,-0.3073,0.0,-0.6089,-0.7595,-0.8657,-0.6311,-0.5027,-0.4191,-0.1791,-0.0504,0.0,0.0,0.0,0.0,0.0,-0.1399,-0.3296,-0.4247,-0.5919,-0.7735,-0.8479,-0.8222,-0.7654,-0.7522,-0.6774,-0.6129,-0.6681,-0.6783,-0.6783,-0.6783,-0.6783,-0.7033,-0.7839,-0.7335,-0.7033,-0.7839,-0.6429,-0.492,-0.4116,-0.2398,-0.09,-0.0101,0.0,0.0,0.0,0.0,0.0,0.0,0.0,0.0,0.0,0.0,0.0,0.0,0.0,0.0,0.0,0.0,0.0,0.0,0.0,0.0,0.0,0.0,-0.1461,0.2071,0.2661,0.3001,0.2345,0.1845,0.1282,0.0,0.1029,0.2398,0.3761,0.515,0.6562,0.8104,0.8131,0.7079,0.0,0.0,0.2919,0.0342,-0.143,-0.2486,0.0,0.0,-0.3751,0.0,-0.2046,-0.1263,-0.0112,0.0,0.0,0.0,0.0,0.0,0.0,0.0,0.0,0.0,0.0,0.0,0.0,0.0,0.0,0.0,0.0,0.0,-0.0056,-0.1119,-0.2683,0.0,-0.5137,-0.6531,-0.7986,-0.5475,-0.4247,-0.3576,-0.1455,-0.0392,0.0,0.0,0.0,0.0,0.0,-0.1,-0.2497,-0.3938,-0.5433,-0.6903,-0.8249,-0.8503,-0.8223,-0.7763,-0.6802,-0.5877,-0.5525,-0.5425,-0.5525,-0.5927,-0.5979,-0.6381,-0.7739,-0.7235,-0.6781,-0.7335,-0.6276,-0.4972,-0.3616,-0.2264,-0.1058,-0.0101,0.0,0.0,0.0,0.0,0.0,0.0,0.0,0.0,0.0,0.0,0.0,0.0,0.0,0.0,0.0,0.0,0.0,0.0,0.0,0.0,0.0,0.0,-0.1209,0.18,0.1133,0.0385,0.1837,0.1119,0.0,0.0,0.1038,0.2442,0.3886,0.5297,0.6727,0.8213,0.7419,0.5985,0.4465,0.0,0.0,0.0224,-0.1419,-0.2523,0.0,0.0,-0.251,-0.2527,-0.1018,0.0,0.0,0.0,0.0,0.0,0.0,0.0,0.0,0.0,0.0,0.0,0.0,0.0,0.0,0.0,0.0,0.0,0.0,0.0,0.0,0.0,-0.1735,0.0,-0.285,-0.4019,-0.6589,-0.5085,-0.3576,-0.2235,-0.218,-0.1231,0.0,0.0,0.0,0.0,0.0,-0.0984,-0.2456,-0.3814,-0.5281,-0.6778,-0.8101,-0.8272,-0.769,-0.6384,-0.6032,-0.5677,-0.4318,-0.4016,-0.4368,-0.5727,-0.5979,-0.6381,-0.7739,-0.7988,-0.7587,-0.6232,-0.492,-0.3565,-0.2213,-0.0857,0.0,0.0,0.0,0.0,0.0,0.0,0.0,0.0,0.0,0.0,0.0,0.0,0.0,0.0,0.0,0.0,0.0,0.0,0.0,0.0,0.0,0.0,0.0,0.0,-0.0706,0.0575,0.0374,0.011,0.0606,0.0334,0.0,0.0,0.0331,0.1037,0.2437,0.3052,0.3834,0.5279,0.5204,0.448,0.3042,0.245,0.0,0.0,0.0,0.0,-0.0804,-0.0808,-0.0809,0.0,0.0,0.0,0.0,0.0,0.0,0.0,0.0,0.0,0.0,0.0,0.0,0.0,0.0,0.0,0.0,0.0,0.0,0.0,0.0,0.0,0.0,0.0,-0.112,-0.2905,-0.2403,-0.3408,-0.5027,-0.3519,-0.2626,-0.2068,-0.1063,-0.0392,0.0,0.0,0.0,0.0,0.0,-0.0326,-0.1184,-0.3638,-0.5389,-0.6762,-0.7985,-0.8194,-0.7686,-0.6331,-0.5322,-0.4318,-0.2966,-0.2614,-0.2765,-0.3167,-0.3268,-0.3919,-0.6179,-0.5874,-0.542,-0.5927,-0.487,-0.3566,-0.2213,-0.0857,0.0,0.0,0.0,0.0,0.0,0.0,0.0,0.0,0.0,0.0,0.0,0.0,0.0,0.0,0.0,0.0,0.0,0.0,0.0,0.0,0.0,-0.0454,-0.136,-0.136,-0.1611,0.0,0.0,0.0,0.0,0.0,0.0,0.0,0.0,0.0386,0.1763,0.2074,0.2554,0.4062,0.3848,0.3146,0.2343,0.1733,0.1063,0.0,0.0,0.0,0.0,0.0,0.0,0.0,0.0,0.0,0.0,0.0,0.0,0.0,0.0,0.0,0.0,0.0,0.0,0.0,0.0,0.0,0.0,0.0,0.0,0.0,0.0,0.0,0.0,0.0,-0.084,0.0,-0.1622,-0.2236,-0.3465,-0.1957,-0.1343,-0.1286,-0.0334,0.0,0.0,0.0,0.0,0.0,0.0,-0.0321,-0.132,-0.4257,-0.6163,-0.7381,-0.8006,-0.8113,-0.7587,-0.5724,-0.4618,-0.3516,-0.1661,-0.126,-0.136,-0.1913,-0.2013,-0.2816,-0.5477,-0.5322,-0.487,-0.5172,-0.4568,-0.3364,-0.1511,-0.0555,0.0,0.0,0.0,0.0,0.0,0.0,0.0,0.0,0.0,0.0,0.0,0.0,0.0,0.0,0.0,0.0,0.0,0.0,0.0,0.0,0.0,-0.0454,-0.126,-0.1762,-0.1712,0.0,0.0,0.0,0.0,0.0,0.0,0.0,0.0,0.0,0.1733,0.2068,0.246,0.3913,0.3017,0.2068,0.2068,0.0896,0.0,0.0,0.0,0.0,0.0,0.0,0.0,0.0,0.0,0.0,0.0,0.0,0.0,0.0,0.0,0.0,0.0,0.0,0.0,0.0,0.0,0.0,0.0,0.0,0.0,0.0,0.0,0.0,0.0,0.0,-0.0784,-0.1956,-0.056,-0.0784,-0.1901,-0.056,0.0,0.0,0.0,0.0,0.0,0.0,-0.0053,-0.016,-0.0159,-0.0997,-0.2532,-0.5306,-0.7136,-0.8287,-0.8066,-0.7939,-0.7282,-0.4668,-0.3915,-0.3215,-0.0605,0.0,-0.0353,-0.1611,-0.1862,-0.2615,-0.5225,-0.5777,-0.5475,-0.4216,-0.4016,-0.3115,-0.0555,-0.005,0.0,0.0,0.0,0.0,0.0,0.0,0.0,0.0,0.0,0.0,0.0,0.0,0.0,0.0,0.0,0.0,0.0,0.0,0.0,0.0,0.0,-0.0051,-0.0151,-0.131,-0.131,-0.026,0.0,0.0,0.0,0.0,0.0,0.0,0.0,0.011,0.0447,0.0504,0.0616,0.1008,0.0784,0.0504,0.0504,0.0224,0.0,0.0,0.0,0.0,0.0,0.0,0.0,0.0,0.0,0.0,0.0,0.0,0.0,0.0,0.0,0.0,0.0,0.0,0.0,0.0,0.0,0.0,0.0,0.0,0.0,0.0,0.0,0.0,0.0,0.0,-0.0224,-0.0504,-0.0168,-0.0224,-0.0504,-0.0112,0.0,0.0,0.0,0.0,0.0,0.0,-0.0694,-0.1507,-0.1538,-0.1797,-0.2476,-0.406,-0.5523,-0.6807,-0.7756,-0.7285,-0.6079,-0.4416,-0.3215,-0.2063,-0.0404,0.0,-0.0101,-0.0404,-0.0454,-0.0958,-0.2615,-0.3768,-0.4368,-0.4066,-0.4016,-0.3416,-0.1762,-0.0656,0.0,0.0,0.0,0.0,0.0,0.0,0.0,0.0,0.0,0.0,0.0,0.0,0.0,0.0,0.0,0.0,0.0,0.0,0.0,0.0,0.0,-0.0504,-0.1511,-0.0807,-0.141,-0.0358,0.0,0.0,0.0,0.0,0.0,0.0,0.0,0.0,0.0,0.0,0.0,0.0,0.0,0.0,0.0,0.0,0.0,0.0,0.0,0.0,0.0,0.0,0.0,0.0,0.0,0.0,0.0,0.0,0.0,0.0,0.0,0.0,0.0,0.0,0.0,0.0,0.0,0.0,0.0,0.0,0.0,0.0,0.0,0.0,0.0,0.0,0.0,0.0,0.0,0.0,0.0,0.0,0.0,0.0,0.0,0.0,0.0,0.0,-0.0475,-0.1188,-0.1823,-0.1622,-0.1531,-0.3426,-0.4518,-0.5472,-0.7434,-0.7033,-0.5677,-0.4368,-0.3015,-0.1661,-0.0303,0.0,0.0,0.0,0.0,-0.0404,-0.1762,-0.3065,-0.4016,-0.4016,-0.4016,-0.3566,-0.2213,-0.0857,0.0,0.0,0.0,0.0,0.0,0.0,0.0,0.0,0.0,0.0,0.0,0.0,0.0,0.0,0.0,0.0,0.0,0.0,0.0,0.0,0.0,-0.0353,-0.1058,-0.0353,-0.0756,-0.0405,0.0,0.0,0.0,0.0,0.0,0.0,0.0,0.0,0.0,0.0,0.0,0.0,0.0,0.0,0.0,0.0,0.0,0.0,0.0,0.0,0.0,0.0,0.0,0.0,0.0,0.0,0.0,0.0,0.0,0.0,0.0,0.0,0.0,0.0,0.0,0.0,0.0,0.0,0.0,0.0,0.0,0.0,0.0,0.0,0.0,0.0,0.0,0.0,0.0,0.0,0.0,0.0,0.0,0.0,0.0,0.0,-0.0054,-0.047,-0.0362,-0.0258,-0.1821,-0.126,-0.0454,-0.2966,-0.3715,-0.4216,-0.6678,-0.6578,-0.5425,-0.4318,-0.2864,-0.141,-0.0252,0.0,0.0,0.0,0.0,-0.0353,-0.146,-0.2765,-0.3715,-0.3715,-0.3715,-0.3316,-0.2163,-0.0857,0.0,0.0,0.0,0.0,0.0,0.0,0.0,0.0,0.0,0.0,0.0,0.0,0.0,0.0,0.0,0.0,0.0,0.0,0.0,0.0,0.0,0.0,0.0,0.0,-0.0101,-0.0668,0.0,0.0,0.0,0.0,0.0,0.0,0.0,0.0,0.0,0.0,0.0,0.0,0.0,0.0,0.0,0.0,0.0,0.0,0.0,0.0,0.0,0.0,0.0,0.0,0.0,0.0,0.0,0.0,0.0,0.0,0.0,0.0,0.0,0.0,0.0,0.0,0.0,0.0,0.0,0.0,0.0,0.0,0.0,0.0,0.0,0.0,0.0,0.0,0.0,0.0,0.0,0.0,0.0,0.0,0.0,0.0,-0.0307,-0.258,-0.1921,-0.0405,-0.2867,-0.2013,-0.0303,-0.1862,-0.2314,-0.2614,-0.4166,-0.4468,-0.4268,-0.4066,-0.2163,-0.0252,-0.0051,0.0,0.0,0.0,0.0,-0.005,-0.0252,-0.141,-0.2314,-0.2314,-0.2314,-0.2213,-0.2013,-0.0857,0.0,0.0,0.0,0.0,0.0,0.0,0.0,0.0,0.0,0.0,0.0,0.0,0.0,0.0,0.0,0.0,0.0,0.0,0.0,0.0,0.0,0.0,0.0,0.0,-0.0605,-0.0713,0.0,0.0,0.0,0.0,0.0,0.0,0.0,0.0,0.0,0.0,0.0,0.0,0.0,0.0,0.0,0.0,0.0,0.0,0.0,0.0,0.0,0.0,0.0,0.0,0.0,0.0,0.0,0.0,0.0,0.0,0.0,0.0,0.0,0.0,0.0,0.0,0.0,0.0,0.0,0.0,0.0,0.0,0.0,0.0,0.0,0.0,0.0,0.0,0.0,0.0,0.0,0.0,0.0,0.0,0.0,-0.0465,-0.136,-0.3316,-0.2715,-0.141,-0.3364,-0.2163,-0.0252,-0.1611,-0.2013,-0.2264,-0.3615,-0.3465,-0.2914,-0.2914,-0.146,0.0,0.0,0.0,0.0,0.0,0.0,0.0,0.0,-0.1058,-0.2013,-0.2013,-0.2013,-0.2013,-0.2013,-0.0857,0.0,0.0,0.0,0.0,0.0,0.0,0.0,0.0,0.0,0.0,0.0,0.0,0.0,0.0,0.0,0.0,0.0,0.0,0.0,0.0,0.0,0.0,0.0,0.0,-0.0353,-0.071,0.0,0.0,0.0,0.0,0.0,0.0,0.0,0.0,0.0,0.0,0.0,0.0,0.0,0.0,0.0,0.0,0.0,0.0,0.0,0.0,0.0,0.0,0.0,0.0,0.0,0.0,0.0,0.0,0.0,0.0,0.0,0.0,0.0,0.0,0.0,0.0,0.0,0.0,0.0,0.0,0.0,0.0,0.0,0.0,0.0,0.0,0.0,0.0,0.0,0.0,0.0,0.0,0.0,0.0,0.0,-0.0873,-0.2176,-0.3521,-0.3115,-0.2213,-0.3565,-0.2163,-0.0202,-0.1209,-0.1511,-0.1812,-0.3165,-0.2564,-0.1611,-0.1913,-0.1008,0.0,0.0,0.0,0.0,0.0,0.0,0.0,0.0,-0.0807,-0.1511,-0.1511,-0.1511,-0.1511,-0.1511,-0.0656,0.0,0.0,0.0,0.0,0.0,0.0,0.0,0.0,0.0,-0.0151,-0.0454,-0.0151,0.0,0.0,0.0,0.0,0.0,0.0,0.0,0.0,0.0,0.0,0.0,0.0,0.0,-0.0721,0.0,0.0,0.0,0.0,0.0,0.0,0.0,0.0,0.0,0.0,0.0,0.0,0.0,0.0,0.0,0.0,0.0,0.0,0.0,0.0,0.0,0.0,0.0,0.0,0.0,0.0,0.0,0.0,0.0,0.0,0.0,0.0,0.0,0.0,0.0,0.0,0.0,0.0,0.0,0.0,0.0,0.0,0.0,0.0,0.0,0.0,0.0,0.0,0.0,0.0,0.0,0.0,0.0,0.0,0.0,-0.0829,-0.2214,-0.3537,-0.3115,-0.2213,-0.3565,-0.2163,0.0,-0.0101,-0.0151,-0.0404,-0.1762,-0.1159,-0.0454,-0.1661,-0.1008,0.0,0.0,0.0,0.0,0.0,0.0,0.0,0.0,-0.0101,-0.0151,-0.0151,-0.0151,-0.0151,-0.0151,-0.005,0.0,0.0,0.0,0.0,0.0,0.0,0.0,0.0,0.0,-0.0555,-0.1762,-0.0706,0.0,0.0,0.0,0.0,0.0,0.0,0.0,0.0,0.0,0.0,0.0,0.0,0.0,-0.0712,0.0,0.0,0.0,0.0,0.0,0.0,0.0,0.0,0.0,0.0,0.0,0.0,0.0,-0.1063,-0.0168,-0.0784,-0.1343,-0.1343,-0.056,-0.0336,-0.1231,-0.056,0.0,0.0,0.0,0.0,0.0,0.0,0.0,0.0,0.0,0.0,0.0,0.0,0.0,0.0,0.0,0.0,0.0,0.0,0.0,0.0,0.0,0.0,0.0,0.0,0.0,0.0,0.0,0.0,0.0,0.0,0.0,0.0,0.0,-0.1375,-0.3195,-0.2871,-0.2964,-0.3165,-0.2864,-0.1511,0.0,0.0,0.0,-0.0303,-0.1611,-0.1611,-0.136,-0.1862,-0.1008,0.0,0.0,0.0,0.0,0.0,0.0,0.0,0.0,0.0,0.0,0.0,0.0,0.0,0.0,0.0,0.0,0.0,0.0,0.0,0.0,0.0,0.0,0.0,-0.0756,-0.146,-0.1962,-0.1511,-0.1611,-0.2464,-0.2464,-0.2464,-0.2464,-0.1661,-0.126,-0.126,-0.0404,0.0,0.0,0.0,0.0,-0.0712,0.0,0.0,0.0,0.0,0.0,0.0,0.0,0.0,0.0,0.0,0.0,0.0,0.0,0.0,0.0,-0.1957,-0.2905,-0.2905,-0.2069,-0.1623,-0.2124,-0.1287,-0.0504,-0.0056,0.0,0.0,0.0,0.0,0.0,0.0,0.0,0.0,0.0,0.0,0.0,0.0,0.0,0.0,0.0,0.0,0.0,0.0,0.0,0.0,0.0,0.0,0.0,0.0,0.0,0.0,0.0,0.0,0.0,0.0,0.0,-0.1423,-0.3241,-0.2318,-0.2614,-0.3215,-0.2314,-0.1109,0.0,0.0,0.0,-0.0353,-0.2113,-0.2314,-0.2113,-0.2514,-0.1611,-0.0504,-0.0101,-0.0303,-0.0504,-0.0101,-0.0353,-0.0504,-0.0101,0.0,0.0,0.0,0.0,0.0,0.0,0.0,0.0,0.0,0.0,0.0,0.0,0.0,0.0,0.0,-0.1209,-0.2163,-0.2614,-0.3016,-0.3466,-0.3966,-0.4016,-0.4016,-0.4016,-0.2665,-0.2013,-0.2013,-0.0656,0.0,0.0,0.0,0.0,-0.0726,0.0,0.0,0.0,0.0,0.0,0.0,0.0,0.0,0.0,0.0,0.0,0.0,-0.1231,0.0,-0.2235,-0.3521,-0.4528,-0.4528,-0.4526,-0.3911,-0.2402,-0.2235,-0.1622,-0.0168,0.0,0.0,0.0,0.0,0.0,0.0,0.0,0.0,0.0,0.0,0.0,0.0,0.0,0.0,0.0,0.0,0.0,0.0,0.0,0.0,0.0,0.0,0.0,0.0,0.0,0.0,0.0,0.0,0.0,0.0,0.0,-0.0829,-0.2012,-0.1975,-0.2013,-0.2013,-0.1963,-0.1058,0.0,0.0,0.0,-0.0555,-0.3265,-0.3065,-0.2364,-0.3665,-0.3015,-0.1661,-0.0303,-0.1008,-0.1611,-0.0303,-0.1058,-0.1611,-0.0252,0.0,0.0,0.0,0.0,0.0,0.0,0.0,0.0,0.0,0.0,0.0,0.0,0.0,0.0,0.0,-0.1209,-0.2564,-0.3915,-0.5272,-0.5425,-0.4116,-0.4016,-0.4016,-0.4016,-0.2715,-0.2013,-0.2013,-0.0656,0.0,0.0,0.0,0.0,-0.1884,-0.0726,0.0,0.0,0.0,0.0,0.0,0.0,0.0,0.0,-0.084,-0.1566,-0.1566,-0.3629,0.0,-0.3967,-0.5083,-0.6031,-0.6031,-0.514,-0.4339,-0.3847,-0.2857,-0.1642,-0.0163,0.0,0.0,0.0,0.0,0.0,0.0,0.0,0.0,0.0,0.0,0.0,0.0,0.0,0.0,0.0,0.0,0.0,0.0,0.0,0.0,0.0,0.0,0.0,0.0,0.0,0.0,0.0,0.0,0.0,0.0,0.0,-0.0864,-0.1876,-0.0909,-0.1209,-0.1862,-0.0907,-0.0303,0.0,0.0,-0.0656,-0.1762,-0.3515,-0.4368,-0.4922,-0.5325,-0.4418,-0.2815,-0.0555,-0.1008,-0.1611,-0.0303,-0.1058,-0.1611,-0.0252,0.0,0.0,0.0,0.0,0.0,0.0,0.0,0.0,0.0,0.0,0.0,0.0,0.0,0.0,0.0,-0.1209,-0.2163,-0.2564,-0.4722,-0.6229,-0.6778,-0.6828,-0.6376,-0.5425,-0.4067,-0.2966,-0.2013,-0.0656,0.0,0.0,0.0,0.0,-0.3379,-0.1956,0.0,-0.0868,-0.044,0.0,0.0,0.0,0.0,0.0,-0.1175,-0.218,-0.218,-0.4689,0.0,-0.553,-0.6589,-0.7578,-0.7523,-0.6743,-0.5713,-0.4536,-0.3559,-0.2205,-0.0213,0.0,0.0,0.0,0.0,0.0,0.0,0.0,0.0,0.0,0.0,0.0,0.0,0.0,0.0,0.0,0.0,0.0,0.0,0.0,0.0,0.0,0.0,0.0,0.0,0.0,0.0,0.0,0.0,0.0,0.0,0.0,-0.0504,-0.1109,-0.0303,-0.0504,-0.1058,-0.0252,0.0,-0.0101,-0.0656,-0.136,-0.2414,-0.427,-0.5375,-0.5979,-0.5979,-0.502,-0.3465,-0.131,-0.141,-0.1611,-0.0303,-0.1058,-0.1611,-0.0252,0.0,0.0,0.0,0.0,0.0,0.0,0.0,0.0,0.0,0.0,0.0,0.0,0.0,0.0,0.0,-0.1209,-0.2013,-0.2013,-0.4522,-0.6379,-0.7182,-0.7736,-0.7385,-0.6029,-0.467,-0.3316,-0.2013,-0.0656,0.0,0.0,0.0,0.0,-0.4805,-0.3372,-0.2191,-0.2056,-0.0996,0.0,0.0,0.0,-0.0056,-0.0168,0.0,-0.2459,-0.257,-0.4962,-0.6908,-0.6908,-0.8011,-0.8794,-0.871,-0.8689,-0.7553,-0.4559,-0.4179,-0.307,-0.0265,0.0,0.0,0.0,0.0,0.0,0.0,0.0104,0.0103,0.0,0.0101,0.0101,0.0,0.0,0.0,0.0,0.0,0.0,0.0,0.0,0.0,0.0,0.0,0.0,0.0,0.0,0.0,0.0,0.0,0.0,0.0,0.0,0.0,0.0,0.0,-0.0101,-0.0151,-0.0051,-0.0151,-0.0555,-0.1661,-0.2163,-0.2865,-0.5325,-0.6079,-0.6129,-0.6029,-0.502,-0.3665,-0.2314,-0.2013,-0.1611,-0.0303,-0.1058,-0.1611,-0.0252,0.0,0.0,0.0,0.0,0.0,0.0,0.0,0.0,0.0,0.0,0.0,0.0,0.0,0.0,0.0,-0.1109,-0.1812,-0.1812,-0.4221,-0.5677,-0.5827,-0.7232,-0.7335,-0.5827,-0.4618,-0.3265,-0.1812,-0.0605,0.0,0.0,0.0,0.0,-0.4555,-0.3149,0.0,0.0,-0.0222,0.0,0.0,0.0,-0.0336,-0.151,-0.2962,-0.4357,-0.5526,-0.7122,-0.8266,-0.8266,-0.8441,-0.8567,-0.8537,-0.853,-0.7466,-0.4527,-0.4205,-0.3102,-0.0256,0.0,0.0,0.0,0.0,0.0,0.0,0.1014,0.1063,0.0051,0.1008,0.1058,0.0,0.0,0.0,0.0,0.0,0.0,0.0,0.0,0.0,0.0,0.0,0.0,0.0,0.0,0.0,0.0,0.0,0.0,0.0,0.0,0.0,0.0,0.0,-0.0706,-0.141,-0.0353,-0.1411,-0.3015,-0.2213,-0.3468,-0.5275,-0.5827,-0.6781,-0.7335,-0.6279,-0.502,-0.3665,-0.2314,-0.2013,-0.1611,-0.0303,-0.1058,-0.1611,-0.0252,0.0,0.0,0.0,0.0,0.0,0.0,0.0,0.0,0.0,0.0,0.0,0.0,0.0,0.0,0.0,-0.0252,-0.0454,-0.0454,-0.1963,-0.3317,-0.4368,-0.6728,-0.688,-0.4468,-0.4166,-0.2815,-0.0454,-0.0151,0.0,0.0,0.0,0.0,-0.5489,0.0,0.0,-0.0552,0.0,0.0,0.0,-0.056,-0.1455,-0.3017,-0.3967,-0.4905,-0.6354,-0.7774,-0.8686,-0.8615,-0.8533,-0.8459,-0.8391,-0.8381,-0.7331,-0.444,-0.4126,-0.3048,-0.0253,0.0,0.0,0.0,0.0,0.0,0.0,0.0656,0.0706,0.0,0.0656,0.0706,0.0,0.0,0.0,0.0,0.0,0.0,0.0,0.0,0.0,0.0,0.0,0.0,0.0,0.0,0.0,0.0,0.0,0.0,0.0,0.0,0.0,-0.0101,-0.0756,-0.1411,-0.2013,-0.1913,-0.2414,-0.3165,-0.3718,-0.4422,-0.5322,-0.6581,-0.7484,-0.7686,-0.6331,-0.502,-0.3665,-0.2314,-0.1511,-0.0857,-0.0151,-0.0555,-0.0857,-0.0151,0.0,0.0,0.0,0.0,0.0,0.0,0.0,0.0,0.0,0.0,0.0,0.0,0.0,0.0,0.0,0.0,0.0,0.0,-0.126,-0.2314,-0.3015,-0.5625,-0.6379,-0.497,-0.4316,-0.3015,-0.0958,-0.0303,0.0,0.0,0.0,0.0,-0.6559,0.0,-0.3161,-0.0613,0.0,0.0,0.0,-0.1119,-0.2624,-0.412,-0.4673,-0.5261,-0.6601,-0.7854,-0.8591,-0.8465,-0.8425,-0.8364,-0.8248,-0.8231,-0.7205,-0.4325,-0.4016,-0.2966,-0.0252,0.0,0.0,0.0,0.0,0.0,0.0,0.0202,0.0252,0.0,0.0202,0.0252,0.0,0.0,0.0,0.0,0.0,0.0,0.0,0.0,0.0,0.0,0.0,0.0,0.0,0.0,0.0,0.0,0.0,0.0,-0.0051,-0.0252,-0.0353,-0.0555,-0.1862,-0.2515,-0.2816,-0.3466,-0.3366,-0.3367,-0.5125,-0.5222,-0.5118,-0.708,-0.7637,-0.7285,-0.5727,-0.447,-0.3316,-0.1962,-0.0807,0.0,0.0,0.0,0.0,0.0,0.0,0.0,0.0,0.0,0.0,0.0,0.0,0.0,0.0,0.0,0.0,0.0,0.0,-0.0101,-0.0303,-0.0151,-0.0101,-0.0353,-0.1159,-0.1762,-0.2013,-0.4372,-0.5677,-0.5677,-0.4568,-0.3215,-0.1661,-0.0555,0.0,0.0,0.0,0.0,0.0,0.0,-0.1774,0.0,0.0,0.0,0.0,0.0,-0.2615,0.0,-0.5297,-0.6658,-0.8113,-0.8394,-0.8323,-0.8354,-0.8187,-0.8042,-0.8022,-0.8019,-0.7051,-0.4318,-0.4016,-0.2966,-0.0252,0.0,0.0,0.0,0.0,0.0,0.0,0.1109,0.1209,0.0051,0.1109,0.1159,0.0,0.0,0.0,0.0,0.0,0.0,0.0,0.0,0.0,0.0,0.0,0.0,0.0,0.0,0.0,0.0,0.0,0.0,-0.0151,-0.131,-0.1712,-0.1913,-0.3265,-0.447,-0.5125,-0.2966,-0.452,-0.6828,-0.4868,-0.5772,-0.7282,-0.6481,-0.6279,-0.5677,-0.3167,-0.2414,-0.1913,-0.0605,-0.0151,0.0,0.0,0.0,0.0,0.0,0.0,0.0,0.0,0.0,0.0,0.0,0.0,0.0,0.0,0.0,0.0,0.0,0.0,-0.0454,-0.1611,-0.0656,-0.0504,-0.1661,-0.0807,-0.0807,-0.1962,-0.3466,-0.4268,-0.4268,-0.4066,-0.2764,-0.0252,-0.0101,0.0,0.0,0.0,0.0,-0.6082,-0.3818,-0.169,0.0,-0.0553,0.0,0.0,0.0,-0.3463,-0.4091,-0.652,-0.8536,-0.8511,-0.836,-0.8241,-0.8153,-0.8011,-0.7913,-0.7913,-0.7249,-0.6055,-0.4099,-0.3313,-0.2138,-0.0202,0.0,0.0,0.0,0.0,0.0,0.0,0.0555,0.0605,0.0,0.0555,0.0605,0.0,0.0,0.0,0.0,0.0,0.0,0.0,0.0,0.0,0.0,0.0,0.0,0.0,0.0,0.0,-0.005,-0.0807,-0.1109,-0.126,-0.2614,-0.3115,-0.3215,-0.3815,-0.4368,-0.467,-0.3516,-0.4318,-0.5672,-0.5272,-0.5927,-0.6731,-0.6179,-0.5979,-0.5377,-0.2716,-0.2013,-0.1661,-0.0303,0.0,0.0,0.0,0.0,0.0,0.0,0.0,0.0,0.0,0.0,0.0,0.0,0.0,0.0,0.0,0.0,0.0,0.0,0.0,-0.0555,-0.1862,-0.146,-0.136,-0.1962,-0.1461,-0.1058,-0.0907,-0.2163,-0.2514,-0.1762,-0.3215,-0.3065,-0.1109,-0.0353,0.0,0.0,0.0,0.0,0.0,0.0,-0.2213,-0.1975,-0.0977,0.0,0.0,0.0,-0.4188,0.0,-0.7099,-0.9404,-0.8418,-0.8512,-0.856,-0.8057,-0.7885,-0.7797,-0.7763,-0.6605,-0.5291,-0.3971,-0.2719,-0.1467,-0.0149,0.0,0.0,0.0,0.0,0.0,0.0,0.0,0.0,0.0,0.0,0.0,0.0,0.0,0.0,0.0,0.0,0.0,0.0,0.0,0.0,0.0,0.0,0.0,0.0,0.0,-0.0202,-0.0605,-0.1611,-0.2213,-0.2614,-0.3615,-0.4016,-0.4016,-0.4016,-0.4016,-0.4016,-0.4016,-0.4016,-0.4268,-0.5575,-0.5777,-0.5475,-0.5475,-0.5225,-0.4422,-0.2114,-0.1511,-0.126,-0.0252,0.0,0.0,0.0,0.0,0.0,0.0,0.0,0.0,0.0,0.0,0.0,0.0,0.0,0.0,0.0,0.0,0.0,0.0,0.0,-0.0555,-0.1862,-0.2013,-0.2163,-0.2464,-0.2163,-0.1561,-0.0555,-0.146,-0.136,-0.0051,-0.2314,-0.2815,-0.1511,-0.0504,0.0,0.0,0.0,0.0,0.0,-0.4492,0.0,-0.2107,-0.0907,0.0,0.0,0.0,0.0,-0.405,-0.6328,-0.8326,-0.8079,-0.9034,-0.9465,-0.8039,-0.7818,-0.7763,-0.7631,-0.6549,-0.5313,-0.3945,-0.2714,-0.1478,-0.0143,0.0,0.0,0.0,0.0,0.0,0.0,0.0,0.0,0.0,0.0,0.0,0.0,0.0,0.0,0.0,0.0,0.0,0.0,0.0,0.0,0.0,0.0,0.0,0.0,0.0,-0.0756,-0.1913,-0.1962,-0.2765,-0.3915,-0.3966,-0.4016,-0.4016,-0.4016,-0.4016,-0.4016,-0.4016,-0.4016,-0.4268,-0.5575,-0.5122,-0.4116,-0.4116,-0.3165,-0.1862,-0.0454,-0.0101,-0.0101,0.0,0.0,0.0,0.0,0.0,0.0,0.0,0.0,0.0,0.0,0.0,0.0,0.0,0.0,0.0,0.0,0.0,0.0,0.0,0.0,-0.0555,-0.1862,-0.2013,-0.2564,-0.3815,-0.2715,-0.1962,-0.1913,-0.1962,-0.136,-0.0051,-0.136,-0.1461,-0.0101,-0.0051,0.0,0.0,0.0,0.0,0.0,0.0,0.0,-0.3359,-0.2087,-0.1197,-0.1264,-0.2741,-0.4308,-0.5116,-0.7486,-0.9095,-0.8148,-0.8297,-0.8403,-0.7866,-0.7651,-0.7509,-0.7461,-0.5705,-0.4219,-0.3718,-0.1911,-0.0517,-0.0048,0.0,0.0,0.0,0.0,0.0,0.0,0.0,0.0,0.0,0.0,0.0,0.0,0.0,0.0,0.0,0.0,0.0,0.0,0.0,0.0,0.0,0.0,0.0,0.0,0.0,-0.0303,-0.0907,-0.2614,-0.3565,-0.4116,-0.497,-0.5275,-0.5172,-0.4318,-0.4016,-0.3865,-0.3015,-0.3869,-0.5072,-0.3819,-0.432,-0.4922,-0.3215,-0.2363,-0.1711,-0.0353,0.0,0.0,0.0,0.0,0.0,0.0,0.0,0.0,0.0,0.0,0.0,0.0,0.0,0.0,0.0,0.0,0.0,0.0,0.0,0.0,0.0,0.0,-0.0555,-0.1862,-0.2765,-0.3465,-0.3966,-0.3566,-0.2914,-0.2013,-0.1159,-0.0504,0.0,-0.0454,-0.0504,0.0,0.0,0.0,0.0,0.0,0.0,-0.7265,0.0,0.0,0.0,0.0,-0.2457,-0.2622,0.0,-0.4867,-0.5828,-0.7771,-0.9053,-0.8118,-0.7841,-0.774,-0.774,-0.7533,-0.7353,-0.7299,-0.5176,-0.3588,-0.3592,-0.1462,-0.0138,-0.0559,-0.0607,-0.0796,-0.1224,-0.0864,0.0,-0.0686,-0.0247,0.0,0.0,0.0,0.0,0.0,0.0,0.0,0.0,0.0,0.0,0.0,0.0,0.0,0.0,0.0,0.0,0.0,0.0,-0.0252,-0.0857,-0.2614,-0.3615,-0.4066,-0.447,-0.4672,-0.4472,-0.3116,-0.2665,-0.2564,-0.2163,-0.2917,-0.382,-0.2916,-0.3267,-0.372,-0.2364,-0.1661,-0.1109,-0.0252,0.0,0.0,0.0,0.0,0.0,0.0,0.0,0.0,0.0,0.0,0.0,0.0,0.0,0.0,0.0,0.0,0.0,0.0,0.0,0.0,0.0,0.0,-0.0353,-0.126,-0.2964,-0.4016,-0.4016,-0.4016,-0.3615,-0.2715,-0.0958,0.0,0.0,0.0,0.0,0.0,-0.0454,-0.0656,-0.0656,-0.0656,-0.0454,0.0,0.0,0.0,0.0,0.0,0.0,-0.3982,0.0,-0.5849,-0.6011,-0.7065,-0.7938,-0.7838,-0.7695,-0.7597,-0.7594,-0.7465,-0.7312,-0.7119,-0.5129,-0.3659,-0.3659,-0.1567,-0.0584,-0.1747,-0.1836,-0.2391,-0.3728,-0.2586,-0.1919,-0.2003,-0.0748,0.0,0.0,0.0,0.0,0.0,0.0,0.0,0.0,0.0,0.0,0.0,0.0,0.0,0.0,0.0,0.0,0.0,0.0,-0.0756,-0.1963,-0.1963,-0.2815,-0.3765,-0.2464,-0.2013,-0.1862,-0.0504,-0.0101,-0.0303,-0.1611,-0.1159,-0.0605,-0.3115,-0.2113,-0.0303,-0.1561,-0.1008,0.0,0.0,0.0,0.0,0.0,0.0,0.0,-0.005,-0.0051,0.0,0.0,0.0,0.0,0.0,0.0,0.0,0.0,0.0,0.0,0.0,0.0,0.0,0.0,0.0,0.0,0.0,-0.2464,-0.3966,-0.3966,-0.3966,-0.3966,-0.3966,-0.141,0.0,0.0,0.0,0.0,-0.005,-0.131,-0.1963,-0.1963,-0.1963,-0.126,-0.5891,0.0,0.0,0.0,0.0,0.0,0.0,0.0,0.0,-0.7064,-0.7606,-0.7862,-0.7818,-0.7695,-0.7563,-0.7451,-0.7305,-0.7146,-0.7102,-0.5847,-0.491,-0.491,-0.3528,-0.2786,-0.3193,-0.3154,-0.3354,0.0,-0.3503,-0.2874,-0.2052,-0.0729,0.0,0.0,0.0,0.0,0.0,0.0,0.0,0.0,0.0,0.0,0.0,0.0,0.0,0.0,0.0,0.0,0.0,0.0,-0.0202,-0.0656,-0.1611,-0.2213,-0.2514,-0.2113,-0.2614,-0.3265,-0.1913,-0.2063,-0.2815,-0.2213,-0.2413,-0.2665,-0.146,-0.126,-0.131,-0.0706,-0.0303,0.0,0.0,0.0,0.0,0.0,0.0,-0.0252,-0.126,-0.0706,0.0,0.0,0.0,0.0,0.0,0.0,0.0,0.0,0.0,0.0,0.0,0.0,0.0,0.0,0.0,0.0,0.0,-0.2464,-0.3565,-0.2614,-0.3465,-0.3565,-0.2614,-0.0907,0.0,0.0,0.0,-0.0454,-0.1461,-0.0857,-0.0555,-0.0555,-0.0555,-0.0353,-0.5416,-0.5403,0.0,0.0,0.0,0.0,-0.6368,-0.6403,0.0,0.0,-0.7723,-0.7702,-0.7638,-0.756,-0.7455,-0.7299,-0.7156,-0.7095,-0.7095,-0.6115,-0.5403,-0.5403,-0.433,-0.3812,-0.4404,-0.4441,-0.4721,-0.5445,-0.4973,-0.3861,-0.2102,-0.0716,0.0,0.0,0.0,0.0,0.0,0.0,0.0,0.0,0.0,0.0,0.0,0.0,0.0,0.0,0.0,0.0,0.0,0.0,0.0,-0.0101,-0.0857,-0.1159,-0.1159,-0.1159,-0.1661,-0.2213,-0.1461,-0.1661,-0.2213,-0.1411,-0.1711,-0.2063,-0.0454,-0.0555,-0.1008,-0.0202,0.0,0.0,0.0,0.0,0.0,0.0,-0.0404,-0.0905,-0.1098,-0.1003,-0.0857,-0.0857,-0.0404,0.0,0.0,0.0,0.0,0.0,0.0,0.0,0.0,0.0,0.0,0.0,0.0,0.0,0.0,-0.1963,-0.2815,-0.2063,-0.2715,-0.2815,-0.2013,-0.0706,0.0,0.0,0.0,-0.0404,-0.1159,-0.0958,-0.0857,-0.0807,-0.0252,0.0,-0.5063,-0.5126,-0.5235,0.0,0.0,0.0,-0.7492,-0.7458,-0.7456,0.0,-0.7577,-0.7533,-0.7443,-0.7415,-0.7319,-0.7122,-0.7095,-0.7095,-0.7095,-0.6248,-0.5581,-0.5581,-0.4641,-0.4421,-0.551,-0.5743,-0.6319,-0.7493,-0.6365,-0.4574,-0.2339,-0.0801,0.0,0.0,0.0,0.0,0.0,0.0,0.0,0.0,0.0,0.0,0.0,0.0,0.0,0.0,0.0,0.0,0.0,0.0,0.0,0.0,0.0,0.0,0.0,-0.0151,-0.0303,-0.0404,-0.0252,-0.0303,-0.0404,-0.0101,0.0,0.0,0.0,0.0,0.0,0.0,0.0,0.0,0.0,-0.0101,-0.0202,-0.0202,-0.126,-0.1954,-0.0888,-0.1394,-0.2063,-0.2213,-0.1008,0.0,0.0,0.0,0.0,0.0,0.0,0.0,0.0,0.0,0.0,0.0,0.0,0.0,0.0,-0.1209,-0.1913,-0.1812,-0.1913,-0.1913,-0.1762,-0.0656,0.0,0.0,0.0,0.0,0.0,-0.136,-0.1913,-0.1762,-0.0555,0.0,0.0,0.0,0.0,0.0,0.0,0.0,-0.7227,-0.7302,-0.7426,0.0,-0.746,-0.7453,-0.7422,-0.7415,-0.7319,-0.7122,-0.7095,-0.7095,-0.7095,-0.6918,-0.6782,-0.6782,-0.6558,-0.6557,-0.695,-0.7031,-0.7201,-0.7587,-0.5476,-0.4009,-0.3629,-0.1309,0.0,0.0,0.0,0.0,0.0,0.0,0.0,0.0,0.0,0.0,0.0,0.0,0.0,0.0,0.0,0.0,0.0,0.0,0.0,0.0,0.0,0.0,-0.0151,-0.1209,-0.2314,-0.3065,-0.1963,-0.2314,-0.2864,-0.0706,0.0,0.0,0.0,0.0,0.0,0.0,0.0,0.0,0.0,-0.0807,-0.1611,-0.1611,-0.2614,-0.3812,-0.465,-0.3359,-0.2314,-0.3416,-0.1661,0.0,0.0,0.0,0.0,0.0,0.0,0.0,0.0,0.0,0.0,0.0,0.0,0.0,0.0,-0.1209,-0.1561,-0.0454,-0.141,-0.1511,-0.0454,-0.0151,0.0,0.0,0.0,0.0,0.0,-0.136,-0.1461,-0.0404,-0.0101,0.0,0.0,0.0,0.0,-0.3703,0.0,0.0,0.0,-0.7255,-0.7255,-0.7255,-0.7255,-0.7255,-0.7255,-0.7255,-0.7231,-0.7109,-0.7095,-0.7095,-0.7095,-0.7095,-0.7095,-0.7095,-0.7095,-0.72,-0.7402,-0.7441,-0.7546,-0.7695,-0.5341,-0.3892,-0.3892,-0.14,0.0,0.0,0.0,0.0,0.0,0.0,0.0,0.0,0.0,0.0,0.0,0.0,0.0,0.0,0.0,0.0,0.0,0.0,0.0,0.0,0.0,0.0,-0.01,-0.0754,-0.1411,-0.1913,-0.126,-0.1461,-0.1762,-0.0454,0.0,0.0,0.0,0.0,0.0,0.0,0.0,-0.0151,-0.0807,-0.1008,-0.1156,-0.184,-0.2497,-0.2999,-0.2995,-0.2482,-0.2001,-0.2013,-0.0896,0.0,0.0,0.0,0.0,0.0,0.0,0.0,0.0,0.0,0.0,0.0,0.0,0.0,0.0,-0.0605,-0.0706,-0.0051,-0.0656,-0.0706,-0.0051,0.0,0.0,0.0,-0.0656,-0.0656,0.0,-0.136,-0.131,0.0,0.0,0.0,0.0,0.0,0.0,0.0,0.0,-0.74,0.0,0.0,0.0,0.0,0.0,0.0,0.0,0.0,0.0,0.0,0.0,0.0,0.0,-0.7095,0.0,-0.7095,-0.7095,-0.7146,-0.7316,-0.7438,-0.7486,-0.7414,-0.5228,-0.3807,-0.3493,-0.1253,0.0,0.0,0.0,0.0,0.0,0.0,0.0,0.0,0.0,0.0,0.0,0.0,0.0,0.0,0.0,0.0,0.0,0.0,0.0,0.0,0.0,0.0,-0.0049,-0.0301,-0.0404,-0.0404,-0.0404,-0.0404,-0.0353,-0.0101,0.0,0.0,0.0,0.0,0.0,0.0,-0.0202,-0.0656,-0.1711,-0.1557,-0.1348,-0.216,-0.2572,-0.2382,-0.106,-0.1426,-0.1695,-0.0579,-0.0197,0.0,0.0,0.0,0.0,0.0,0.0,0.0,0.0,0.0,0.0,0.0,0.0,0.0,0.0,0.0,0.0,0.0,0.0,0.0,0.0,0.0,0.0,0.0,-0.1058,-0.1058,0.0,-0.1109,-0.1058,0.0,0.0,0.0,0.0,0.0,0.0,0.0,-0.6488,0.0,0.0,0.0,-0.7305,-0.7125,0.0,0.0,0.0,0.0,0.0,0.0,0.0,0.0,-0.7095,-0.7095,-0.7095,-0.7095,-0.7095,-0.7102,-0.7122,-0.7139,-0.685,-0.6072,-0.4547,-0.3219,-0.2267,-0.0819,0.0,0.0,0.0,0.0,0.0,0.0,0.0,0.0,0.0,0.0,0.0,0.0,0.0,0.0,0.0,0.0,0.0,0.0,0.0,0.0,0.0,0.0,-0.0148,-0.1351,-0.1762,-0.1762,-0.1762,-0.1762,-0.1561,-0.0404,0.0,0.0,0.0,0.0,0.0,0.0,-0.0857,-0.1812,-0.1962,-0.3574,-0.4897,-0.4009,-0.46,-0.5039,-0.3804,-0.2726,-0.195,-0.1812,-0.0833,0.0,0.0,0.0,0.0,0.0,0.0,0.0,0.0,0.0,0.0,0.0,0.0,0.0,0.0,0.0,0.0,0.0,0.0,0.0,0.0,0.0,0.0,0.0,-0.0151,-0.0151,0.0,-0.0151,-0.0151,0.0,0.0,0.0,0.0,0.0,0.0,0.0,0.0,0.0,-0.6454,0.0,-0.7217,0.0,0.0,0.0,0.0,0.0,0.0,0.0,-0.7095,0.0,0.0,0.0,-0.7095,0.0,0.0,0.0,-0.7265,-0.7353,-0.6897,-0.5774,-0.4483,-0.3177,-0.1958,-0.0665,0.0,0.0,0.0,0.0,0.0,0.0,0.0,0.0,0.0,0.0,0.0,0.0,0.0,0.0,0.0,0.0,0.0,0.0,0.0,0.0,0.0,0.0,-0.0048,-0.0638,-0.0843,-0.0845,-0.0854,-0.0851,-0.0744,-0.0199,0.0,0.0,0.0,0.0,0.0,0.0,-0.0958,-0.2163,-0.2964,-0.3913,-0.453,-0.4096,-0.3749,-0.3164,-0.1945,-0.125,-0.0827,-0.082,-0.0389,0.0,0.0,0.0,0.0,0.0,0.0,0.0,0.0,0.0,0.0,0.0,0.0,0.0,0.0,0.0,0.0,0.0,0.0,0.0,0.0,0.0,0.0,0.0,0.0,0.0,0.0,0.0,0.0,0.0,0.0,0.0,-0.3175,0.0,0.0,0.0,0.0,0.0,0.0,0.0,0.0,0.0,0.0,0.0,0.0,0.0,0.0,0.0,0.0,-0.7095,0.0,0.0,0.0,0.0,0.0,0.0,0.0,-0.7411,-0.6783,-0.5169,-0.4235,-0.3041,-0.1409,-0.0487,0.0,0.0,0.0,0.0,0.0,0.0,0.0,0.0,0.0,0.0,0.0,0.0,0.0,0.0,0.0,0.0,0.0,0.0,0.0,0.0,0.0,0.0,0.0,0.0,0.0,0.0,0.0,-0.0197,-0.0439,-0.0098,-0.0248,-0.0451,-0.0101,0.0,0.0,0.0,-0.12,-0.2742,-0.3714,-0.4339,-0.4647,-0.4063,-0.3109,-0.1879,-0.0325,0.0,0.0,0.0,0.0,0.0,0.0,0.0,0.0,0.0,0.0,0.0,0.0,0.0,0.0,0.0,0.0,0.0,0.0,0.0,0.0,0.0,0.0,0.0,0.0,0.0,0.0,0.0,0.0,0.0,0.0,0.0,0.0,0.0,0.0,0.0,0.0,0.0,0.0,-0.5373,0.0,0.0,0.0,0.0,-0.693,0.0,0.0,0.0,0.0,0.0,0.0,0.0,0.0,0.0,0.0,0.0,0.0,0.0,0.0,0.0,0.0,-0.7109,-0.6174,0.0,-0.3641,-0.256,-0.0191,0.0,0.0,0.0,0.0,0.0,0.0,0.0,0.0,0.0,0.0,0.0,0.0,0.0,0.0,0.0,0.0,0.0,0.0,0.0,0.0,0.0,0.0,0.0,0.0,0.0,0.0,0.0,0.0,-0.0763,-0.1529,-0.039,-0.0785,-0.1526,-0.0351,0.0,0.0,0.0,-0.1813,-0.3751,-0.3776,-0.5526,-0.6691,-0.4378,-0.3687,-0.2904,-0.0508,0.0,0.0,0.0,0.0,0.0,0.0,0.0,0.0,0.0,0.0,0.0,0.0,0.0,0.0,0.0,0.0,0.0,0.0,0.0,0.0,0.0,0.0,0.0,0.0,0.0,0.0,0.0,0.0,0.0,0.0,0.0,0.0,0.0,0.0,0.0,0.0,0.0,-0.4971,-0.4706,0.0,0.0,0.0,0.0,0.0,0.0,0.0,0.0,0.0,0.0,0.0,0.0,0.0,0.0,0.0,0.0,0.0,0.0,0.0,0.0,0.0,0.0,0.0,0.0,-0.4085,0.0,-0.1381,-0.0495,0.0,0.0,0.0,0.0,0.0,0.0,0.0,0.0,0.0,0.0,0.0,0.0,0.0,0.0,0.0,0.0,0.0,0.0,0.0,0.0,0.0,0.0,0.0,0.0,0.0,-0.0093,-0.0934,-0.1472,-0.1741,-0.1329,-0.0912,-0.0539,-0.0146,0.0,0.0,0.0,-0.125,-0.2589,-0.262,-0.3788,-0.4833,-0.4005,-0.31,-0.2169,-0.1357,-0.0552,0.0,0.0,0.0,0.0,0.0,0.0,0.0,0.0,0.0,0.0,0.0,0.0,0.0,0.0,0.0,0.0,0.0,0.0,0.0,0.0,0.0,0.0,0.0,0.0,0.0,0.0,0.0,0.0,0.0,0.0,0.0,0.0,0.0,0.0,-0.4735,-0.4765,0.0,-0.3585,-0.3692,0.0,-0.4773,0.0,0.0,0.0,0.0,0.0,0.0,0.0,0.0,0.0,0.0,0.0,0.0,-0.7095,0.0,0.0,0.0,0.0,0.0,0.0,-0.6674,-0.567,-0.4789,0.0,0.0,-0.1159,-0.0504,0.0,0.0,0.0,0.0,0.0,0.0,0.0,0.0,0.0,0.0,0.0,0.0,0.0,0.0,0.0,0.0,0.0,0.0,0.0,0.0,0.0,0.0,0.0,0.0,-0.0092,-0.0869,-0.1442,-0.1752,-0.1301,-0.0941,-0.0576,-0.0143,0.0,0.0,0.0,-0.0948,-0.1931,-0.1931,-0.2825,-0.3599,-0.319,-0.2439,-0.17,-0.1254,-0.0547,0.0,0.0,0.0,0.0,0.0,0.0,0.0,0.0,0.0,0.0,0.0,0.0,0.0,0.0,0.0,0.0,0.0,0.0,0.0,0.0,-0.0454,-0.0706,-0.0706,-0.0706,-0.0706,-0.0706,-0.0252,0.0,0.0,0.0,0.0,0.0,0.0,0.0]}]]